[[{"header":{"parameterUnit":"m.s-1","parameterCategory":1,"la1":30.6,"la2":28.766,"lo1":-90.7593,"lo2":-88.6598,"dy":0.0162,"dx":0.0183,"nx":116,"ny":114,"refTime":"2023-09-01T18:00:00:Z","depth":0,"parameterNumber":2,"parameterNumberName":"U-component_of_WINDS"},"data":[0.0,0.0,0.0,0.0,0.0,0.0,0.0,0.0,0.0,0.0,0.0,0.0,0.0,0.0,0.0,0.0,0.0,0.0,0.0,0.0,0.0,0.0,0.0,0.0,0.0,0.0,0.0,0.0,0.0,0.0,0.0,0.0,0.0,0.0,0.0,0.0,0.0,0.0,0.0,0.0,0.0,0.0,0.0,0.0,0.0,0.0,0.0,0.0,0.0,0.0,0.0,0.0,0.0,0.0,0.0,0.0,0.0,0.0,0.0,0.0,0.0,0.0,0.0,0.0,0.0,0.0,0.0,0.0,0.0,0.0,0.0,0.0,0.0,0.0,0.0,0.0,0.0,0.0,0.0,0.0,0.0,0.0,0.0,0.0,0.0,0.0,0.0,0.0,0.0,0.0,0.0,0.0,0.0,0.0,0.0,0.0,0.0,0.0,0.0,0.0,0.0,0.0,0.0,0.0,0.0,0.0,0.0,0.0,0.0,0.0,0.0,0.0,0.0,0.0,0.0,0.0,0.0,0.0,0.0,0.0,0.0,0.0,0.0,0.0,0.0,0.0,0.0,0.0,0.0,0.0,0.0,0.0,0.0,0.0,0.0,0.0,0.0,0.0,0.0,0.0,0.0,0.0,0.0,0.0,0.0,0.0,0.0,0.0,0.0,0.0,0.0,0.0,0.0,0.0,0.0,0.0,0.0,0.0,0.0,0.0,0.0,0.0,0.0,0.0,0.0,0.0,0.0,0.0,0.0,0.0,0.0,0.0,0.0,0.0,0.0,0.0,0.0,0.0,0.0,0.0,0.0,0.0,0.0,0.0,0.0,0.0,0.0,0.0,0.0,0.0,0.0,0.0,0.0,0.0,0.0,0.0,0.0,0.0,0.0,0.0,0.0,0.0,0.0,0.0,0.0,0.0,0.0,0.0,0.0,0.0,0.0,0.0,0.0,0.0,0.0,0.0,0.0,0.0,0.0,0.0,0.0,0.0,0.0,0.0,0.0,0.0,0.0,0.0,0.0,0.0,0.0,0.0,0.0,0.0,0.0,0.0,0.0,0.0,0.0,0.0,0.0,0.0,0.0,0.0,0.0,0.0,0.0,0.0,0.0,0.0,0.0,0.0,0.0,0.0,0.0,0.0,0.0,0.0,0.0,0.0,0.0,0.0,0.0,0.0,0.0,0.0,0.0,0.0,0.0,0.0,0.0,0.0,0.0,0.0,0.0,0.0,0.0,0.0,0.0,0.0,0.0,0.0,0.0,0.0,0.0,0.0,0.0,0.0,0.0,0.0,0.0,0.0,0.0,0.0,0.0,0.0,0.0,0.0,0.0,0.0,0.0,0.0,0.0,0.0,0.0,0.0,0.0,0.0,0.0,0.0,0.0,0.0,0.0,0.0,0.0,0.0,0.0,0.0,0.0,0.0,0.0,0.0,0.0,0.0,0.0,0.0,0.0,0.0,0.0,0.0,0.0,0.0,0.0,0.0,0.0,0.0,0.0,0.0,0.0,0.0,0.0,0.0,0.0,0.0,0.0,0.0,0.0,0.0,0.0,0.0,0.0,0.0,0.0,0.0,0.0,0.0,0.0,0.0,0.0,0.0,0.0,0.0,0.0,0.0,0.0,0.0,0.0,0.0,0.0,0.0,0.0,0.0,0.0,0.0,0.0,0.0,0.0,0.0,0.0,0.0,0.0,0.0,0.0,0.0,0.0,0.0,0.0,0.0,0.0,0.0,0.0,0.0,0.0,0.0,0.0,0.0,0.0,0.0,0.0,0.0,0.0,0.0,0.0,0.0,0.0,0.0,0.0,0.0,0.0,0.0,0.0,0.0,0.0,0.0,0.0,0.0,0.0,0.0,0.0,0.0,0.0,0.0,0.0,0.0,0.0,0.0,0.0,0.0,0.0,0.0,0.0,0.0,0.0,0.0,0.0,0.0,0.0,0.0,0.0,0.0,0.0,0.0,0.0,0.0,0.0,0.0,0.0,0.0,0.0,0.0,0.0,0.0,0.0,0.0,0.0,0.0,0.0,0.0,0.0,0.0,0.0,0.0,0.0,0.0,0.0,0.0,0.0,0.0,0.0,0.0,0.0,0.0,0.0,0.0,0.0,0.0,0.0,0.0,0.0,0.0,0.0,0.0,0.0,0.0,0.0,0.0,0.0,0.0,0.0,0.0,0.0,0.0,0.0,0.0,0.0,0.0,0.0,0.0,0.0,0.0,0.0,0.0,0.0,0.0,0.0,0.0,0.0,0.0,0.0,0.0,0.0,0.0,0.0,0.0,0.0,0.0,0.0,0.0,0.0,0.0,0.0,0.0,0.0,0.0,0.0,0.0,0.0,0.0,0.0,0.0,0.0,0.0,0.0,0.0,0.0,0.0,0.0,0.0,0.0,0.0,0.0,0.0,0.0,0.0,0.0,0.0,0.0,0.0,0.0,0.0,0.0,0.0,0.0,0.0,0.0,0.0,0.0,0.0,0.0,0.0,0.0,0.0,0.0,0.0,0.0,0.0,0.0,0.0,0.0,0.0,0.0,0.0,0.0,0.0,0.0,0.0,0.0,0.0,0.0,0.0,0.0,0.0,0.0,0.0,0.0,0.0,0.0,0.0,0.0,0.0,0.0,0.0,0.0,0.0,0.0,0.0,0.0,0.0,0.0,0.0,0.0,0.0,0.0,0.0,0.0,0.0,0.0,0.0,0.0,0.0,0.0,0.0,0.0,0.0,0.0,0.0,0.0,0.0,0.0,0.0,0.0,0.0,0.0,0.0,0.0,0.0,0.0,0.0,0.0,0.0,0.0,0.0,0.0,0.0,0.0,0.0,0.0,0.0,0.0,0.0,0.0,0.0,0.0,0.0,0.0,0.0,0.0,0.0,0.0,0.0,0.0,0.0,0.0,0.0,0.0,0.0,0.0,0.0,0.0,0.0,0.0,0.0,0.0,0.0,0.0,0.0,0.0,0.0,0.0,0.0,0.0,0.0,0.0,0.0,0.0,0.0,0.0,0.0,0.0,0.0,0.0,0.0,0.0,0.0,0.0,0.0,0.0,0.0,0.0,0.0,0.0,0.0,0.0,0.0,0.0,0.0,0.0,0.0,0.0,0.0,0.0,0.0,0.0,0.0,0.0,0.0,0.0,0.0,0.0,0.0,0.0,0.0,0.0,0.0,0.0,0.0,0.0,0.0,0.0,0.0,0.0,0.0,0.0,0.0,0.0,0.0,0.0,0.0,0.0,0.0,0.0,0.0,0.0,0.0,0.0,0.0,0.0,0.0,0.0,0.0,0.0,0.0,0.0,0.0,0.0,0.0,0.0,0.0,0.0,0.0,0.0,0.0,0.0,0.0,0.0,0.0,0.0,0.0,0.0,0.0,0.0,0.0,0.0,0.0,0.0,0.0,0.0,0.0,0.0,0.0,0.0,0.0,0.0,0.0,0.0,0.0,0.0,0.0,0.0,0.0,0.0,0.0,0.0,0.0,0.0,0.0,0.0,0.0,0.0,0.0,0.0,0.0,0.0,0.0,0.0,0.0,0.0,0.0,0.0,0.0,0.0,0.0,0.0,0.0,0.0,0.0,0.0,0.0,0.0,0.0,0.0,0.0,0.0,0.0,0.0,0.0,0.0,0.0,0.0,0.0,0.0,0.0,0.0,0.0,0.0,0.0,0.0,0.0,0.0,0.0,0.0,0.0,0.0,0.0,0.0,0.0,0.0,0.0,0.0,0.0,0.0,0.0,0.0,0.0,0.0,0.0,0.0,0.0,0.0,0.0,0.0,0.0,0.0,0.0,0.0,0.0,0.0,0.0,0.0,0.0,0.0,0.0,0.0,0.0,0.0,0.0,0.0,0.0,0.0,0.0,0.0,0.0,0.0,0.0,0.0,0.0,0.0,0.0,0.0,0.0,0.0,0.0,0.0,0.0,0.0,0.0,0.0,0.0,0.0,0.0,0.0,0.0,0.0,0.0,0.0,0.0,0.0,0.0,0.0,0.0,0.0,0.0,0.0,0.0,0.0,0.0,0.0,0.0,0.0,0.0,0.0,0.0,0.0,0.0,0.0,0.0,0.0,0.0,0.0,0.0,0.0,0.0,0.0,0.0,0.0,0.0,0.0,0.0,0.0,0.0,0.0,0.0,0.0,0.0,0.0,0.0,0.0,0.0,0.0,0.0,0.0,0.0,0.0,0.0,0.0,0.0,0.0,0.0,0.0,0.0,0.0,0.0,0.0,0.0,0.0,0.0,0.0,0.0,0.0,0.0,0.0,0.0,0.0,0.0,0.0,0.0,0.0,0.0,0.0,0.0,0.0,0.0,0.0,0.0,0.0,0.0,0.0,0.0,0.0,0.0,0.0,0.0,0.0,0.0,0.0,0.0,0.0,0.0,0.0,0.0,0.0,0.0,0.0,0.0,0.0,0.0,0.0,0.0,0.0,0.0,0.0,0.0,0.0,0.0,0.0,0.0,0.0,0.0,0.0,0.0,0.0,0.0,0.0,0.0,0.0,0.0,0.0,0.0,0.0,0.0,0.0,0.0,0.0,0.0,0.0,0.0,0.0,0.0,0.0,0.0,0.0,0.0,0.0,0.0,0.0,0.0,0.0,0.0,0.0,0.0,0.0,0.0,0.0,0.0,0.0,0.0,0.0,0.0,0.0,0.0,0.0,0.0,0.0,0.0,0.0,0.0,0.0,0.0,0.0,0.0,0.0,0.0,0.0,0.0,0.0,0.0,0.0,0.0,0.0,0.0,0.0,0.0,0.0,0.0,0.0,0.0,0.0,0.0,0.0,0.0,0.0,0.0,0.0,0.0,0.0,0.0,0.0,0.0,0.0,0.0,0.0,0.0,0.0,0.0,0.0,0.0,0.0,0.0,0.0,0.0,0.0,0.0,0.0,0.0,0.0,0.0,0.0,0.0,0.0,0.0,0.0,0.0,0.0,0.0,0.0,0.0,0.0,0.0,0.0,0.0,0.0,0.0,0.0,0.0,0.0,0.0,0.0,0.0,0.0,0.0,0.0,0.0,0.0,0.0,0.0,0.0,0.0,0.0,0.0,0.0,0.0,0.0,0.0,0.0,0.0,0.0,0.0,0.0,0.0,0.0,0.0,0.0,0.0,0.0,0.0,0.0,0.0,0.0,0.0,0.0,0.0,0.0,0.0,0.0,0.0,0.0,0.0,0.0,0.0,0.0,0.0,0.0,0.0,0.0,0.0,0.0,0.0,0.0,0.0,0.0,0.0,0.0,0.0,0.0,0.0,0.0,0.0,0.0,0.0,0.0,0.0,0.0,0.0,0.0,0.0,0.0,0.0,0.0,0.0,0.0,0.0,0.0,0.0,0.0,0.0,0.0,0.0,0.0,0.0,0.0,0.0,0.0,0.0,0.0,0.0,0.0,0.0,0.0,0.0,0.0,0.0,0.0,0.0,0.0,0.0,0.0,0.0,0.0,0.0,0.0,0.0,0.0,0.0,0.0,0.0,0.0,0.0,0.0,0.0,0.0,0.0,0.0,0.0,0.0,0.0,0.0,0.0,0.0,0.0,0.0,0.0,0.0,0.0,0.0,0.0,0.0,0.0,0.0,0.0,0.0,0.0,0.0,0.0,0.0,0.0,0.0,0.0,0.0,0.0,0.0,0.0,0.0,0.0,0.0,0.0,0.0,0.0,0.0,0.0,0.0,0.0,0.0,0.0,0.0,0.0,0.0,0.0,0.0,0.0,0.0,0.0,0.0,0.0,0.0,0.0,0.0,0.0,0.0,0.0,0.0,0.0,0.0,0.0,0.0,0.0,0.0,0.0,0.0,0.0,0.0,0.0,0.0,0.0,0.0,0.0,0.0,0.0,0.0,0.0,0.0,0.0,0.0,0.0,0.0,0.0,0.0,0.0,0.0,0.0,0.0,0.0,0.0,0.0,0.0,0.0,0.0,0.0,0.0,0.0,0.0,0.0,0.0,0.0,0.0,0.0,0.0,0.0,0.0,0.0,0.0,0.0,0.0,0.0,0.0,0.0,0.0,0.0,0.0,0.0,0.0,0.0,0.0,0.0,0.0,0.0,0.0,0.0,0.0,0.0,0.0,0.0,0.0,0.0,0.0,0.0,0.0,0.0,0.0,0.0,0.0,-2.4855,-2.4429,0.0,0.0,0.0,0.0,0.0,0.0,0.0,0.0,0.0,0.0,0.0,0.0,0.0,0.0,0.0,0.0,0.0,0.0,0.0,0.0,0.0,0.0,0.0,0.0,0.0,0.0,0.0,0.0,0.0,0.0,0.0,0.0,0.0,0.0,0.0,0.0,0.0,-2.6499,-2.6499,-2.6499,-2.6487,-2.5706,-2.5163,-2.4822,0.0,0.0,0.0,0.0,0.0,0.0,0.0,0.0,0.0,0.0,0.0,0.0,0.0,0.0,0.0,0.0,0.0,0.0,0.0,0.0,0.0,0.0,0.0,0.0,0.0,0.0,0.0,0.0,0.0,0.0,0.0,0.0,0.0,0.0,0.0,0.0,0.0,0.0,0.0,0.0,0.0,0.0,0.0,0.0,0.0,0.0,0.0,0.0,0.0,0.0,0.0,0.0,0.0,0.0,0.0,0.0,0.0,0.0,0.0,0.0,0.0,0.0,0.0,0.0,0.0,0.0,0.0,0.0,0.0,0.0,-2.5732,-2.5261,0.0,0.0,0.0,0.0,0.0,0.0,0.0,0.0,0.0,0.0,0.0,0.0,0.0,0.0,0.0,0.0,0.0,0.0,0.0,0.0,0.0,0.0,0.0,-2.5959,-2.6287,-2.6403,-2.6804,-2.6827,0.0,0.0,0.0,0.0,0.0,0.0,0.0,-2.6781,-2.6725,-2.6499,-2.6499,-2.6499,-2.6499,-2.6499,-2.6499,-2.6474,-2.5874,0.0,0.0,0.0,0.0,0.0,0.0,0.0,0.0,0.0,0.0,0.0,0.0,0.0,0.0,0.0,0.0,0.0,0.0,0.0,0.0,0.0,0.0,0.0,0.0,0.0,0.0,0.0,0.0,0.0,0.0,0.0,0.0,0.0,0.0,0.0,0.0,0.0,0.0,0.0,0.0,0.0,0.0,0.0,0.0,0.0,0.0,0.0,0.0,0.0,0.0,0.0,0.0,0.0,0.0,0.0,0.0,0.0,0.0,0.0,0.0,0.0,0.0,0.0,-2.8009,-2.8009,-2.8109,-2.8109,-2.8109,-2.8034,-2.664,-2.6302,-2.6788,-2.6592,0.0,0.0,0.0,0.0,0.0,0.0,0.0,0.0,0.0,0.0,0.0,0.0,0.0,0.0,0.0,0.0,0.0,0.0,0.0,0.0,0.0,-2.7584,-2.7796,-2.845,-2.7935,-2.778,-2.8205,0.0,0.0,0.0,0.0,0.0,-2.7384,-2.7832,-2.7563,-2.6499,-2.6499,-2.6499,-2.6499,-2.6499,-2.6499,-2.6499,-2.6389,-2.6339,-2.6339,0.0,0.0,0.0,0.0,0.0,0.0,0.0,0.0,0.0,0.0,0.0,0.0,0.0,0.0,0.0,0.0,0.0,0.0,0.0,0.0,0.0,0.0,0.0,0.0,0.0,0.0,0.0,0.0,0.0,0.0,0.0,0.0,0.0,0.0,0.0,0.0,0.0,0.0,0.0,0.0,0.0,-2.4876,-2.5435,0.0,0.0,0.0,0.0,0.0,0.0,0.0,0.0,0.0,0.0,0.0,0.0,0.0,-2.8072,-2.7996,-2.7595,-2.7632,-2.8097,-2.762,-2.7645,-2.8109,-2.8109,-2.8109,-2.8097,-2.7871,0.0,-2.7896,-2.7847,0.0,0.0,0.0,0.0,0.0,0.0,0.0,0.0,0.0,0.0,0.0,0.0,0.0,0.0,0.0,0.0,0.0,0.0,0.0,0.0,0.0,-2.884,-2.9131,-2.953,-2.9608,-2.9519,-2.9275,-2.9714,0.0,0.0,0.0,-2.9438,-2.8822,-2.8838,-2.8291,-2.7116,-2.6999,-2.6823,-2.6624,-2.6521,-2.6499,-2.6499,-2.6499,-2.6499,-2.6499,-2.6396,0.0,0.0,0.0,0.0,0.0,0.0,0.0,0.0,0.0,0.0,0.0,0.0,0.0,0.0,0.0,0.0,0.0,0.0,0.0,0.0,0.0,0.0,0.0,0.0,0.0,0.0,0.0,0.0,0.0,0.0,0.0,0.0,0.0,0.0,0.0,0.0,0.0,0.0,0.0,-2.6,-2.6402,-2.6942,-2.7231,-2.7482,0.0,0.0,0.0,0.0,0.0,0.0,0.0,0.0,0.0,-2.9051,-2.9051,-2.9051,-2.9051,-2.9126,-2.9277,-2.9515,-2.9566,-2.9716,-2.9942,-2.9942,-2.9942,-2.993,-2.9641,-2.9515,-2.944,-2.8499,-2.8109,-2.8109,0.0,0.0,0.0,0.0,-2.7828,-2.7828,0.0,0.0,0.0,0.0,0.0,0.0,0.0,0.0,0.0,0.0,0.0,0.0,-2.9404,-2.9896,-3.0249,-3.0407,-3.0851,-3.0894,-3.0405,-3.0965,-3.1106,-3.0563,-3.0831,-3.0802,-3.0358,-2.9563,-2.8729,-2.7875,-2.7498,-2.7173,-2.6942,-2.6921,-2.6949,-2.6984,-2.6914,-2.6763,-2.6499,-2.665,-2.6625,-2.6499,0.0,0.0,0.0,0.0,0.0,0.0,0.0,0.0,0.0,0.0,0.0,0.0,0.0,0.0,0.0,0.0,0.0,0.0,0.0,0.0,0.0,0.0,0.0,0.0,0.0,0.0,0.0,0.0,0.0,0.0,0.0,0.0,0.0,0.0,0.0,0.0,0.0,-2.714,-2.7494,-2.8047,-2.8109,-2.816,0.0,0.0,0.0,0.0,0.0,0.0,-2.9767,-2.993,-3.0005,-3.0005,-3.0131,-3.0206,-3.0206,-3.0608,-3.0809,-3.0821,-3.121,-3.1386,-3.1386,-3.1386,-3.1386,-3.1361,-3.0984,-3.0809,-3.0696,-2.9164,-2.8536,-2.8536,-2.8536,-2.8536,-2.8536,-2.8536,-2.8536,-2.8499,0.0,0.0,0.0,0.0,0.0,0.0,0.0,0.0,0.0,0.0,0.0,-3.0225,-3.0239,-3.0717,-3.1087,-3.1233,-3.1161,-3.1323,-3.1838,-3.1942,-3.2237,-3.2809,-3.2205,-3.185,-3.1882,-2.9813,-2.8716,-2.8651,-2.7759,-2.7387,-2.7563,-2.7855,-2.8131,-2.8286,-2.8082,-2.7444,-2.6524,-2.7052,-2.6977,-2.6537,-2.7065,0.0,0.0,0.0,0.0,0.0,0.0,0.0,0.0,0.0,0.0,0.0,0.0,0.0,0.0,0.0,0.0,0.0,0.0,0.0,0.0,0.0,0.0,0.0,0.0,0.0,0.0,0.0,0.0,0.0,0.0,0.0,0.0,0.0,0.0,0.0,0.0,0.0,0.0,-2.8047,-2.8109,0.0,0.0,0.0,0.0,-2.9741,-2.9741,-2.9767,-2.9792,-3.0281,-3.057,-3.057,-3.1047,-3.1311,-3.1311,-3.1336,-3.1348,-3.1348,-3.1386,-3.1386,-3.1386,-3.1386,-3.1386,-3.1386,-3.1361,-3.1348,-3.126,-3.0168,-2.9704,-2.9704,-2.9704,-2.9704,-2.9704,-2.9704,-2.9704,-2.9704,0.0,0.0,0.0,0.0,0.0,0.0,0.0,0.0,-2.9872,-2.9872,-3.0507,-3.0965,-3.1066,-3.1159,-3.1292,-3.1409,-3.1395,-3.1396,-3.1545,-3.202,-3.2585,-3.3161,-3.3309,-3.3114,-3.2544,-3.1308,-3.0304,-2.9539,-2.8988,-2.8633,-2.8502,-2.8479,-2.8473,-2.8411,-2.8339,-2.8015,-2.7507,-2.7392,-2.7369,-2.7507,-2.7344,-2.7203,0.0,0.0,0.0,0.0,0.0,0.0,0.0,0.0,0.0,0.0,0.0,0.0,0.0,0.0,0.0,0.0,0.0,0.0,0.0,0.0,0.0,0.0,0.0,0.0,0.0,0.0,0.0,0.0,0.0,0.0,0.0,0.0,0.0,0.0,0.0,0.0,0.0,-2.9126,-2.9189,0.0,-2.9465,-2.9993,-3.0319,-3.0319,-3.0633,-3.0821,-3.0821,-3.1009,-3.1273,-3.1637,-3.1825,-3.2102,-3.2466,-3.283,-3.3006,-3.3006,-3.337,-3.3533,-3.3533,-3.3533,-3.3533,-3.3508,-3.3156,-3.3006,-3.2918,-3.18,-3.1135,-3.0821,-3.0821,-3.0821,-3.0821,-3.0821,-3.0821,-3.0821,0.0,0.0,0.0,0.0,0.0,0.0,0.0,0.0,-3.061,-3.0696,-3.1083,-3.1409,-3.1511,-3.1409,-3.1409,-3.1511,-3.1511,-3.1661,-3.2005,-3.2542,-3.3184,-3.4001,-3.4433,-3.4094,-3.2965,-3.2514,-3.1664,-3.04,-3.0069,-2.9684,-2.9248,-2.9273,-2.9254,-2.9167,-2.9094,-2.8983,-2.8847,-2.8217,-2.8006,-2.8084,-2.7908,-2.7607,-2.7341,0.0,0.0,0.0,0.0,0.0,0.0,0.0,0.0,0.0,0.0,0.0,0.0,0.0,0.0,0.0,0.0,0.0,0.0,0.0,0.0,0.0,0.0,0.0,0.0,0.0,0.0,0.0,0.0,0.0,0.0,0.0,0.0,0.0,0.0,-2.9013,-2.9101,-2.9729,-2.9792,-2.9867,-3.0055,-3.0557,-3.0959,-3.1135,-3.1474,-3.175,-3.1951,-3.2139,-3.2403,-3.2767,-3.2955,-3.3244,-3.3633,-3.3997,-3.4173,-3.4173,-3.455,-3.468,-3.468,-3.468,-3.468,-3.4655,-3.4336,-3.4173,-3.4123,-3.337,-3.2842,-3.2441,-3.1687,-3.1386,-3.1386,-3.1386,-3.1386,-3.1386,0.0,0.0,0.0,0.0,0.0,0.0,0.0,-3.0905,-3.1511,-3.1511,-3.1511,-3.1511,-3.1511,-3.1511,-3.1511,-3.1511,-3.1525,-3.2079,-3.338,-3.3499,-3.4113,-3.5444,-3.5504,-3.4787,-3.3255,-3.3221,-3.2571,-3.1227,-3.09,-3.0424,-2.9857,-3.0263,-3.0533,-3.0698,-3.0495,-3.0406,-3.0368,-2.9541,-2.8822,-2.821,-2.8712,-2.8285,-2.7394,0.0,0.0,0.0,0.0,0.0,0.0,0.0,0.0,0.0,0.0,0.0,0.0,0.0,0.0,0.0,0.0,0.0,0.0,0.0,0.0,0.0,0.0,0.0,0.0,0.0,0.0,0.0,0.0,0.0,0.0,0.0,0.0,0.0,-2.9792,-2.9327,-2.9189,-2.9754,-2.9829,-3.0055,-3.0608,-3.1135,-3.1675,-3.2227,-3.2277,-3.2541,-3.3106,-3.3633,-3.3935,-3.3947,-3.4462,-3.4718,-3.4801,-3.4801,-3.4801,-3.4801,-3.4801,-3.4788,-3.4731,-3.4731,-3.4731,-3.4731,-3.4731,-3.4731,-3.4731,-3.4705,-3.4705,-3.4525,-3.2353,-3.1486,-3.1486,-3.1486,-3.1486,-3.1486,0.0,0.0,0.0,0.0,0.0,0.0,-3.0705,-3.1043,-3.1278,-3.1467,-3.1511,-3.1511,-3.1511,-3.1511,-3.1511,-3.1511,-3.1944,-3.2363,-3.2766,-3.3679,-3.4607,-3.5474,-3.5504,-3.5056,-3.4165,-3.4053,-3.3316,-3.1923,-3.1768,-3.1349,-3.0664,-3.0796,-3.0798,-3.0698,-3.066,-3.0533,-3.0394,-3.0012,-2.9758,-2.9517,-2.9076,-2.8712,-2.8499,0.0,0.0,0.0,0.0,0.0,0.0,0.0,0.0,0.0,0.0,0.0,0.0,0.0,0.0,0.0,0.0,0.0,0.0,0.0,0.0,0.0,0.0,0.0,0.0,0.0,0.0,0.0,0.0,0.0,0.0,0.0,-3.0444,-3.0683,-2.9905,-3.0005,-3.0167,-3.0369,-3.0721,-3.1173,-3.1725,-3.229,-3.2842,-3.3395,-3.3809,-3.411,-3.4261,-3.4412,-3.4675,-3.5031,-3.5194,-3.5658,-3.6496,-3.6508,-3.6508,-3.6508,-3.6508,-3.6295,-3.5906,-3.5906,-3.5906,-3.5906,-3.5906,-3.5906,-3.5881,-3.5433,-3.527,-3.5169,-3.4154,-3.3809,-3.3809,-3.3809,-3.3809,-3.3746,0.0,0.0,0.0,0.0,0.0,0.0,-3.0852,-3.1102,-3.1234,-3.1409,-3.1467,-3.1511,-3.1511,-3.1511,-3.1511,-3.1511,-3.2108,-3.2632,-3.2901,-3.4173,-3.5085,-3.5489,-3.5504,-3.5325,-3.4921,-3.4519,-3.3888,-3.309,-3.2433,-3.1882,-3.1468,-3.1161,-3.0949,-3.0811,-3.0736,-3.066,-3.0495,-3.0228,-3.0113,-3.005,-2.9491,-2.9151,-2.8913,-2.9202,-2.88,-2.8109,-2.8109,-2.8109,-2.8072,-2.7846,0.0,0.0,0.0,0.0,0.0,0.0,0.0,0.0,0.0,0.0,0.0,0.0,0.0,0.0,0.0,0.0,0.0,0.0,0.0,0.0,0.0,0.0,0.0,0.0,-3.1173,-3.1524,-3.0896,-3.0884,-3.1022,-3.126,-3.1763,-3.2315,-3.2867,-3.3432,-3.3997,-3.455,-3.509,-3.5416,-3.5416,-3.5843,-3.6132,-3.6232,-3.6411,-3.6885,-3.7525,-3.7525,-3.7525,-3.7525,-3.7525,-3.7362,-3.7048,-3.7048,-3.7048,-3.7048,-3.7048,-3.7048,-3.701,-3.6458,-3.6232,-3.6132,0.0,0.0,0.0,0.0,-3.468,-3.4675,0.0,0.0,0.0,0.0,0.0,0.0,-3.0601,-3.1014,-3.1248,-3.1263,-3.138,-3.1467,-3.1467,-3.1511,-3.1511,-3.1511,-3.2168,-3.2946,-3.3679,-3.4846,-3.5504,-3.5504,-3.5504,-3.5504,-3.5504,-3.4791,-3.438,-3.4312,-3.2918,-3.2182,-3.2074,-3.1371,-3.0986,-3.0986,-3.0811,-3.0736,-3.066,-3.0305,-3.0113,-3.0075,-2.9869,-2.9478,-2.9051,-2.9591,-2.9164,-2.8298,-2.8298,-2.8298,-2.821,-2.7657,0.0,0.0,0.0,0.0,0.0,0.0,0.0,0.0,0.0,0.0,0.0,0.0,0.0,0.0,0.0,0.0,0.0,0.0,0.0,0.0,0.0,0.0,0.0,0.0,-3.2039,-3.2428,-3.2491,-3.2127,-3.2014,-3.2441,-3.3006,-3.3571,-3.4123,-3.4625,-3.5115,-3.5558,-3.6144,-3.6505,-3.6505,-3.7437,0.0,0.0,0.0,-3.804,-3.8103,-3.8103,-3.8103,-3.8103,-3.8103,-3.8065,-3.8002,-3.8002,-3.8002,-3.8002,-3.8002,-3.8002,-3.7965,-3.7475,-3.7274,-3.7123,-3.5529,-3.4901,-3.4901,-3.4901,-3.4901,-3.4901,0.0,0.0,0.0,0.0,0.0,0.0,-3.0031,-3.0544,-3.094,-3.1132,-3.1278,-3.1351,-3.1351,-3.1438,-3.1511,-3.1511,-3.2617,-3.3814,-3.504,-3.537,-3.5504,-3.5504,-3.5504,-3.5504,-3.5504,-3.5359,-3.4938,-3.4312,-3.3422,-3.2684,-3.2074,-3.1371,-3.0986,-3.0986,-3.0949,-3.0849,-3.0698,-3.0444,-3.0254,-3.0075,-2.9869,-2.9729,-2.9641,-2.9754,-2.9654,-2.9465,-2.9465,-2.9465,-2.9377,-2.88,-2.8988,-2.939,-2.8875,-2.9089,0.0,0.0,0.0,0.0,0.0,0.0,0.0,0.0,0.0,0.0,0.0,0.0,0.0,0.0,0.0,0.0,0.0,0.0,0.0,-3.281,-3.3219,-3.3721,-3.4173,-3.448,-3.4568,-3.4286,-3.468,-3.5278,-3.5877,-3.6028,-3.6094,-3.6194,-3.6709,-3.7023,-3.7023,-3.7651,-3.7952,-3.7852,-3.7952,-3.8228,-3.8693,-3.8705,-3.8705,-3.8705,-3.8705,0.0,-3.8002,-3.8002,-3.8002,-3.8002,-3.8002,-3.8002,-3.8002,-3.7889,-3.7852,-3.7726,-3.6521,-3.6091,-3.6091,-3.6091,-3.6091,-3.6091,0.0,0.0,0.0,0.0,0.0,0.0,-2.958,-3.0075,-3.0485,-3.0911,-3.1102,-3.1234,-3.1278,-3.1351,-3.1572,-3.1974,-3.323,-3.4262,-3.4951,-3.4996,-3.4996,-3.4996,-3.4996,-3.516,-3.5489,-3.51,-3.471,-3.4312,-3.3199,-3.247,-3.2074,-3.1371,-3.0986,-3.0986,-3.0798,-3.0761,-3.0811,-3.0305,-3.0152,-3.0228,-2.9934,-2.9869,-2.9934,-2.983,-2.9869,-2.9896,-2.9491,-2.9617,-2.9845,-2.9126,-2.9076,-2.9315,-2.8988,-2.9126,-2.9365,0.0,0.0,0.0,0.0,0.0,0.0,0.0,0.0,0.0,0.0,0.0,0.0,0.0,0.0,-3.2729,-3.3006,0.0,-3.3985,-3.4274,-3.455,-3.5014,-3.583,-3.5956,-3.5956,-3.5956,-3.6194,-3.6471,-3.6795,-3.682,-3.682,-3.682,-3.7287,-3.76,-3.76,-3.8391,-3.873,-3.8442,-3.8705,-3.8994,-3.9283,-3.9283,-3.9283,-3.9283,-3.9283,-3.9132,-3.8856,-3.8856,-3.8856,-3.8856,-3.8856,-3.8856,-3.8831,-3.8555,-3.8266,-3.7952,-3.74,-3.7023,-3.6782,-3.6505,-3.6405,-3.6405,0.0,0.0,0.0,0.0,0.0,0.0,0.0,-2.9479,-2.9915,-3.0644,-3.0791,-3.094,-3.1176,-3.1263,-3.1692,-3.2602,-3.3768,-3.4472,-3.4503,-3.4472,-3.4472,-3.4503,-3.4377,-3.4658,-3.5489,-3.4576,-3.4177,-3.4312,-3.2812,-3.211,-3.2074,-3.1371,-3.0986,-3.0986,-3.0672,-3.0634,-3.0836,-3.0203,-3.0049,-3.0241,-2.982,-2.9807,-3.0037,-2.9769,-2.9871,-3.005,-2.9366,-2.9542,-2.9999,-2.9152,-2.8888,-2.8875,-2.8762,-2.8813,-2.8888,-2.8888,-2.934,0.0,0.0,0.0,0.0,0.0,0.0,0.0,0.0,-3.1976,-3.2403,-3.2516,-3.2993,-3.3596,-3.4261,-3.4738,-3.5253,-3.5871,-3.5884,-3.6257,-3.7362,-3.7172,-3.7096,-3.76,-3.7575,-3.7513,-3.7513,-3.7513,-3.7462,-3.7349,-3.7864,-3.8165,-3.8165,-3.9132,-3.9484,-3.9095,-3.9459,-3.9697,-3.9697,-3.9697,-3.9697,-3.9697,-3.9697,-3.9697,-3.9697,-3.9697,-3.9697,-3.9697,-3.9697,-3.9697,-3.9659,-3.922,-3.8755,-3.8329,-3.8216,-3.7902,-3.745,-3.6885,-3.6656,-3.6568,0.0,0.0,0.0,0.0,0.0,0.0,0.0,0.0,-2.9204,-3.0451,-3.0221,-3.019,-3.0791,-3.1102,-3.1871,-3.3275,-3.3913,-3.4299,-3.4472,-3.433,-3.4299,-3.4472,-3.3868,-3.4126,-3.5457,-3.407,-3.363,-3.4312,-3.2812,-3.211,-3.2074,-3.1371,-3.0986,-3.0986,-3.0949,-3.0748,-3.0444,-3.0368,-3.0152,-2.9819,-2.9227,-2.934,-2.9806,-2.9391,-2.9732,-3.0317,-3.0037,-3.0024,-2.9999,-2.9152,-2.8888,-2.8813,-2.8348,-2.8536,-2.8888,-2.8888,-2.934,-2.9792,-2.9792,-3.0143,-3.0645,-3.1173,-3.1675,-3.2051,0.0,-3.2566,-3.3119,-3.3608,-3.4148,-3.4851,-3.594,-3.6179,-3.6521,-3.7563,-3.7324,-3.74,-3.858,-3.868,-3.8844,-3.9346,-3.8981,-3.873,-3.873,-3.873,-3.8467,-3.7952,-3.8442,-3.8781,-3.8781,-3.9358,-3.9672,-3.9597,-3.9659,-3.9697,-3.9697,-3.9697,-3.9697,-3.9697,-3.9697,-3.9697,-3.9697,-3.9697,-3.9697,-3.9697,-3.9697,-3.9697,-3.9685,-3.9634,-3.9559,-3.9459,-3.8969,-3.8781,-3.8617,-3.8027,-3.7513,-3.7098,0.0,0.0,0.0,0.0,0.0,0.0,0.0,0.0,0.0,-2.8853,-2.9704,-3.0251,-3.0221,-3.1098,-3.2093,-3.3133,-3.3752,-3.3959,-3.3652,-3.3262,-3.2928,-3.2639,-3.2043,-3.2309,-3.3676,-3.307,-3.2813,-3.3024,-3.2384,-3.1882,-3.1468,-3.1161,-3.0986,-3.0986,-3.0748,-3.0609,-3.0533,-3.0203,-3.0011,-2.9947,-2.9566,-2.9642,-2.9947,-2.977,-3.0012,-3.0406,-3.0292,-3.0254,0.0,-2.9758,-2.9277,-2.885,-2.8624,-2.87,-2.8888,-2.8888,-2.9566,-3.0331,-3.0645,-3.1122,-3.1675,-3.2227,-3.2541,-3.2893,-3.3533,-3.411,-3.4675,-3.5228,-3.5768,-3.6395,-3.7174,-3.7061,-3.7211,-3.8329,-3.8027,-3.8052,-3.9195,-3.9082,-3.9082,-3.9634,-3.9484,-3.922,-3.8957,-3.8919,-3.8818,-3.853,-3.8781,-3.9057,-3.9333,-3.9572,-3.9697,-3.9697,-3.9697,-3.9697,-3.9697,-3.9697,-3.9697,-3.9697,-3.9697,-3.9697,-3.9697,-3.9697,-3.9697,-3.9697,-3.9697,-3.9697,-3.9697,-3.9697,-3.9697,-3.9672,-3.9433,-3.9346,-3.9233,-3.8341,-3.7864,-3.7663,0.0,0.0,0.0,0.0,0.0,0.0,0.0,0.0,0.0,0.0,-2.8892,-2.9763,-2.9808,-3.0921,-3.1933,-3.2648,-3.3063,-3.3137,-3.2689,-3.2231,-3.1738,-3.1204,-3.0666,-3.0875,-3.1985,-3.1721,-3.155,-3.1563,-3.1559,-3.1253,-3.0664,-3.0908,-3.0986,-3.0911,-3.0609,-3.0533,-3.0584,-3.0088,-2.9934,-2.9985,-2.9529,-2.953,-2.9745,-2.9669,-2.9808,-3.0075,-3.0279,-3.033,-3.0292,-3.0075,-2.9517,-2.8888,-2.8888,-2.8888,-2.8925,-2.9076,-2.9994,-3.1065,-3.1716,-3.2181,-3.2739,-3.3576,-3.3884,-3.4236,-3.519,-3.5717,-3.6157,-3.6697,-3.701,-3.74,-3.8115,-3.7914,-3.7965,-3.8944,-3.8743,-3.8755,-3.9572,-3.9346,-3.9245,-3.9647,-3.9697,-3.9534,-3.9132,-3.9094,-3.9094,-3.9094,-3.9094,-3.927,-3.9672,-3.9697,-3.9697,-3.9697,-3.9697,-3.9697,-3.9697,-3.9697,-3.9697,-3.9697,-3.9697,-3.9697,-3.9697,-3.9697,-3.9697,-3.9697,-3.9697,-3.9697,-3.9697,-3.9697,-3.9697,-3.9697,-3.9697,-3.9697,-3.9597,-3.8768,-3.8379,-3.8253,0.0,0.0,0.0,0.0,0.0,0.0,0.0,0.0,0.0,0.0,0.0,0.0,0.0,-3.0424,-3.1154,-3.1955,-3.1754,-3.1652,-3.1813,-3.1582,-3.1227,-3.0831,-3.0303,-3.0351,-3.1026,-2.995,-2.9641,-3.0158,-3.0151,-3.004,-2.9844,-3.0637,-3.0911,-3.0698,-3.0698,-3.0584,-3.0406,-3.019,-2.9972,-2.9691,-2.8599,-2.8486,-2.89,-2.8568,-2.8756,-2.9301,-2.991,-3.0113,-3.0075,-2.9869,-2.9402,-2.8888,-2.8888,-2.8888,-2.9001,-2.9603,-3.073,-3.1952,-3.2814,-3.3202,-3.368,-3.5064,-3.5846,-3.6445,-3.6985,-3.7123,-3.7287,-3.7839,-3.755,-3.7525,-3.8693,-3.8881,-3.9007,-3.9584,-3.9647,-3.9647,-3.9685,-3.9685,-3.9672,-3.9697,-3.9697,-3.9685,-3.9672,-3.9672,-3.9672,-3.9672,-3.9672,-3.9672,-3.9697,-3.9697,-3.9697,-3.9697,-3.9697,-3.9697,-3.9697,-3.9697,-3.9697,-3.9697,-3.9697,-3.9697,-3.9697,-3.9697,-3.9697,-3.9697,-3.9697,-3.9697,-3.9697,-3.9697,-3.9697,-3.9697,-3.9697,-3.9697,-3.9697,-3.9647,-3.9308,-3.8894,0.0,0.0,0.0,0.0,0.0,0.0,0.0,0.0,0.0,0.0,0.0,0.0,0.0,0.0,0.0,0.0,-3.0234,-3.035,-3.0792,-3.0404,-3.0049,-2.9862,-2.9337,-2.9209,-2.9456,-2.9226,-2.9132,-2.9164,-2.9301,-2.9261,-2.9081,-2.9359,-2.945,-2.9376,-2.9217,-2.913,-2.9057,-2.8848,-2.8736,-2.8674,-2.8624,-2.8725,-2.8913,-2.9214,-2.9454,-2.963,0.0,-2.9972,-3.0075,-3.0011,-2.9769,-2.9503,-2.9503,-2.9754,-3.0306,-3.1587,-3.2311,-3.2849,-3.3624,-3.4724,-3.5669,-3.5734,-3.662,-3.7492,-3.7698,-3.7596,-3.7592,-3.7938,-3.7864,-3.7852,-3.8228,-3.8617,-3.8982,-3.912,-3.9459,-3.9697,-3.9697,-3.9697,-3.9697,-3.9697,-3.9697,-3.9697,-3.9697,-3.9697,-3.9697,-3.9697,-3.9697,-3.9697,-3.9697,-3.9697,-3.9697,-3.9697,-3.9697,-3.9697,-3.9697,-3.9697,-3.9697,-3.9697,-3.9697,-3.9697,-3.9697,-3.9697,-3.9697,-3.9697,-3.9697,-3.9697,-3.9697,-3.9697,-3.9697,-3.9697,-3.9697,-3.9697,-3.9697,-3.9697,-3.9584,-3.9421,0.0,0.0,0.0,0.0,0.0,0.0,0.0,0.0,0.0,0.0,0.0,0.0,0.0,0.0,0.0,0.0,0.0,-2.8949,-2.9548,-2.9416,-2.9168,-2.8964,-2.8856,-2.8724,-2.8618,-2.8762,-2.8798,-2.869,-2.9027,-2.9093,-2.8875,-2.9153,-2.9255,-2.9182,-2.9071,-2.9021,-2.8984,-2.8774,-2.8712,-2.8725,-2.8863,-2.8888,-2.8938,-2.934,-2.9478,0.0,-2.9716,-2.9869,-2.9972,-2.9972,-2.9934,-2.9933,-3.0135,-3.084,-3.1782,-3.281,-3.3348,-3.3832,-3.4736,-3.5862,-3.679,-3.7073,-3.7804,-3.8464,-3.8489,-3.8299,-3.8133,-3.8026,-3.8064,-3.8101,-3.8015,-3.8316,-3.863,-3.8881,-3.917,-3.9396,-3.9396,-3.9572,-3.9622,-3.9421,-3.9572,-3.9697,-3.9697,-3.9697,-3.9697,-3.9697,-3.9697,-3.9697,-3.9697,-3.9697,-3.9697,-3.9697,-3.9697,-3.9697,-3.9697,-3.9697,-3.9697,-3.9697,-3.9697,-3.9697,-3.9697,-3.9697,-3.9697,-3.9697,-3.9697,-3.9697,-3.9697,-3.9697,-3.9697,-3.9697,-3.9697,-3.9697,-3.9697,-3.9697,-3.9697,-3.9697,0.0,0.0,0.0,0.0,0.0,0.0,0.0,0.0,0.0,0.0,0.0,0.0,0.0,0.0,0.0,0.0,0.0,0.0,-2.8196,-2.86,-2.8587,-2.8134,-2.881,-2.8946,-2.8388,-2.8533,-2.8654,-2.8654,-2.9191,-2.9336,-2.9174,-2.9909,-3.0164,-2.9986,-2.9986,-2.9986,-2.9999,-2.9781,-2.9704,-2.9666,-2.9139,-2.8888,-2.8888,-2.8925,-2.8938,-2.9001,-2.9591,-2.9792,-2.9792,-2.9792,-2.9959,-3.0214,-3.0747,-3.2054,-3.3356,-3.3154,-3.3868,-3.4983,-3.6079,-3.6565,-3.7173,-3.8861,-3.9334,-3.9372,-3.9297,-3.9246,-3.8943,-3.8127,-3.8149,-3.8235,-3.7976,-3.7952,-3.8153,-3.8781,-3.8906,-3.8932,-3.8957,-3.9371,-3.9496,-3.8981,-3.9371,-3.9697,-3.9697,-3.9697,-3.9697,-3.9697,-3.9697,-3.9697,-3.9697,-3.9697,-3.9697,-3.9697,-3.9697,-3.9697,-3.9697,-3.9697,-3.9697,-3.9697,-3.9697,-3.9697,-3.9697,-3.9697,-3.9697,-3.9697,-3.9697,-3.9697,-3.9697,-3.9697,-3.9697,-3.9697,-3.9697,-3.9697,-3.9697,-3.9697,-3.9697,-3.9697,0.0,0.0,0.0,0.0,0.0,0.0,0.0,0.0,0.0,0.0,0.0,0.0,0.0,0.0,0.0,0.0,0.0,0.0,-2.7525,-2.7652,-2.7821,-2.8097,-2.8661,-2.8736,-2.8182,-2.8744,-2.8794,-2.8255,-2.8553,-2.8592,-2.8384,-2.8609,-2.8672,-2.8598,-2.8598,-2.8598,-2.861,-2.8573,-2.8536,-2.8561,-2.8787,-2.8888,-2.8938,-2.9402,-2.9578,-2.9591,-2.9741,-2.9792,-2.9792,-2.9792,-3.0107,-3.0538,-3.0822,-3.2054,-3.3398,-3.3356,-3.4838,-3.6506,-3.6343,-3.7749,-3.9165,-3.8956,-3.9883,-4.0535,-3.946,-3.9078,-3.8656,-3.7866,-3.7266,-3.688,-3.6832,-3.7111,-3.7575,-3.814,-3.8592,-3.9057,-3.9421,-3.9597,-3.9647,-3.9496,-3.9609,-3.9697,-3.9697,-3.9697,-3.9697,-3.9697,-3.9697,-3.9697,-3.9697,-3.9697,-3.9697,-3.9697,-3.9697,-3.9697,-3.9697,-3.9697,-3.9697,-3.9697,-3.9697,-3.9697,-3.9697,-3.9697,-3.9697,-3.9697,-3.9697,-3.9697,-3.9697,-3.9697,-3.9697,-3.9697,-3.9697,-3.9697,-3.9697,-3.9697,-3.9697,-3.9697,0.0,0.0,0.0,0.0,0.0,0.0,0.0,0.0,0.0,0.0,0.0,0.0,0.0,0.0,0.0,0.0,0.0,0.0,0.0,-2.719,-2.7419,-2.7733,-2.8273,-2.846,-2.8255,-2.8785,-2.8911,-2.8572,-2.8874,-2.8962,-2.885,-2.885,-2.885,-2.885,-2.885,-2.885,-2.885,-2.885,-2.885,0.0,0.0,-2.9302,-2.934,-2.9666,-2.9792,-2.9792,-2.9792,-2.9792,-2.9792,-2.9792,-3.0273,-3.095,-3.1403,-3.2628,-3.3984,-3.4362,-3.5583,-3.6852,-3.7134,-3.8144,-3.9142,-3.9167,-3.9775,-4.0117,-3.9054,-3.8643,-3.8165,-3.7283,-3.6761,-3.6499,-3.6405,-3.6669,-3.6998,-3.755,-3.8115,-3.8592,-3.8906,-3.9383,-3.9597,-3.9371,-3.9546,-3.9697,-3.9697,-3.991,-3.9961,-3.971,-3.9697,-3.9697,-3.9697,-3.9697,-3.9697,-3.9697,-3.9697,-3.9697,-3.9697,-3.9697,-3.9697,-3.9697,-3.9697,-3.9697,-3.9697,-3.9697,-3.9697,-3.9697,-3.9697,-3.9697,-3.9697,-3.9697,-3.9697,-3.9697,-3.9697,-3.9697,-3.9697,-3.9697,-3.9697,-3.9697,0.0,0.0,0.0,0.0,0.0,0.0,0.0,0.0,0.0,0.0,0.0,0.0,0.0,0.0,0.0,0.0,0.0,0.0,0.0,0.0,-2.7168,-2.7168,-2.7708,-2.8069,-2.8261,-2.8598,-2.8887,-2.9061,-2.9391,-2.9566,-2.9566,-2.9566,-2.9603,-2.9679,-2.9679,-2.9729,-2.9792,-2.9792,-2.9792,-2.9792,-2.9792,-2.9792,-2.9792,0.0,-2.9792,-2.9792,-2.9792,-2.9792,-2.9792,-2.983,-3.0417,-3.1264,-3.1963,-3.3181,-3.4517,-3.5346,-3.5978,-3.6711,-3.7896,-3.8135,-3.8254,-3.9297,-3.9357,-3.9007,-3.8519,-3.8123,-3.7597,-3.6613,-3.6534,-3.6628,-3.6452,-3.6405,-3.6593,-3.7098,-3.7651,-3.804,-3.8115,-3.9032,-3.9521,-3.9032,-3.9408,-3.9722,-3.9798,-4.0174,-4.0237,-3.9835,-3.9798,-3.9798,-3.9798,-3.9873,-3.9873,-3.981,-3.9798,-3.9772,-3.9697,-3.9697,-3.9697,-3.9697,-3.9697,-3.9697,-3.9697,-3.9697,-3.9697,-3.9697,-3.9697,-3.9697,-3.9697,-3.9697,-3.9697,-3.9697,-3.9697,-3.9697,-3.9697,-3.9697,-3.9697,-3.9697,0.0,0.0,0.0,0.0,0.0,0.0,0.0,0.0,0.0,0.0,-2.3028,-2.3789,0.0,0.0,0.0,0.0,0.0,0.0,0.0,0.0,0.0,-2.6637,-2.7165,-2.7467,-2.749,-2.7959,-2.8247,-2.8284,-2.8348,-2.8398,-2.8398,-2.8398,-2.8637,-2.9076,-2.9076,-2.934,-2.9792,-2.9792,-2.9792,-2.9792,-2.9792,-2.9792,-2.9792,-2.9792,0.0,0.0,-2.9792,-2.9792,-2.983,-2.9972,-3.0339,-3.0739,-3.1066,-3.2275,-3.3662,-3.3981,-3.5507,-3.7116,-3.7352,-3.8002,-3.8746,-3.923,-3.9124,-3.88,-3.8458,-3.8026,-3.7467,-3.6789,-3.6534,-3.6452,-3.6405,-3.6405,-3.6593,-3.7098,-3.7651,-3.8165,-3.8655,-3.9283,-3.9659,-3.9559,-3.9634,-3.9873,-4.0325,-4.0049,-3.9986,-4.0337,-4.0375,-4.0375,-4.0375,-4.0802,-4.0852,-4.0388,-4.0375,-4.0162,-3.9697,-3.9697,-3.9697,-3.9697,-3.9697,-3.9697,-3.9697,-3.9697,-3.9697,-3.9697,-3.9697,-3.9697,-3.9697,-3.9697,-3.9697,-3.9697,-3.9697,-3.9697,-3.9697,-3.9697,-3.9697,-3.9697,0.0,0.0,0.0,0.0,0.0,0.0,0.0,-2.2247,-2.2278,-2.2228,-2.2464,-2.2984,-2.3789,-2.4793,-2.5556,0.0,0.0,0.0,0.0,0.0,0.0,0.0,0.0,0.0,-2.6889,-2.7394,-2.767,-2.767,0.0,-2.8109,-2.8109,-2.8109,-2.8247,-2.8461,-2.8461,-2.8812,-2.934,-2.934,-2.9515,-2.9792,-2.9792,-2.9792,-2.9792,0.0,0.0,0.0,0.0,-2.9792,-2.9792,-2.9895,-3.0033,-3.027,-3.085,-3.2326,-3.3873,-3.4088,-3.5481,-3.6981,-3.7134,-3.7518,-3.8009,-3.8439,-3.8242,-3.7945,-3.7962,0.0,0.0,-3.6231,-3.6024,-3.5931,-3.5931,-3.5931,-3.6119,-3.6671,-3.7462,-3.8103,-3.8379,-3.9157,-3.9697,-3.9697,-3.9697,-3.991,-4.0463,-4.0275,-4.035,-4.0902,-4.1204,-4.1116,-4.0551,-4.0987,-4.1163,-4.0899,-4.0664,-4.0388,-4.0124,-3.9835,-3.9697,-3.9697,-3.9697,-3.9697,-3.9697,-3.9697,-3.9697,-3.9697,-3.9697,-3.9697,-3.9697,-3.9697,-3.9697,-3.9697,-3.9697,-3.9697,-3.9697,-3.9697,-3.9697,-3.9697,0.0,0.0,0.0,0.0,0.0,0.0,0.0,-2.2197,-2.2197,-2.2197,-2.2197,-2.2404,-2.2941,-2.4153,-2.5062,0.0,0.0,0.0,0.0,0.0,0.0,0.0,0.0,0.0,0.0,0.0,0.0,-2.714,-2.7544,0.0,0.0,0.0,0.0,0.0,-2.7934,-2.8235,-2.8712,-2.8712,-2.9089,0.0,0.0,-2.9679,0.0,0.0,0.0,0.0,0.0,0.0,-2.9792,-2.9792,-2.988,-3.0121,-3.0851,-3.2298,-3.39,-3.4543,-3.5442,-3.6371,-3.6892,-3.679,-3.673,-3.7406,-3.7151,-3.6849,-3.7267,-3.6868,-3.6277,-3.5629,-3.5495,-3.5495,-3.5495,-3.5596,-3.5868,-3.6329,-3.7287,-3.8002,-3.8002,-3.8981,-3.9697,-3.9697,-3.9697,-3.9961,-4.0626,-4.0475,-4.0664,-4.1455,-4.1907,-4.1886,-4.1091,-4.1455,-4.163,-4.1517,-4.0978,-4.0639,-4.0513,-3.9973,-3.9697,-3.9697,-3.9697,-3.9697,-3.9697,-3.9697,-3.9697,-3.9697,-3.9697,-3.9697,-3.9697,-3.9697,-3.9697,-3.9697,-3.9697,-3.9697,-3.9697,-3.9697,-3.9697,-3.9697,0.0,0.0,0.0,0.0,0.0,0.0,0.0,-2.2197,-2.2197,-2.2197,-2.2197,-2.2209,-2.2289,-2.2953,-2.3953,0.0,0.0,0.0,0.0,0.0,0.0,0.0,0.0,0.0,0.0,0.0,0.0,-2.6562,-2.6612,0.0,0.0,0.0,0.0,0.0,0.0,-2.7657,-2.8185,-2.8185,0.0,0.0,0.0,0.0,0.0,0.0,0.0,0.0,0.0,-2.9792,-2.9792,-2.9792,-3.0118,-3.0545,-3.0635,-3.1465,-3.2751,-3.4521,-3.4989,-3.5135,-3.6396,-3.5848,-3.5173,-3.6263,-3.6078,-3.5814,-3.6355,0.0,-3.5604,-3.5508,-3.5495,-3.5495,-3.5495,-3.5956,-3.6355,-3.6405,-3.7287,-3.8002,-3.8002,-3.8981,-3.9697,-3.9697,0.0,-4.0111,-4.1112,-4.0362,-4.0413,-4.2024,-4.2187,-4.2389,-4.2735,-4.2798,-4.2597,-4.215,-4.1555,-4.0974,-4.0526,-3.9973,-3.9697,-3.9697,-3.9697,-3.9697,-3.9697,-3.9697,-3.9697,-3.9697,-3.9697,-3.9697,-3.9697,-3.9697,-3.9697,-3.9697,-3.9697,-3.9697,-3.9697,-3.9697,-3.9697,-3.9697,0.0,0.0,0.0,0.0,0.0,0.0,-2.2185,-2.2197,-2.2197,-2.2197,-2.2197,-2.2197,-2.2197,-2.244,-2.3142,-2.4431,0.0,0.0,0.0,0.0,0.0,0.0,0.0,0.0,0.0,0.0,-2.6499,-2.6499,-2.6499,0.0,0.0,0.0,0.0,0.0,0.0,-2.7128,-2.7607,-2.7607,0.0,0.0,0.0,0.0,0.0,0.0,0.0,0.0,0.0,0.0,-2.9792,-2.9792,-2.9942,-3.0231,-3.0884,-3.1599,0.0,-3.333,-3.4111,-3.4783,-3.5109,-3.4969,-3.4947,-3.584,-3.5798,-3.5604,-3.5991,0.0,-3.5307,-3.4688,-3.4768,-3.5006,-3.5006,-3.5504,-3.5981,-3.6355,-3.701,-3.7626,-3.7952,-3.8693,-3.932,-3.9647,-3.9697,-4.0124,-4.1175,-4.0639,-4.0739,-4.2112,-4.2514,-4.2748,-4.2974,-4.2974,-4.2873,-4.2715,-4.1794,-4.1175,-4.0962,-4.0136,-3.9697,-3.9697,-3.9697,-3.9697,-3.9697,-3.9697,-3.9697,-3.9697,-3.9697,-3.9697,-3.9697,-3.9697,-3.9697,-3.9697,-3.9697,-3.9697,-3.9697,-3.9697,-3.9697,-3.9697,0.0,0.0,0.0,0.0,0.0,-2.1956,-2.2154,-2.2197,-2.2197,-2.2197,-2.2197,-2.2197,-2.2197,-2.2197,-2.2609,-2.3611,-2.4501,0.0,0.0,0.0,0.0,0.0,0.0,0.0,0.0,0.0,-2.6499,-2.6499,-2.6499,-2.6499,0.0,0.0,-2.6499,-2.6499,0.0,0.0,0.0,0.0,0.0,0.0,0.0,0.0,0.0,0.0,0.0,0.0,0.0,0.0,0.0,0.0,0.0,0.0,0.0,0.0,0.0,0.0,-3.3689,-3.4387,-3.4174,-3.4193,-3.4368,-3.4925,-3.5062,-3.5097,-3.5267,0.0,-3.4793,-3.406,-3.4336,-3.468,-3.468,-3.5303,-3.5918,-3.6342,-3.687,-3.7374,-3.7927,-3.8504,-3.9082,-3.9634,-3.9697,-4.0124,-4.1175,-4.1279,-4.1505,-4.2162,-4.2728,-4.2974,-4.2974,-4.2974,-4.2974,-4.2974,-4.207,-4.1505,-4.1288,-4.0413,-3.986,-3.9697,-3.9697,-3.9697,-3.9697,-3.9697,-3.9697,-3.9697,-3.9697,-3.9697,-3.9697,-3.9697,-3.9697,-3.9697,-3.9697,-3.9697,-3.9697,-3.9697,-3.9697,-3.9697,0.0,0.0,0.0,0.0,0.0,0.0,-2.2154,-2.2197,-2.2197,-2.2197,-2.2197,-2.2197,-2.2197,-2.2197,-2.2402,-2.2975,-2.3623,0.0,0.0,0.0,0.0,0.0,0.0,0.0,0.0,0.0,-2.6499,-2.6499,-2.6499,-2.6499,-2.6499,-2.6499,-2.6499,-2.6499,0.0,0.0,0.0,0.0,0.0,0.0,0.0,0.0,0.0,0.0,0.0,0.0,0.0,0.0,0.0,0.0,0.0,0.0,0.0,0.0,0.0,0.0,-3.3897,-3.3909,-3.3897,-3.3508,-3.3136,-3.3149,-3.352,-3.3922,-3.3922,-3.3922,-3.3909,-3.3897,-3.4336,-3.468,-3.468,-3.5617,-3.6405,-3.6405,-3.687,-3.7374,-3.7927,-3.8504,-3.9082,-3.9634,-3.9697,-4.0124,-4.1175,-4.2321,-4.2791,-4.225,-4.2728,-4.2974,-4.2974,-4.2974,-4.2974,-4.2974,-4.2489,-4.1882,-4.13,-4.0736,-4.0237,-3.9697,-3.9697,-3.9697,-3.9697,-3.9697,-3.9697,-3.9697,-3.9697,-3.9697,-3.9697,-3.9697,-3.9697,-3.9697,-3.9697,-3.9697,-3.9697,-3.9697,-3.9697,-3.9697,0.0,0.0,0.0,0.0,0.0,0.0,0.0,-2.2197,-2.203,-2.1494,-2.1894,-2.203,-2.1494,-2.1894,-2.2059,-2.1728,-2.3122,0.0,0.0,0.0,0.0,0.0,0.0,0.0,0.0,0.0,-2.6499,-2.6499,-2.6499,-2.6499,-2.6499,-2.6499,-2.6499,-2.6499,-2.6499,-2.6499,0.0,0.0,0.0,0.0,0.0,0.0,-2.9792,0.0,0.0,0.0,0.0,0.0,0.0,0.0,0.0,0.0,0.0,0.0,0.0,-3.3119,-3.3332,-3.3332,-3.3332,-3.3206,-3.3212,-3.3545,-3.3771,-3.3897,-3.3897,-3.3897,-3.3897,-3.3897,-3.4336,-3.4793,-3.5169,-3.5881,-3.6405,-3.6405,-3.687,-3.7374,-3.7927,-3.8504,-3.9082,-3.9634,-4.0362,-4.0953,-4.125,-4.2333,-4.2898,-4.2791,-4.2873,-4.2974,-4.2974,-4.2974,-4.2974,-4.2974,-4.2502,-4.1894,-4.13,-4.0802,-4.0237,-3.9697,-3.9697,-3.9697,-3.9697,-3.9697,-3.9697,-3.9697,-3.9697,-3.9697,-3.9697,-3.9697,-3.9697,-3.9697,-3.9697,-3.9697,-3.9697,-3.9697,-3.9581,-3.9426,0.0,0.0,0.0,0.0,0.0,0.0,0.0,-2.2154,-2.203,-2.16,-2.1925,-2.203,-2.1557,-2.1925,-2.1894,-2.1167,-2.2832,0.0,0.0,0.0,0.0,0.0,0.0,0.0,-2.6499,-2.6499,-2.6499,-2.6499,-2.6499,-2.6499,-2.6499,-2.6499,-2.6499,-2.6499,-2.6499,-2.6499,0.0,0.0,0.0,0.0,0.0,0.0,-2.9792,0.0,0.0,0.0,0.0,0.0,0.0,0.0,0.0,0.0,0.0,0.0,0.0,0.0,-3.3124,-3.3074,-3.2805,-3.2918,-3.3106,-3.3232,-3.3432,0.0,-3.3583,-3.3583,-3.3583,-3.3583,-3.4198,-3.4781,-3.5132,-3.5855,-3.6405,-3.6405,-3.687,-3.7374,-3.7927,-3.8504,-3.9082,-3.9634,-4.0664,-4.1288,-4.1288,-4.2333,-4.2974,-4.2974,-4.2974,-4.2974,-4.2974,-4.2974,-4.2974,-4.2974,-4.2703,-4.2108,-4.13,-4.0949,-4.0438,-3.9697,-3.9697,-3.9697,-3.9697,-3.9697,-3.9697,-3.9697,-3.9697,-3.9697,0.0,-3.9697,-3.9697,-3.9697,-3.9581,-3.953,-3.953,-3.9426,-3.9258,-3.9154,0.0,0.0,0.0,0.0,0.0,0.0,0.0,-2.2092,-2.2185,-2.2123,-2.2154,-2.2185,-2.2123,-2.2123,-2.1862,-2.1167,0.0,0.0,0.0,0.0,0.0,0.0,0.0,0.0,-2.6499,-2.6499,-2.6499,-2.6499,-2.6499,-2.6499,-2.6499,-2.6452,-2.6465,-2.6499,-2.6452,-2.6465,-2.6499,-2.6499,-2.7128,-2.8109,-2.8109,-2.8775,0.0,0.0,0.0,0.0,0.0,0.0,0.0,0.0,0.0,0.0,0.0,0.0,0.0,0.0,0.0,0.0,0.0,-3.2667,-3.2955,-3.2403,-3.2679,-3.3124,-3.3124,-3.3124,0.0,-3.3174,-3.3985,-3.4726,-3.4731,-3.5642,-3.6405,-3.6405,-3.6908,-3.7425,-3.7939,-3.8542,-3.912,-3.9634,-4.0664,-4.1288,-4.1288,-4.2333,-4.2974,-4.2974,-4.2974,-4.2974,-4.2974,-4.2974,-4.2974,-4.2974,-4.2974,-4.2472,-4.1351,-4.13,-4.0802,-3.9747,-3.971,-3.9697,-3.9697,-3.9697,-3.9697,-3.9697,-3.9697,-3.9697,-3.9697,-3.9697,-3.9697,-3.9645,-3.9426,-3.927,-3.9218,-3.8893,-3.8788,-3.8788,0.0,0.0,0.0,0.0,0.0,0.0,0.0,0.0,0.0,0.0,-2.1862,-2.1999,-2.1431,-2.1368,-2.1293,0.0,0.0,0.0,0.0,0.0,0.0,0.0,0.0,0.0,-2.6499,-2.6499,-2.6499,-2.6499,-2.6499,-2.6499,-2.6499,-2.5886,-2.5921,-2.6452,-2.5851,-2.5921,-2.6499,-2.6499,-2.7128,-2.8109,-2.8109,-2.8775,0.0,0.0,0.0,0.0,-2.9792,-2.9792,0.0,0.0,0.0,0.0,0.0,0.0,0.0,0.0,-3.3124,-3.3056,-3.2918,0.0,-3.3086,-3.2905,-3.3023,-3.3124,0.0,-3.3124,-3.3206,-3.3621,-3.4248,-3.4806,-3.5232,-3.5906,-3.6405,-3.6405,-3.7174,-3.7864,-3.799,-3.8868,-3.9546,-3.9685,-4.0664,-4.1288,-4.1288,-4.2333,-4.2974,-4.2974,-4.2974,-4.2974,-4.2974,-4.2974,-4.2974,-4.2974,-4.2974,-4.2647,-4.1969,-4.1543,-4.099,-4.0325,-3.9898,-3.9697,-3.9697,-3.9697,-3.9697,-3.9697,-3.9697,-3.9697,-3.9697,-3.9697,-3.9581,-3.9374,-3.931,-3.9154,-3.8893,-3.8841,-3.8684,-3.8514,0.0,0.0,0.0,0.0,0.0,0.0,0.0,0.0,0.0,0.0,0.0,0.0,0.0,0.0,0.0,0.0,0.0,0.0,0.0,0.0,0.0,0.0,0.0,-2.5111,-2.6452,-2.6499,-2.6499,-2.6499,-2.6499,-2.6314,-2.5955,-2.5886,-2.5886,-2.5955,-2.5886,-2.6094,-2.6512,-2.6763,-2.7331,-2.8134,-2.8386,0.0,0.0,0.0,0.0,0.0,-2.9792,-2.9792,0.0,-2.9792,-3.0507,-3.1386,0.0,0.0,0.0,0.0,-3.3124,-3.3124,-3.3124,-3.3124,-3.3124,-3.3124,-3.3124,-3.3124,-3.3124,-3.3124,-3.3156,-3.3458,-3.4161,-3.4768,-3.5069,-3.583,-3.6493,-3.6744,-3.745,-3.8191,-3.8705,-3.9308,-3.9785,-4.0036,-4.0827,-4.1388,-4.1693,-4.2472,-4.2974,-4.2974,-4.2974,-4.2974,-4.2974,-4.2974,-4.2974,-4.2974,-4.2974,-4.271,-4.2213,-4.1605,-4.1012,-4.0513,-3.9961,-3.9697,-3.9697,-3.9697,-3.9697,-3.9697,-3.9697,-3.9633,-3.953,-3.953,-3.9322,-3.905,-3.8945,-3.8788,-3.8579,-3.8461,-3.8356,-3.825,0.0,0.0,0.0,0.0,0.0,0.0,0.0,0.0,0.0,0.0,0.0,0.0,0.0,0.0,0.0,0.0,0.0,0.0,0.0,0.0,0.0,0.0,-2.46,-2.4767,-2.643,-2.6499,-2.6499,-2.6499,-2.6383,-2.6025,-2.5488,-2.5921,-2.5838,-2.5347,-2.6228,-2.6612,-2.6663,-2.7168,-2.772,-2.8273,-2.87,0.0,0.0,0.0,0.0,0.0,0.0,0.0,0.0,-2.9892,-3.057,-3.1399,-3.1486,0.0,0.0,0.0,0.0,0.0,-3.3124,-3.3124,-3.3124,-3.3124,-3.3124,-3.3124,-3.3124,-3.3144,-3.3206,-3.3206,-3.4085,-3.4806,-3.4806,-3.568,-3.6593,-3.7098,-3.7726,-3.8504,-3.9546,-3.9697,-3.9898,-4.045,-4.0949,-4.1555,-4.215,-4.2715,-4.2974,-4.2974,-4.2974,-4.2974,-4.2974,-4.2974,-4.2974,-4.2974,-4.2974,-4.2748,-4.2338,-4.1656,-4.105,-4.0626,-3.9998,-3.9697,-3.9697,-3.9697,-3.9697,-3.9645,-3.9645,-3.9478,-3.9206,-3.9206,-3.905,-3.8736,-3.8461,-3.8356,-3.8303,-3.8092,-3.7986,-3.7986,0.0,0.0,0.0,0.0,0.0,0.0,0.0,0.0,0.0,0.0,0.0,0.0,0.0,0.0,0.0,0.0,0.0,0.0,0.0,0.0,0.0,-2.4826,-2.4826,-2.5264,-2.6236,-2.6396,-2.6499,-2.6499,-2.5816,-2.5781,-2.628,-2.5063,-2.4779,-2.5359,-2.6613,-2.719,-2.7228,-2.7745,-2.8298,-2.8775,-2.8863,0.0,0.0,0.0,0.0,0.0,0.0,0.0,0.0,-3.0331,-3.0896,-3.1474,-3.1938,0.0,0.0,0.0,0.0,0.0,-3.3124,-3.3124,-3.3124,-3.3124,-3.3124,-3.3124,-3.3124,-3.3432,-3.3771,-3.3771,-3.465,-3.537,-3.537,-3.5931,-3.6593,-3.7098,-3.8065,-3.8969,-3.9597,-3.9697,-3.9898,-4.045,-4.0949,-4.1555,-4.215,-4.2715,-4.2974,-4.2974,-4.2974,-4.2974,-4.2974,-4.2974,-4.2974,-4.2974,-4.2974,-4.2936,-4.2848,-4.1844,-4.125,-4.115,-4.0174,-3.9697,-3.9697,-3.9697,-3.9581,-3.9362,-3.9362,-3.9154,-3.8893,-3.8893,-3.8736,-3.8473,-3.8421,-3.825,-3.8039,-3.8039,-3.7986,-3.7986,0.0,0.0,0.0,0.0,0.0,0.0,0.0,0.0,0.0,0.0,0.0,0.0,0.0,0.0,0.0,0.0,0.0,0.0,0.0,0.0,-2.3708,-2.448,-2.4826,-2.5229,-2.5688,-2.6245,-2.6082,-2.5205,-2.5699,-2.5699,-2.5182,-2.4699,-2.5308,-2.6807,-2.6956,-2.7297,-2.7758,-2.831,-2.8662,-2.8913,0.0,0.0,0.0,0.0,0.0,0.0,0.0,0.0,0.0,0.0,-3.0959,-3.1486,-3.2039,0.0,0.0,0.0,0.0,0.0,-3.3124,-3.3124,-3.3124,-3.3124,-3.3124,-3.3199,-3.3458,-3.3721,-3.3985,-3.4286,-3.4944,-3.5495,-3.5495,-3.6232,-3.7086,-3.8001,-3.8781,-3.9408,-3.9659,-3.9697,-3.9898,-4.045,-4.0949,-4.1555,-4.215,-4.2715,-4.2974,-4.2974,-4.2974,-4.2974,-4.2974,-4.2974,-4.2974,-4.2974,-4.2974,-4.2836,-4.259,-4.1743,-4.1288,-4.1275,-4.0224,-3.9633,-3.9478,-3.9478,-3.9322,-3.905,-3.905,-3.8841,-3.8566,-3.8566,-3.8409,-3.8198,-3.8198,-3.8092,-3.7986,-3.7986,-3.7601,-3.7054,0.0,0.0,0.0,0.0,0.0,0.0,0.0,0.0,0.0,0.0,0.0,0.0,0.0,0.0,0.0,0.0,0.0,0.0,0.0,0.0,-2.3551,-2.4373,-2.4933,-2.5312,-2.55,-2.5804,-2.5489,-2.4558,-2.5622,-2.5576,-2.4476,-2.5212,-2.6367,-2.7791,-2.7445,-2.7668,-2.8335,-2.89,-2.9126,-2.9126,0.0,0.0,0.0,0.0,0.0,0.0,0.0,0.0,0.0,0.0,0.0,0.0,0.0,0.0,0.0,-3.3124,-3.3124,-3.3124,-3.3124,-3.3124,-3.3124,-3.3124,-3.3169,-3.3382,-3.3809,-3.4098,-3.4399,-3.4781,-3.5307,-3.5734,-3.5859,-3.6835,-3.7864,-3.8781,-3.9333,-3.9697,-3.9697,-3.9697,-3.9898,-4.045,-4.0949,-4.1555,-4.215,-4.2715,-4.2974,-4.2974,-4.2974,-4.2974,-4.2974,-4.2974,-4.2974,-4.2974,-4.2848,-4.264,-4.2213,-4.1492,-4.11,-4.1075,-4.0097,-3.9478,-3.931,-3.9218,-3.8998,-3.8736,-3.8736,-3.8566,-3.8303,-3.8303,-3.8198,-3.7986,-3.7708,-3.7429,-3.715,-3.715,-3.6557,-3.5783,0.0,0.0,0.0,0.0,0.0,0.0,0.0,0.0,0.0,0.0,0.0,0.0,0.0,0.0,0.0,0.0,0.0,0.0,0.0,0.0,-2.3551,-2.4373,-2.5312,-2.5945,-2.6131,-2.4898,-2.4798,-2.5863,-2.5374,-2.5235,-2.552,-2.7101,-2.7521,-2.695,-2.82,-2.8787,-2.8863,-2.9478,-2.9729,-2.9729,-2.9779,0.0,0.0,0.0,0.0,0.0,0.0,0.0,0.0,0.0,0.0,0.0,0.0,0.0,-3.3124,-3.3124,-3.3124,-3.3124,-3.3124,-3.3124,-3.3124,-3.3124,-3.3458,-3.3847,-3.3884,-3.4688,-3.5395,-3.5433,-3.5918,-3.6505,-3.6973,-3.799,-3.8781,-3.8906,-3.9333,-3.9697,-3.9697,-3.9697,-3.9898,-4.045,-4.0949,-4.1555,-4.215,-4.2715,-4.2974,-4.2974,-4.2974,-4.2974,-4.2974,-4.2974,-4.2974,-4.2974,-4.2539,-4.225,-4.2213,-4.1103,-4.0576,-4.0576,-3.97,-3.9322,-3.927,-3.8998,-3.8684,-3.8409,-3.8409,-3.8303,-3.8039,-3.8039,-3.8039,-3.7868,-3.6785,-3.5674,-3.467,-3.467,-3.4614,-3.4558,0.0,0.0,0.0,0.0,0.0,0.0,0.0,0.0,0.0,0.0,0.0,0.0,0.0,0.0,0.0,0.0,0.0,0.0,0.0,-2.3352,-2.4192,-2.5123,-2.5158,-2.5385,-2.5877,-2.5358,-2.4953,-2.4615,-2.5123,-2.6159,-2.7635,-2.7203,-2.7575,-2.8669,-2.8674,-2.8966,-2.9478,-2.9691,-2.9792,-2.9792,-2.9792,-2.9792,0.0,0.0,0.0,0.0,0.0,0.0,0.0,0.0,-3.1625,-3.2039,-3.283,-3.3124,-3.3124,-3.3124,-3.3124,-3.3124,-3.3124,-3.3124,-3.3156,-3.3508,-3.401,-3.4412,-3.4412,-3.4956,-3.5596,-3.5981,-3.6496,-3.7197,-3.8114,-3.863,-3.8981,-3.932,-3.9559,-3.9697,-3.9697,-3.9697,-3.9772,-3.9986,-4.0488,-4.0915,-4.1116,-4.163,-4.1957,-4.1957,-4.1957,-4.1957,-4.1957,-4.1957,-4.1957,-4.1957,-4.1756,-4.148,-4.1141,-4.0555,-4.0075,-3.9725,-3.9461,-3.9102,-3.8736,-3.8631,-3.7974,-3.7042,-3.7042,-3.6545,-3.5772,-3.5772,-3.5772,-3.5717,-3.5278,-3.4781,-3.4391,-3.4391,-3.3955,-3.3346,0.0,0.0,0.0,0.0,0.0,0.0,0.0,0.0,0.0,0.0,0.0,0.0,0.0,0.0,0.0,0.0,0.0,0.0,-2.3331,-2.3818,-2.4528,-2.5453,-2.4945,-2.493,-2.5532,-2.5585,-2.5286,-2.4592,-2.5592,-2.6722,-2.7909,-2.727,-2.7707,-2.8961,-2.8922,-2.9248,-2.9792,-2.9792,-2.9792,-2.9792,-2.9792,-2.9792,0.0,0.0,0.0,0.0,0.0,0.0,0.0,0.0,-3.1901,-3.2315,-3.2893,-3.3124,-3.3124,-3.3124,-3.3124,-3.3124,-3.3124,-3.3206,-3.3432,-3.3809,-3.4449,-3.4944,-3.4944,-3.5495,-3.6169,-3.6593,-3.7211,-3.8001,-3.8781,-3.9057,-3.9258,-3.9634,-3.9697,-3.9697,-3.9697,-3.9697,-3.9697,-3.9697,-4.0174,-4.0513,-4.0513,-4.0962,-4.1288,-4.1288,-4.1288,-4.1288,-4.1288,-4.1288,-4.1288,-4.1288,-4.1112,-4.0837,-4.0355,-4.0009,-3.9578,-3.8998,-3.8998,-3.8788,-3.8356,-3.7921,-3.7162,-3.6177,-3.5795,-3.5168,-3.4391,-3.4391,-3.4168,-3.3843,-3.3843,-3.3618,-3.3279,-3.3279,-3.2789,-3.2123,0.0,0.0,0.0,0.0,0.0,0.0,0.0,0.0,0.0,0.0,0.0,0.0,0.0,0.0,0.0,0.0,0.0,0.0,-2.4108,-2.412,-2.4445,-2.5276,-2.4814,-2.4735,-2.5185,-2.5341,-2.5716,-2.6325,-2.6817,-2.6648,-2.5861,-2.7637,-2.8011,-2.7191,-2.9,-2.9792,-2.9792,-2.9792,-2.9792,-2.9792,-2.9792,-2.9792,-2.9792,0.0,0.0,0.0,0.0,0.0,0.0,0.0,-3.2215,-3.2328,-3.2893,-3.3124,-3.3124,-3.3124,-3.3124,-3.3124,-3.3124,-3.3483,-3.3897,-3.3909,-3.4726,-3.5495,-3.5508,-3.6395,-3.7186,-3.7199,-3.809,-3.8919,-3.8932,-3.932,-3.9697,-3.9697,-3.9697,-3.9697,-3.9697,-3.9697,-3.9697,-3.9697,-4.0174,-4.0513,-4.0513,-4.0949,-4.1263,-4.1263,-4.1263,-4.1263,-4.1263,-4.1263,-4.1263,-4.1263,-4.0802,-4.0342,-4.0065,-3.9531,-3.8998,-3.8356,-3.8356,-3.8356,-3.8303,-3.6893,-3.6177,-3.6122,-3.4891,-3.4391,-3.4391,-3.4391,-3.3674,-3.2685,-3.2685,-3.196,-3.0889,-3.0889,-3.0889,-3.0889,0.0,0.0,0.0,0.0,0.0,0.0,0.0,0.0,0.0,0.0,0.0,0.0,0.0,0.0,0.0,0.0,0.0,0.0,-2.4108,-2.4636,-2.4862,-2.4731,-2.5457,-2.5666,-2.5352,-2.616,-2.6691,-2.684,-2.6416,-2.6689,-2.7678,-2.6935,-2.7476,-2.9013,-2.8922,-2.9209,-2.9792,-2.9792,-2.9792,-2.9792,-2.9792,-2.9792,-2.9829,0.0,0.0,0.0,0.0,0.0,0.0,0.0,0.0,0.0,-3.3018,-3.3124,-3.3124,-3.3124,-3.3124,-3.3124,-3.3124,-3.3483,-3.3985,-3.4387,-3.4969,-3.5696,-3.6521,-3.6948,-3.7412,-3.8253,-3.868,-3.9045,-3.9383,-3.9584,-3.9697,-3.9697,-3.9697,-3.9697,-3.9697,-3.9697,-3.9697,-3.9697,-3.9835,-3.9936,-3.9936,-4.0086,-4.0174,-4.0174,-4.0174,-4.0174,-4.0174,-4.0174,-4.007,-3.9912,-3.975,-3.9506,-3.9192,-3.8862,-3.812,-3.7126,-3.6935,-3.6839,-3.6839,-3.6394,-3.5289,-3.3741,-3.3346,-3.2732,-3.195,-3.195,-3.173,-3.145,-3.145,-3.1228,-3.0889,-3.0889,-3.0889,-3.0889,0.0,0.0,0.0,0.0,0.0,0.0,0.0,0.0,0.0,0.0,0.0,0.0,0.0,0.0,0.0,0.0,0.0,0.0,0.0,-2.5052,-2.5254,-2.5145,-2.5635,-2.5847,-2.5699,-2.6143,-2.6412,-2.6565,-2.64,-2.6535,-2.6905,-2.6483,-2.6976,-2.8211,-2.8011,-2.8422,-2.9287,-2.9287,-2.9495,-2.9817,-3.003,-3.0118,-3.0181,0.0,0.0,0.0,0.0,0.0,0.0,0.0,0.0,0.0,-3.3124,-3.3124,-3.3124,-3.3124,-3.3124,-3.3124,-3.3124,-3.3633,-3.4311,-3.4638,-3.5303,-3.6157,-3.7262,-3.7688,-3.8115,-3.9019,-3.9195,-3.9295,-3.9634,-3.9697,-3.9697,-3.9697,-3.9697,-3.9697,-3.9697,-3.9697,-3.9697,-3.9697,-3.9697,-3.9697,-3.9697,-3.9697,-3.9697,-3.9697,-3.9697,-3.9697,-3.9697,-3.9697,-3.9581,-3.931,-3.931,-3.8881,-3.795,-3.7791,-3.7019,-3.5695,-3.5553,-3.5234,-3.4792,-3.4792,-3.4022,-3.2685,-3.218,-3.1566,-3.0889,-3.0889,-3.0889,-3.0889,-3.0889,-3.0889,-3.0889,-3.0889,-3.0889,-3.0889,0.0,0.0,0.0,0.0,0.0,0.0,0.0,0.0,0.0,0.0,0.0,0.0,0.0,0.0,0.0,0.0,0.0,0.0,0.0,0.0,-2.5577,-2.6068,-2.555,-2.5536,-2.6183,-2.5539,-2.5348,-2.5663,-2.6453,-2.6091,-2.4658,-2.6174,-2.6524,-2.5944,-2.673,-2.7597,-2.8502,-2.8502,-2.9025,-2.9917,-3.0328,-3.0553,-3.0746,-3.1273,0.0,0.0,0.0,0.0,0.0,0.0,0.0,0.0,-3.3124,-3.3124,-3.3124,-3.3124,-3.3124,-3.3124,-3.3124,-3.3884,-3.468,-3.468,-3.5629,-3.682,-3.7776,-3.8492,-3.9082,-3.9584,-3.9697,-3.9697,-3.9697,-3.9697,-3.9697,-3.9697,-3.9697,-3.9697,-3.9697,-3.9697,-3.9697,-3.9697,-3.9697,-3.9697,-3.9697,-3.9697,-3.9697,-3.9697,-3.9697,-3.9697,-3.9697,-3.9697,-3.953,-3.9258,-3.9102,-3.8267,-3.6565,-3.6457,-3.5695,-3.4224,-3.4224,-3.3618,-3.2524,-3.2628,-3.2628,-3.2457,-3.1392,-3.0889,-3.0889,-3.0889,-3.0889,-3.0889,-3.0889,-3.0889,-3.0889,-3.0889,-3.0889,-3.0889,0.0,0.0,0.0,0.0,0.0,0.0,0.0,0.0,0.0,0.0,0.0,0.0,0.0,0.0,0.0,0.0,0.0,0.0,0.0,0.0,-2.5946,-2.6019,-2.5787,-2.5841,-2.6184,-2.5703,-2.5137,-2.4529,-2.4903,-2.5232,-2.5505,-2.5179,-2.5684,-2.6823,-2.7028,-2.7597,-2.8502,-2.8502,-2.9245,-3.0365,-2.98,-3.0257,-3.1286,-3.1825,-3.2039,0.0,0.0,0.0,0.0,0.0,0.0,0.0,-3.3124,-3.3124,-3.3124,-3.3124,-3.3124,-3.3124,-3.3124,-3.3884,-3.468,-3.468,-3.6194,-3.7713,-3.7952,-3.8793,-3.9546,-3.9672,-3.9697,-3.9697,-3.9697,-3.9697,-3.9697,-3.9697,-3.9697,-3.9697,-3.9697,-3.9697,-3.9697,-3.9697,-3.9697,-3.9697,-3.9697,-3.9697,-3.9697,-3.9697,-3.9697,-3.9697,-3.9697,-3.9478,-3.9258,-3.8893,-3.7779,-3.69,-3.6274,-3.5333,-3.428,-3.3073,-3.3073,-3.2457,-3.1344,-3.2295,-3.218,-3.1286,-3.1005,-3.0889,-3.0889,-3.0889,-3.0889,-3.0889,-3.0889,-3.0889,-3.0889,-3.0889,-3.0889,-3.0889,0.0,0.0,0.0,0.0,0.0,0.0,0.0,0.0,0.0,0.0,0.0,0.0,0.0,0.0,0.0,0.0,0.0,0.0,0.0,0.0,-2.6581,-2.6801,-2.6166,-2.5939,-2.6185,-2.5126,-2.4423,-2.4206,-2.4196,-2.4519,-2.5179,-2.5147,-2.5589,-2.6442,-2.6049,-2.6577,-2.7862,-2.8121,-2.8922,-3.0019,-3.0524,-3.1141,-3.1851,-3.2403,-3.2629,-3.2667,-3.3011,0.0,0.0,0.0,0.0,0.0,0.0,0.0,-3.3124,-3.3124,-3.3124,-3.3124,-3.3124,-3.3884,-3.4851,-3.5378,-3.6772,-3.8002,-3.8002,-3.8881,-3.9697,-3.9697,-3.9697,-3.9697,-3.9697,-3.9697,-3.9697,-3.9697,-3.9697,-3.9697,-3.9697,-3.9697,-3.9697,-3.9697,-3.9697,-3.9697,-3.9697,-3.9697,-3.9697,-3.9697,-3.9697,-3.9633,-3.953,-3.9374,-3.8816,-3.7779,-3.7007,-3.5913,-3.4514,-3.3899,-3.3016,-3.1845,-3.1845,-3.1508,-3.0889,-3.1566,-3.1508,-3.0889,-3.0889,-3.0889,-3.0889,-3.0889,-3.0889,-3.0889,-3.0889,-3.0889,-3.0889,-3.0889,-3.0889,-3.0889,0.0,0.0,0.0,0.0,0.0,0.0,0.0,0.0,0.0,0.0,0.0,0.0,0.0,0.0,0.0,0.0,0.0,0.0,0.0,0.0,0.0,-2.7591,-2.6608,-2.6008,-2.5977,-2.4509,-2.3851,-2.411,-2.398,-2.4057,-2.4454,-2.5179,-2.5537,-2.5537,-2.4978,-2.5686,-2.727,-2.7789,-2.8692,-2.9934,-3.1368,-3.2139,-3.2416,-3.2893,-3.3124,-3.3124,-3.3124,-3.3124,-3.3124,-3.3124,0.0,0.0,0.0,0.0,-3.3124,-3.3124,-3.3124,-3.3124,-3.3124,-3.3884,-3.4989,-3.6128,-3.7199,-3.8002,-3.8002,-3.8881,-3.9697,-3.9697,-3.9697,-3.9697,-3.9697,-3.9697,-3.9697,-3.9697,-3.9697,-3.9697,-3.9697,-3.9697,-3.9697,-3.9697,-3.9697,-3.9697,-3.9697,-3.9697,-3.9697,-3.9697,-3.9645,-3.953,-3.931,-3.8985,-3.8161,-3.6673,-3.6174,-3.4869,-3.2742,-3.2457,-3.1903,-3.0889,-3.0889,-3.0889,-3.0889,-3.0889,-3.0889,-3.0889,-3.0889,-3.0889,-3.0889,-3.0889,-3.0889,-3.0889,-3.0889,-3.0889,-3.0889,-3.0889,-3.0889,-3.0889,0.0,0.0,0.0,0.0,0.0,0.0,0.0,0.0,0.0,0.0,0.0,0.0,0.0,0.0,0.0,0.0,0.0,0.0,-2.7234,0.0,0.0,-2.7285,-2.7098,-2.6381,-2.4999,-2.4754,-2.438,-2.3841,-2.4067,-2.4163,-2.4249,-2.4368,-2.4497,-2.47,-2.5337,-2.649,-2.7881,-2.7992,-2.9493,-3.1751,-3.1284,-3.1853,-3.2968,-3.3056,-3.3124,-3.3124,-3.3124,-3.3124,-3.3124,-3.3124,-3.3124,0.0,0.0,0.0,-3.3124,-3.3124,-3.3124,-3.3124,-3.3124,-3.3884,-3.4989,-3.6128,-3.7199,-3.8002,-3.8002,-3.8881,-3.9697,-3.9697,-3.9697,-3.9697,-3.9697,-3.9697,-3.9697,-3.9697,-3.9697,-3.9697,-3.9697,-3.9697,-3.9697,-3.9697,-3.9697,-3.9697,-3.9697,-3.9697,-3.9697,-3.9697,-3.9478,-3.9322,-3.931,-3.7832,-3.6834,-3.6619,-3.438,-3.3073,-3.2685,-3.1672,-3.1054,-3.0889,-3.0889,-3.0889,-3.0889,-3.0889,-3.0889,-3.0889,-3.0889,-3.0889,-3.0889,-3.0889,-3.0889,-3.0889,-3.0889,-3.0889,-3.0889,-3.0889,-3.0889,-3.0889,0.0,0.0,0.0,0.0,0.0,0.0,0.0,0.0,0.0,0.0,0.0,0.0,0.0,0.0,0.0,-2.4498,-2.5873,-2.7159,-2.8086,-2.7928,-2.7805,-2.7926,-2.6958,-2.608,-2.5368,-2.4872,-2.4284,-2.3624,-2.358,-2.3807,-2.4206,-2.4067,-2.4433,-2.5274,-2.5998,-2.6959,-2.8061,-2.8602,-2.9874,-3.1455,-3.1329,-3.1683,-3.2307,-3.2896,-3.2754,-3.2351,-3.2896,-3.3124,-3.3124,-3.3124,-3.3124,-3.3124,-3.3124,0.0,0.0,0.0,-3.3124,-3.3206,-3.3834,-3.4349,-3.4989,-3.6128,-3.696,-3.7626,-3.7939,-3.8642,-3.932,-3.9634,-3.9697,-3.9697,-3.9697,-3.9697,-3.9697,-3.9697,-3.9697,-3.9697,-3.9697,-3.9697,-3.9697,-3.9697,-3.9697,-3.9697,-3.9697,-3.9697,-3.9645,-3.9478,-3.8752,-3.8149,-3.7832,-3.6457,-3.5256,-3.4436,-3.3289,-3.2352,-3.1682,-3.117,-3.0889,-3.0889,-3.0889,-3.0889,-3.0889,-3.0889,-3.0889,-3.0889,-3.0889,-3.0889,-3.0889,-3.0889,-3.0889,-3.0889,-3.0889,-3.0889,-3.0889,-3.0889,-3.0889,-3.0928,0.0,0.0,0.0,0.0,0.0,0.0,0.0,0.0,0.0,0.0,0.0,0.0,0.0,0.0,0.0,0.0,-2.6324,-2.7842,-2.8447,-2.7886,-2.7725,-2.8139,-2.6876,-2.5955,-2.5495,-2.4829,-2.4122,-2.3406,-2.3276,-2.3493,-2.411,-2.398,-2.4538,-2.5668,-2.612,-2.6896,-2.7918,-2.9045,-3.0097,-3.1115,-3.1468,-3.1581,-3.1669,-3.2438,-3.2264,-3.1713,-3.2754,-3.3124,-3.3124,-3.3124,-3.3124,-3.3124,-3.3124,-3.3124,0.0,0.0,0.0,-3.3282,-3.4248,-3.4613,-3.4951,-3.5906,-3.6671,-3.7287,-3.7701,-3.8354,-3.8981,-3.9396,-3.9597,-3.9697,-3.9697,-3.9697,-3.9697,-3.9697,-3.9697,-3.9697,-3.9697,-3.9697,-3.9697,-3.9697,-3.9697,-3.953,-3.9193,-3.9129,-3.8921,-3.8319,-3.737,-3.6661,-3.6185,-3.5035,-3.3832,-3.2742,-3.241,-3.1787,-3.0889,-3.0889,-3.0889,-3.0889,-3.0889,-3.0889,-3.0889,-3.0889,-3.0889,-3.0889,-3.0889,-3.0889,-3.0889,-3.0889,-3.0889,-3.0889,-3.0889,-3.0889,-3.0898,-3.1006,-3.1055,-3.1113,0.0,0.0,0.0,0.0,0.0,0.0,0.0,0.0,0.0,0.0,0.0,0.0,-2.6536,-2.6523,-2.6669,-2.7397,-2.7305,-2.7609,-2.8431,-2.8471,-2.8099,-2.7307,-2.7185,0.0,-2.4627,-2.4531,-2.4026,-2.3135,-2.3363,-2.358,-2.3841,-2.4067,-2.4561,-2.5236,-2.5257,-2.607,-2.7514,-2.8919,-3.0308,-3.1589,-3.1569,-3.1581,-3.1625,-3.1669,-3.1625,-3.1713,-3.2754,-3.3124,-3.3124,-3.3124,-3.3124,-3.3124,-3.3124,-3.3124,-3.3124,0.0,0.0,0.0,-3.3784,-3.4324,-3.4818,-3.5395,-3.6395,-3.7199,-3.7224,-3.8078,-3.8932,-3.8957,-3.9333,-3.9697,-3.9697,-3.9697,-3.9697,-3.9697,-3.9697,-3.9697,-3.9697,-3.9697,-3.9697,-3.9697,-3.9697,-3.9129,-3.7743,-3.7624,-3.7037,-3.5617,-3.5189,-3.5024,-3.4969,-3.3618,-3.2799,-3.2685,-3.1566,-3.0947,-3.0889,-3.0889,-3.0889,-3.0889,-3.0889,-3.0889,-3.0889,-3.0889,-3.0889,-3.0889,-3.0889,-3.0889,-3.0889,-3.0889,-3.0889,-3.0889,-3.0889,-3.0889,-3.0937,-3.1338,-3.1484,-3.1553,0.0,0.0,0.0,0.0,0.0,0.0,0.0,0.0,0.0,0.0,0.0,0.0,0.0,-2.6771,-2.7031,-2.7364,-2.778,-2.8179,-2.8471,-2.7966,-2.7765,-2.8007,-2.6917,-2.5997,-2.5368,-2.4787,-2.4036,-2.3091,-2.3188,-2.345,-2.3807,-2.423,-2.4673,-2.5244,-2.6123,-2.7371,-2.8743,-2.8925,-3.0009,-3.1492,-3.0215,-3.0125,-3.0756,-3.1347,-3.1214,-3.0902,-3.2525,-3.2711,-3.2264,-3.2896,-3.3124,-3.3124,-3.3124,-3.3124,-3.3124,-3.3124,-3.3124,-3.3206,-3.3746,-3.4299,-3.4806,-3.5357,-3.6107,-3.6795,-3.7098,-3.7764,-3.8417,-3.8844,-3.9308,-3.9697,-3.9697,-3.9697,-3.9697,-3.9697,-3.9697,-3.9697,-3.9697,-3.9697,-3.9697,-3.9697,-3.8856,-3.8072,-3.7571,-3.6649,-3.5781,-3.5079,-3.4247,-3.3642,-3.3505,-3.2227,-3.1566,-3.1566,-3.1122,-3.0889,-3.0889,-3.0889,-3.0889,-3.0889,-3.0889,-3.0889,-3.0889,-3.0889,-3.0889,-3.0889,-3.0889,-3.0889,-3.0889,-3.0889,-3.0889,-3.0889,-3.0889,-3.0889,-3.0947,-3.1367,-3.1514,-3.1611,0.0,0.0,0.0,0.0,0.0,0.0,0.0,0.0,0.0,-2.6034,0.0,0.0,0.0,0.0,-2.7644,-2.7644,-2.8179,-2.851,-2.851,-2.7978,-2.7886,-2.8471,-2.6794,-2.5777,-2.5777,-2.4659,-2.3734,-2.3091,-2.3091,-2.3353,-2.3807,-2.4293,-2.4818,-2.5471,-2.656,-2.7597,-2.8555,-2.8644,-2.9452,-3.0498,-2.9222,-2.9084,-2.9761,-3.0396,-3.0441,-3.0351,-3.1669,-3.1901,-3.1669,-3.2033,-3.2351,-3.2581,-3.2581,-3.2853,-3.3124,-3.3124,-3.3124,-3.3156,-3.352,-3.4022,-3.4575,-3.5094,-3.568,-3.6232,-3.6784,-3.7337,-3.7889,-3.8467,-3.9032,-3.9471,-3.9659,-3.9697,-3.9697,-3.9697,-3.9697,-3.9697,-3.9697,-3.9697,-3.953,-3.9141,-3.8137,-3.7133,-3.6248,-3.5167,-3.4303,-3.3596,-3.2815,-3.2264,-3.2123,-3.1344,-3.0889,-3.0889,-3.0889,-3.0889,-3.0889,-3.0889,-3.0889,-3.0889,-3.0889,-3.0889,-3.0889,-3.0889,-3.0889,-3.0889,-3.0889,-3.0889,-3.0889,-3.0889,-3.0889,-3.0889,-3.0889,-3.0889,-3.0957,-3.1533,-3.1738,-3.1855,0.0,0.0,0.0,0.0,0.0,0.0,0.0,0.0,-2.4688,-2.6953,0.0,0.0,0.0,0.0,0.0,-2.851,-2.851,-2.851,-2.851,-2.851,-2.851,-2.851,-2.6782,-2.5819,-2.5819,-2.4069,-2.3135,-2.3135,-2.3091,-2.3363,-2.3827,-2.4323,-2.5025,-2.5962,-2.6474,-2.6682,-2.6795,-2.8111,-2.8678,-2.8678,-2.8678,-2.8678,-2.8678,-2.8678,-2.9314,-3.0193,-3.0193,-3.0791,-3.1395,-3.0521,-3.0824,-3.1605,-3.1637,-3.2307,-3.3081,-3.3081,-3.3124,-3.3106,0.0,0.0,0.0,-3.4568,-3.5119,-3.5658,-3.6292,-3.6784,-3.7337,-3.7877,-3.8442,-3.9019,-3.9572,-3.9672,-3.9672,-3.9697,-3.9697,-3.9697,-3.9697,-3.9697,-3.9193,-3.8056,-3.7595,-3.6368,-3.3722,-3.3237,-3.2426,-3.1005,-3.0889,-3.0889,-3.0889,-3.0889,-3.0889,-3.0889,-3.0889,-3.0889,-3.0889,-3.0889,-3.0889,-3.0889,-3.0889,-3.0889,-3.0889,-3.0889,-3.0889,-3.0889,-3.0889,-3.0889,-3.0889,-3.0889,-3.0889,-3.0889,-3.0889,-3.0889,-3.0996,-3.1855,-3.2229,-3.2285,0.0,0.0,0.0,0.0,0.0,0.0,-2.5227,-2.584,-2.6728,0.0,0.0,0.0,-2.8379,-2.851,-2.851,-2.851,-2.851,-2.851,-2.851,-2.851,-2.851,-2.851,-2.7429,-2.6794,-2.6794,-2.5041,-2.4112,-2.4112,-2.344,-2.3521,-2.4333,-2.4786,-2.5892,-2.7457,-2.7896,-2.8517,-2.9159,-2.8111,-2.8081,-2.8631,-2.7951,-2.8081,-2.8678,-2.8678,-2.9072,-2.9709,-3.0386,-3.0578,-3.0519,-3.0592,-3.1306,-3.2187,-3.2561,-3.2394,-3.2164,-3.2896,-3.3357,-3.3671,-3.3671,0.0,0.0,0.0,0.0,0.0,-3.6367,-3.6784,-3.7224,-3.7374,-3.7852,-3.8417,-3.8994,-3.9094,-3.9233,-3.9634,-3.9697,-3.9697,-3.9697,-3.8933,-3.8267,-3.795,-3.5945,-3.4337,-3.3564,-3.2311,-3.1325,-3.0947,-3.0889,-3.0889,-3.0889,-3.0889,-3.0889,-3.0889,-3.0889,-3.0889,-3.0889,-3.0889,-3.0889,-3.0889,-3.0889,-3.0889,-3.0889,-3.0889,-3.0889,-3.0889,-3.0889,-3.0889,-3.0889,-3.0889,-3.0889,-3.0889,-3.0889,-3.0889,-3.0996,-3.1855,-3.2229,-3.2285,0.0,0.0,0.0,0.0,0.0,-2.637,-2.637,-2.6846,-2.751,0.0,0.0,0.0,-2.8391,-2.851,-2.851,-2.851,-2.851,-2.851,-2.851,-2.851,-2.851,-2.851,-2.7684,-2.701,-2.6629,-2.5253,-2.4592,-2.4821,-2.3971,-2.4412,-2.5992,-2.572,-2.6483,-2.8014,-2.81,-2.8445,-2.8945,-2.8222,-2.8222,-2.8631,-2.7678,-2.7631,-2.8149,-2.8295,-2.8778,-2.943,-2.9748,-2.9963,-3.0084,-2.9913,-3.053,-3.1483,-3.2189,-3.2048,-3.1764,-3.278,-3.3325,0.0,0.0,0.0,-3.5115,-3.491,0.0,0.0,-3.6355,-3.6656,-3.6958,-3.7136,-3.7437,-3.7839,-3.8404,-3.8504,-3.8693,-3.9258,-3.8922,-3.8662,-3.8896,-3.7938,-3.7019,-3.6534,-3.4736,-3.3293,-3.2871,-3.1662,-3.0889,-3.0889,-3.0889,-3.0889,-3.0889,-3.0889,-3.0889,-3.0889,-3.0889,-3.0889,-3.0889,-3.0889,-3.0889,-3.0889,-3.0889,-3.0889,-3.0889,-3.0889,-3.0889,-3.0889,-3.0889,-3.0889,-3.0889,-3.0889,-3.0889,-3.0889,-3.0889,-3.0889,-3.0996,-3.1855,-3.2229,-3.2285,0.0,0.0,-2.6205,-2.7051,-2.7185,-2.7185,-2.7185,-2.7267,-2.7644,0.0,-2.7846,-2.7644,-2.8431,-2.851,-2.851,-2.851,-2.851,-2.851,-2.851,-2.851,-2.851,-2.851,-2.7765,-2.6958,-2.6121,-2.5295,-2.5145,-2.5642,-2.489,-2.5792,-2.8215,-2.7006,-2.7112,-2.8227,-2.7806,-2.7678,-2.7809,-2.8456,-2.8771,-2.8771,-2.7857,-2.7425,-2.7423,-2.7769,-2.8511,-2.9337,-2.8833,-2.931,-2.9936,-2.915,-2.9335,-3.0128,-3.1148,-3.1435,-3.1567,-3.2605,-3.298,0.0,0.0,0.0,0.0,-3.4017,-3.4564,0.0,-3.5901,-3.6061,-3.6198,-3.6635,-3.6747,-3.6909,-3.7456,-3.7556,-3.7742,-3.8365,-3.7445,-3.6951,-3.7748,-3.6792,-3.5597,-3.458,-3.3765,-3.2918,-3.1845,-3.1228,-3.0889,-3.0889,-3.0889,-3.0889,-3.0889,-3.0889,-3.0889,-3.0889,-3.0889,-3.0889,-3.0889,-3.0889,-3.0889,-3.0889,-3.0889,-3.0889,-3.0889,-3.0889,-3.0889,-3.0889,-3.0889,-3.0889,-3.0889,-3.0889,-3.0889,-3.0889,-3.0889,-3.0889,-3.0996,-3.1855,-3.2229,-3.2285,0.0,-2.7051,-2.6969,-2.7185,-2.7185,-2.7185,-2.7185,-2.7805,-2.8299,-2.8471,-2.8339,-2.8299,-2.8471,-2.851,-2.851,-2.851,-2.851,-2.851,-2.851,-2.851,-2.851,-2.851,-2.8339,-2.8179,-2.7966,-2.7534,-2.7439,-2.7718,-2.7096,-2.7525,-2.892,-2.85,-2.8813,-2.975,-2.967,-3.0034,-3.0678,-2.9314,-2.9176,-2.9806,-2.8806,-2.8163,-2.78,-2.7893,-2.8489,-2.9295,-2.9186,-2.9507,-3.0076,-3.0274,-2.9689,-2.9194,-3.0945,-3.0967,-3.0544,-3.1531,-3.2152,-3.2536,-3.2536,-3.2982,-3.3478,-3.3375,-3.3496,0.0,-3.3822,-3.3845,-3.3869,-3.3974,-3.3997,-3.415,-3.4664,-3.4758,-3.4973,-3.5517,-3.4621,-3.4846,-3.7541,-3.6154,-3.4636,-3.419,-3.2949,-3.195,-3.1441,-3.1112,-3.0889,-3.0889,-3.0889,-3.0889,-3.0889,-3.0889,-3.0889,-3.0889,-3.0889,-3.0889,-3.0889,-3.0889,-3.0889,-3.0889,-3.0889,-3.0889,-3.0889,-3.0889,-3.0889,-3.0889,-3.0889,-3.0889,-3.0889,-3.0889,-3.0889,-3.0889,-3.0889,-3.0889,-3.0996,-3.1855,-3.2229,-3.2285,-2.7103,-2.7185,-2.7348,-2.7765,-2.7846,-2.7846,-2.7846,-2.8219,-2.851,-2.851,-2.8578,-2.8618,-2.851,-2.8578,-2.8618,-2.851,-2.851,-2.851,-2.851,-2.851,-2.8631,-2.8895,-2.8907,-2.8812,-2.8651,-2.8468,-2.853,-2.8912,-2.8252,-2.8889,-3.0722,-2.9263,-2.9171,-3.017,-2.9165,-2.9268,-3.0079,-2.913,-2.9135,-2.9728,-2.8707,-2.8141,-2.7976,-2.8442,-2.8897,-2.9332,-2.957,-2.9798,-3.0057,-3.0324,-2.9887,-2.9444,-3.0425,-3.0436,-3.0245,-3.1252,-3.1766,-3.2028,-3.2028,-3.2608,-3.3051,-3.2549,-3.2789,0.0,0.0,-3.3201,-3.3201,-3.3201,-3.3201,-3.3281,-3.3534,-3.3579,-3.3791,-3.4325,-3.3328,-3.3109,-3.5028,-3.412,-3.3197,-3.3018,-3.2276,-3.173,-3.1556,-3.117,-3.0889,-3.0889,-3.0889,-3.0889,-3.0889,-3.0889,-3.0889,-3.0889,-3.0889,-3.0889,-3.0889,-3.0889,-3.0889,-3.0889,-3.0889,-3.0889,-3.0889,-3.0889,-3.0889,-3.0889,-3.0889,-3.0889,-3.0889,-3.0889,-3.0889,-3.0889,-3.0889,-3.0889,-3.0996,-3.1855,-3.2229,-3.2285,-2.7377,-2.751,-2.7713,-2.8419,-2.859,-2.859,-2.851,-2.855,-2.863,-2.863,-2.8776,-2.8803,-2.863,-2.8776,-2.8803,-2.863,-2.8459,-2.8455,-2.8695,-2.8534,-2.8774,-2.9465,-2.9489,-2.935,-2.9106,-2.9114,-2.9401,-2.9896,-2.9338,-3.0225,-3.2475,-3.0216,-2.9566,-3.0125,-2.876,-2.8445,-2.9002,-2.8869,-2.9179,-2.9599,-2.8589,-2.8183,-2.8266,-2.9021,-2.9363,-2.9487,-2.986,-2.9994,-2.9994,-2.9994,-2.9994,-2.9994,-2.9994,-2.9994,-3.0193,-3.1032,-3.1278,-3.1278,-3.1278,-3.1942,-3.2398,-3.1534,-3.1942,-3.26,0.0,0.0,0.0,-3.26,-3.26,-3.26,-3.26,-3.26,-3.2701,-3.2943,-3.2151,-3.1539,-3.1838,-3.173,-3.1639,-3.162,-3.1495,-3.1451,-3.1474,-3.1121,-3.0889,-3.0889,-3.0889,-3.0889,-3.0889,-3.0889,-3.0889,-3.0889,-3.0889,-3.0889,-3.0889,-3.0889,-3.0889,-3.0889,-3.0889,-3.0889,-3.0889,-3.0889,-3.0889,-3.0889,-3.0889,-3.0889,-3.0889,-3.0889,-3.0889,-3.0889,-3.0889,-3.0889,-3.0996,-3.1855,-3.2229,-3.2285,-2.8633,-2.8633,-2.8633,-2.8764,-2.8934,-2.8895,-2.855,-2.8776,-2.9013,-2.9013,-2.9052,-2.9052,-2.9013,-2.9052,-2.9052,-2.9013,-2.8315,-2.8333,-2.9391,-2.8775,-2.8917,-3.0204,-3.0115,-3.0055,-3.0217,-3.0488,-3.0893,-3.1363,-3.1336,-3.1909,-3.2995,-3.2288,-3.1327,-3.0215,-3.0857,-3.0722,-3.0023,-2.9501,-2.9853,-3.0565,-2.9544,-2.9145,-2.9156,-2.927,-2.9559,-2.9922,-2.9973,-2.9994,-2.9994,-2.9994,-2.9994,-2.9994,-2.9994,-2.9994,-3.0047,-3.0141,-3.0193,-3.0193,-3.0193,-3.0297,-3.0349,-3.0193,-3.0297,-3.0349,-3.0349,0.0,-3.0349,-3.0349,0.0,-3.0349,-3.0349,0.0,0.0,-2.959,-2.9891,-2.9932,-2.9114,-2.9786,-3.036,-3.0223,-3.0201,-3.0267,-3.0348,-3.0702,-3.0889,-3.0889,-3.0889,-3.0889,-3.0889,-3.0889,-3.0889,-3.0889,-3.0889,-3.0889,-3.0889,-3.0889,-3.0889,-3.0889,-3.0889,-3.0889,-3.0889,-3.0889,-3.0889,-3.0889,-3.0889,-3.0889,-3.0889,-3.0889,-3.0889,-3.0889,-3.0889,-3.0889,-3.0996,-3.1855,-3.2229,-3.2285,-2.9,-2.8882,-2.8843,-2.8961,-2.8961,-2.8934,-2.8855,-2.8973,-2.9091,-2.9091,-2.9197,-2.9359,-2.9585,-2.9729,-2.988,-3.0081,-2.9756,-2.9772,-3.0249,-2.9932,-3.0079,-3.0834,-3.0773,-3.0888,-3.116,-3.1303,-3.1511,-3.1827,-3.1872,-3.2201,-3.2853,-3.1504,-3.0913,-3.0946,-2.9681,-2.9818,-3.088,-2.9226,-2.9587,-3.1067,-2.9817,-2.9466,-2.9704,-2.9704,-2.9829,-2.9994,-2.9994,-2.9994,-2.9994,-2.9994,-2.9994,-2.9994,-2.9994,-2.9994,-2.9994,-2.9994,-2.9994,-2.9994,-2.9994,-2.9994,-2.9994,-2.9994,-2.9994,-2.9994,-2.9994,-2.9994,-2.9994,-2.9994,0.0,0.0,0.0,0.0,0.0,0.0,-2.9126,-2.9092,-2.869,-2.8917,-2.9305,-2.9809,-2.9933,-3.0027,-3.0213,-3.0371,-3.0605,-3.0869,-3.0889,-3.0889,-3.0889,-3.0889,-3.0889,-3.0889,-3.0889,-3.0889,-3.0889,-3.0889,-3.0889,-3.0889,-3.0889,-3.0889,-3.0889,-3.0889,-3.0889,-3.0889,-3.0889,-3.0889,-3.0889,-3.0889,-3.0889,-3.0889,-3.0889,-3.0889,-3.0996,-3.1855,-3.2229,-3.2285,-2.93,0.0,-2.8988,-2.9157,-2.9131,-2.9131,-2.926,-2.9248,-2.9258,-2.9497,-2.9628,-2.9918,-3.0329,-3.0499,-3.0689,-3.0939,-3.077,-3.0748,-3.1075,-3.0879,-3.0985,-3.1608,-3.1547,-3.1655,-3.1969,-3.1925,-3.1981,-3.2201,-3.2125,-3.2201,-3.2351,-3.1169,-3.0812,-3.1125,-2.9724,-2.9965,-3.1284,-2.9793,-2.9975,-3.1203,-2.9992,-2.9766,-3.018,-3.018,-3.0263,-3.0367,-3.0367,-3.0294,-3.018,-3.018,-3.0098,-2.9994,-2.9994,-2.9994,-2.9994,-2.9994,-2.9994,-2.9994,-2.9931,-2.9879,-2.9889,-2.9774,-2.9722,-2.9722,-2.9722,-2.9722,-2.9722,-2.9722,-2.9722,0.0,0.0,0.0,-2.9303,0.0,0.0,-2.8741,-2.8463,-2.8445,-2.8623,-2.9315,-2.958,-2.9744,-2.9814,-2.9951,-3.0215,-3.0664,-3.0703,-3.0752,-3.0889,-3.0889,-3.0889,-3.0889,-3.0889,-3.0889,-3.0889,-3.0889,-3.0889,-3.0889,-3.0889,-3.0889,-3.0889,-3.0889,-3.0889,-3.0889,-3.0889,-3.0889,-3.0889,-3.0889,-3.0889,-3.0889,-3.0889,-3.0889,-3.0996,-3.1855,-3.2229,-3.2285,-2.9792,-2.956,-2.938,-2.938,-2.9611,-2.9753,-2.9792,-2.956,-2.9669,-3.044,-3.0555,-3.0743,-3.1311,-3.1361,-3.1373,-3.1386,-3.0633,-3.0603,-3.1799,-3.1046,-3.1202,-3.2575,-3.2494,-3.2463,-3.2667,-3.2475,-3.2475,-3.268,-3.2475,-3.2113,-3.1669,-3.2307,-3.1757,-3.0329,-3.2658,-3.2608,-3.0893,-3.1865,-3.1712,-3.0787,-3.0233,-3.0253,-3.0667,-3.0667,-3.0946,-3.134,-3.134,-3.104,-3.0667,-3.0667,-3.0367,-2.9994,-2.9994,-2.9994,-2.9994,-2.9994,-2.9994,-2.9942,-2.9659,-2.9606,-2.9554,-2.9185,-2.9132,-2.9132,-2.9132,-2.9132,-2.9132,-2.9132,-2.9132,-2.9132,-2.9132,-2.9132,0.0,0.0,0.0,0.0,0.0,-2.8259,-2.8578,-2.8364,-2.8691,-2.8945,-2.8955,-2.9346,-2.9766,-3.0185,-3.0215,-3.042,-3.0869,-3.0889,-3.0889,-3.0889,-3.0889,-3.0889,-3.0889,-3.0889,-3.0889,-3.0889,-3.0889,-3.0889,-3.0889,-3.0889,-3.0889,-3.0889,-3.0889,-3.0889,-3.0889,-3.0889,-3.0889,-3.0889,-3.0889,-3.0889,-3.0996,-3.1855,-3.2229,-3.2285,-2.9792,-2.974,-2.965,-2.965,-2.9599,-2.9724,-3.0242,-3.024,-3.0428,-3.106,-3.1135,-3.1336,-3.1876,-3.1938,-3.2089,-3.2466,-3.2249,-3.2281,-3.2652,-3.2407,-3.2395,-3.2711,-3.2636,-3.255,-3.2519,-3.2431,-3.2519,-3.2711,-3.2636,-3.2593,-3.2581,-3.2176,-3.1817,-3.1567,-3.1136,-3.1064,-3.1208,-3.0592,-3.0525,-3.0791,-3.0548,-3.0729,-3.1143,-3.1143,-3.1236,-3.1381,-3.1381,-3.1278,-3.1143,-3.1143,-3.104,-3.0915,-3.0915,-3.0915,-3.0915,-3.0915,-3.0915,-3.0915,-3.0797,-3.057,-3.0226,-2.9886,-2.9609,-2.9396,-2.9132,-2.9079,-2.9079,-2.9079,-2.9079,-2.9026,-2.8877,-2.8834,0.0,0.0,0.0,0.0,0.0,-2.831,-2.8408,-2.8291,-2.8418,-2.8613,-2.8887,-2.9053,-2.9434,-3.0146,-3.0195,-3.04,-3.0869,-3.0889,-3.0889,-3.0889,-3.0889,-3.0889,-3.0889,-3.0889,-3.0889,-3.0889,-3.0889,-3.0889,-3.0889,-3.0889,-3.0889,-3.0889,-3.0889,-3.0889,-3.0889,-3.0889,-3.0889,-3.0889,-3.0889,-3.1064,-3.1377,-3.1953,-3.2229,-3.2285,-2.9792,-2.9792,-2.9792,-2.9792,-2.9813,-3.0074,-3.0768,-3.0884,-3.1085,-3.1612,-3.1687,-3.1964,-3.2729,-3.2805,-3.3043,-3.3608,-3.3658,-3.3658,-3.3658,-3.3483,-3.3326,-3.314,-3.2953,-3.2766,-3.2649,-3.2649,-3.2723,-3.2853,-3.2853,-3.2754,-3.2581,-3.2448,-3.2406,-3.2282,-3.14,-3.1317,-3.1743,-3.0579,-3.0383,-3.0771,-3.1049,-3.135,-3.1629,-3.1795,-3.1754,-3.164,-3.1795,-3.1754,-3.1609,-3.1609,-3.1505,-3.1381,-3.1381,-3.1381,-3.1381,-3.1381,-3.1381,-3.1371,-3.1251,-3.098,-3.0699,-3.0353,-3.0086,-2.9819,-2.9497,-2.9323,-2.915,-2.9043,-2.8923,-2.8771,-2.8568,-2.8568,0.0,0.0,0.0,0.0,0.0,-2.8291,-2.8291,-2.8291,-2.8291,-2.8398,-2.8672,-2.8701,-2.8984,-2.9687,-2.9883,-3.0166,-3.0625,-3.0801,-3.0889,-3.0889,-3.0889,-3.0889,-3.0889,-3.0889,-3.0889,-3.0889,-3.0889,-3.0889,-3.0889,-3.0889,-3.0889,-3.0889,-3.0889,-3.0889,-3.0889,-3.0889,-3.0889,-3.0889,-3.0889,-3.1152,-3.1572,-3.2012,-3.2353,-3.2695,-2.9829,-2.9854,-2.988,-2.9905,-3.0319,-3.0834,-3.1348,-3.1436,-3.1637,-3.2227,-3.229,-3.2717,-3.3822,-3.3935,-3.4148,-3.4675,-3.468,-3.468,-3.468,-3.4223,-3.3935,-3.3935,-3.342,-3.3162,-3.3162,-3.3093,-3.3124,-3.3124,-3.3124,-3.2636,-3.1761,-3.3194,0.0,0.0,-3.3478,-3.3325,-3.2279,-3.1766,-3.126,-3.0833,-3.1692,-3.1988,-3.2039,-3.2494,-3.239,-3.205,-3.2514,-3.239,-3.2019,-3.2019,-3.1795,-3.1443,-3.1443,-3.1443,-3.1443,-3.1443,-3.1443,-3.1378,-3.1072,-3.0997,-3.0876,-3.0611,-3.049,-3.0414,-3.0082,-2.9699,-2.9327,-2.9,-2.8633,-2.835,-2.833,-2.832,-2.831,0.0,0.0,0.0,0.0,-2.8291,-2.8291,-2.8291,-2.8291,-2.8291,-2.8291,-2.8291,-2.8467,-2.8887,-2.9316,-2.9756,-3.0176,-3.0635,-3.0889,-3.0889,-3.0889,-3.0889,-3.0889,-3.0889,-3.0889,-3.0889,-3.0889,-3.0889,-3.0889,-3.0889,-3.0889,-3.0889,-3.0889,-3.0889,-3.0889,-3.0889,-3.0889,-3.0889,-3.0918,-3.1191,-3.1631,-3.2051,-3.2715,-3.3418,-3.0407,-3.0721,-3.111,-3.1524,-3.1373,-3.1373,-3.1913,-3.2001,-3.2353,-3.3332,-3.347,-3.3734,-3.4437,-3.4512,-3.4562,-3.4713,-3.468,-3.468,-3.468,-3.4587,-3.4512,-3.4512,-3.3985,-3.3684,-3.3684,-3.3282,-3.3124,-3.3124,-3.3124,-3.3195,-3.3319,-3.369,0.0,0.0,-3.2667,-3.2009,-3.0647,-3.0811,-3.1226,-3.1712,-3.1895,-3.1988,-3.2039,-3.2494,-3.239,-3.205,-3.2514,-3.2597,-3.2494,-3.2494,-3.2478,-3.2385,-3.2385,-3.2385,-3.2385,-3.2385,-3.2385,-3.2328,-3.2262,-3.2004,-3.1579,-3.1065,-3.0711,-3.0359,-2.9793,-2.9594,-2.9515,-2.946,-2.9316,-2.9141,-2.8818,-2.876,-2.8662,0.0,0.0,0.0,0.0,-2.8291,-2.8291,-2.8291,-2.8291,-2.8291,-2.8291,-2.8291,-2.8467,-2.8887,-2.9316,-2.9756,-3.0176,-3.0635,-3.0889,-3.0889,-3.0889,-3.0889,-3.0889,-3.0889,-3.0889,-3.0889,-3.0889,-3.0889,-3.0889,-3.0889,-3.0889,-3.0889,-3.0889,-3.0889,-3.0889,-3.0889,-3.0889,-3.0918,-3.123,-3.1807,-3.248,-3.2598,-3.2969,-3.3418,-3.0947,-3.1386,-3.1851,-3.2152,-3.2164,-3.2227,-3.2541,-3.2792,-3.3181,-3.3822,-3.411,-3.4462,-3.4969,-3.5044,-3.5177,-3.5416,-3.5441,-3.5441,-3.5441,-3.5215,-3.5044,-3.5044,-3.455,-3.4261,-3.4261,-3.3721,-3.3432,-3.3432,-3.2983,-3.2911,-3.3219,0.0,0.0,0.0,-3.2868,-3.2364,-3.1709,-3.1419,-3.1567,-3.2008,-3.2204,-3.2287,0.0,-3.2576,-3.2514,-3.2318,-3.2633,-3.2669,-3.2669,-3.2669,-3.2669,-3.2669,-3.2669,-3.2669,-3.2669,-3.2669,-3.2669,-3.2669,-3.2669,-3.2483,-3.2231,-3.1881,-3.1517,-3.1156,-3.0648,-3.0329,-3.0023,-2.99,-2.9697,-2.9492,-2.9248,-2.9209,-2.9062,0.0,0.0,0.0,-2.8291,-2.8291,-2.8291,-2.8291,-2.8291,-2.8291,-2.8291,-2.8291,-2.8389,-2.8633,-2.9219,-2.9678,-2.9912,-3.0537,-3.0889,-3.0889,-3.0889,-3.0889,-3.0889,-3.0889,-3.0889,-3.0889,-3.0889,-3.0889,-3.0889,-3.0889,-3.0889,-3.0889,-3.0889,-3.0889,-3.0889,-3.0889,-3.0889,-3.0957,-3.1562,-3.2207,-3.2822,-3.2998,-3.3223,-3.3418,-3.1599,-3.2001,-3.2353,-3.2428,-3.2855,-3.3206,-3.3282,-3.3633,-3.3947,-3.4098,-3.4537,-3.4994,-3.5545,-3.5608,-3.5843,-3.6367,-3.6405,-3.6405,-3.6405,-3.5918,-3.5608,-3.5608,-3.519,-3.4901,-3.4826,-3.4215,-3.394,-3.401,-3.2946,-3.2517,-3.2692,0.0,0.0,-3.4066,-3.3646,-3.3522,-3.3708,-3.2466,-3.1967,-3.2112,-3.2514,-3.2669,-3.2669,-3.2669,-3.2669,-3.2669,-3.2669,-3.2669,-3.2669,-3.2669,-3.2669,-3.2669,-3.2669,-3.2669,-3.2669,-3.2669,-3.2669,-3.2669,-3.2669,-3.2669,-3.2669,-3.2612,-3.243,-3.219,-3.1797,-3.1219,-3.0712,-3.035,-3.0,-2.9726,-2.9658,-2.9665,-2.9443,-2.9062,-2.8652,-2.8369,-2.8369,-2.833,-2.8291,-2.8291,-2.8291,0.0,-2.8291,-2.8291,-2.8291,-2.8291,-2.9092,-2.9626,-2.9626,-3.041,-3.0889,-3.0889,-3.0889,-3.0889,-3.0889,-3.0889,-3.0889,-3.0889,-3.0889,-3.0889,-3.0889,-3.0889,-3.0889,-3.0889,-3.0889,-3.0889,-3.0889,-3.0889,-3.0957,-3.1143,-3.1943,-3.25,-3.292,-3.3281,-3.3418,-3.3418,-3.2679,-3.2898,-3.3068,-3.352,-3.3696,-3.3909,-3.4361,-3.4123,-3.4223,-3.5094,-3.5295,-3.5617,-3.6157,-3.6267,-3.6304,-3.6405,-3.6405,-3.6405,-3.6405,-3.6317,-3.6267,-3.6267,-3.6166,-3.5855,-3.537,-3.4446,-3.4176,-3.4575,-3.3482,-3.3655,-3.4931,-3.4966,-3.4864,-3.4643,-3.4533,-3.3997,-3.3003,-3.1938,-3.1919,-3.2556,-3.2638,-3.2669,-3.2669,-3.2669,-3.2669,-3.2669,-3.2669,-3.2669,-3.2669,-3.2669,-3.2669,-3.2669,-3.2669,-3.2669,-3.2669,-3.2669,-3.2669,-3.2669,-3.2669,-3.2669,-3.2555,-3.2086,-3.2143,-3.2086,-3.1228,-3.1101,-3.11,-3.083,-3.0713,-3.0537,-3.0156,-2.9805,-2.9541,-2.9473,-2.9092,-2.8809,-2.8809,-2.8506,-2.8291,-2.8291,-2.8291,-2.8291,-2.8291,-2.8291,-2.8291,-2.8291,-2.9092,-2.9626,-2.9626,-3.041,-3.0889,-3.0889,-3.0889,-3.0889,-3.0889,-3.0889,-3.0889,-3.0889,-3.0889,-3.0889,-3.0889,-3.0889,-3.0889,-3.0889,-3.0889,-3.0889,-3.0889,-3.0889,-3.1309,-3.1992,-3.249,-3.2939,-3.332,-3.3389,-3.3418,-3.3418,-3.3018,-3.3307,-3.3583,-3.3847,-3.4135,-3.4512,-3.5019,-3.4881,-3.4906,-3.5433,-3.5793,-3.6069,-3.638,-3.6405,-3.6405,-3.6405,-3.6405,-3.6405,-3.6405,-3.6405,-3.6405,-3.6405,-3.6681,-3.6659,-3.6395,-3.5895,-3.5623,-3.5579,-3.4491,-3.4242,-3.4725,-3.4426,-3.4302,-3.4316,-3.4221,-3.4196,-3.4086,-3.2662,-3.2333,-3.2669,-3.2669,-3.2669,-3.2669,-3.2669,-3.2669,-3.2669,-3.2669,-3.2669,-3.2669,-3.2669,-3.2669,-3.2669,-3.2669,-3.2669,-3.2669,-3.2669,-3.2669,-3.2669,-3.2669,-3.2669,-3.2612,-3.2201,-3.2076,-3.1913,-3.1276,-3.1112,-3.1054,-3.0947,-3.0889,-3.082,-3.0596,-3.0195,-2.9893,-2.9893,-2.9531,-2.9258,-2.9258,-2.9082,-2.8955,-2.8955,-2.875,-2.8613,-2.8613,-2.8613,-2.8525,-2.831,-2.9092,-2.9626,-2.9626,-3.041,-3.0889,-3.0889,-3.0889,-3.0889,-3.0889,-3.0889,-3.0889,-3.0889,-3.0889,-3.0889,-3.0889,-3.0889,-3.0889,-3.0889,-3.0889,-3.0889,-3.0908,-3.1123,-3.1719,-3.2519,-3.2715,-3.3057,-3.3418,-3.3418,-3.3418,-3.3418,-3.3432,-3.3771,-3.411,-3.4223,-3.4613,-3.5031,-3.5583,-3.5771,-3.5809,-3.5683,-3.6094,-3.6455,-3.6568,-3.6581,-3.6631,-3.6744,-3.6656,-3.6581,-3.6581,-3.6468,-3.6405,-3.6405,-3.6998,-3.7312,-3.7186,-3.7217,-3.7067,-3.6757,-3.5551,-3.4824,-3.4507,-3.4205,-3.419,-3.4358,-3.3717,-3.4051,-3.4928,-3.3239,-3.2587,-3.2669,-3.2669,-3.2669,-3.2669,-3.2669,-3.2669,-3.2669,-3.2669,-3.2669,-3.2669,-3.2669,-3.2669,-3.2669,-3.2669,-3.2669,-3.2669,-3.2669,-3.2669,-3.2669,-3.2669,-3.2669,-3.2555,-3.2258,-3.2018,-3.1672,-3.1276,-3.1112,-3.0947,-3.0889,-3.0889,-3.0889,-3.0889,-3.0596,-3.0342,-3.0342,-2.998,-2.9707,-2.9707,-2.9629,-2.9626,-2.9626,-2.9268,-2.9053,-2.9053,-2.9053,-2.8916,-2.8584,-2.9268,-2.9707,-2.9707,-3.0459,-3.0889,-3.0889,-3.0889,-3.0889,-3.0889,-3.0889,-3.0889,-3.0889,-3.0889,-3.0889,-3.0889,-3.0889,-3.0889,-3.0889,-3.0889,-3.0947,-3.1064,-3.1582,-3.2187,-3.2803,-3.2891,-3.3135,-3.3418,-3.3418,-3.3418,-3.3418,-3.4562,-3.4613,-3.4756,-3.5257,-3.5382,-3.5608,-3.6194,-3.6709,-3.6847,-3.6405,-3.6367,-3.6606,-3.7048,-3.7111,-3.7312,-3.7814,-3.74,-3.7111,-3.7111,-3.6681,-3.6405,-3.6405,-3.7362,-3.7701,-3.7199,-3.7253,-3.7486,-3.7852,-3.6283,-3.5771,-3.62,-3.6595,-3.6542,-3.5985,-3.3877,-3.3257,-3.3683,-3.2566,-3.2287,-3.2669,-3.2669,-3.2669,-3.2669,-3.2669,-3.2669,-3.2669,-3.2669,-3.2669,-3.2669,-3.2669,-3.2669,-3.2669,-3.2669,-3.2669,-3.2669,-3.2669,-3.2669,-3.2669,-3.2669,-3.2487,-3.2258,-3.1903,-3.1845,-3.1682,-3.1054,-3.1112,-3.1218,-3.0947,-3.0889,-3.0889,-3.0889,-3.0859,-3.083,-3.083,-3.0439,-3.0137,-3.0137,-2.9814,-2.9626,-2.9626,-2.9531,-2.9512,-2.9512,-2.9512,-2.9492,-2.9453,-2.9873,-3.0137,-3.0137,-3.0615,-3.0889,-3.0889,-3.0889,-3.0889,-3.0889,-3.0889,-3.0889,-3.0889,-3.0889,-3.0889,-3.0889,-3.0889,-3.0889,-3.0889,-3.0889,-3.1103,-3.1523,-3.2334,-3.2725,-3.2832,-3.3213,-3.3389,-3.3418,-3.3418,-3.3418,-3.3418,-3.468,-3.4944,-3.5245,-3.5458,-3.5818,-3.6219,-3.6772,-3.7048,-3.7224,-3.7337,-3.7349,-3.7425,-3.7651,-3.7676,-3.7764,-3.799,-3.7801,-3.7676,-3.7676,-3.7161,-3.6908,-3.6908,-3.76,-3.7902,-3.7688,-3.8363,-3.8662,-3.853,-3.6869,-3.6022,-3.5905,-3.5423,-3.5407,-3.5678,-3.365,-3.3292,-3.4074,-3.2889,-3.2504,-3.2669,-3.2669,-3.2669,-3.2669,-3.2669,-3.2669,-3.2669,-3.2669,-3.2669,-3.2669,-3.2669,-3.2669,-3.2669,-3.2669,-3.2669,-3.2669,-3.2669,-3.2669,-3.2669,-3.2487,-3.2373,-3.219,-3.1614,-3.1498,-3.1383,-3.1005,-3.1005,-3.1054,-3.0947,-3.0889,-3.0889,-3.0889,-3.0889,-3.0889,-3.0889,-3.0732,-3.0615,-3.0615,-3.0469,-3.0361,-3.0361,-3.0117,-2.9941,-2.9941,-2.9941,-2.9941,-2.9941,-3.0098,-3.0195,-3.0195,-3.0635,-3.0889,-3.0889,-3.0889,-3.0889,-3.0889,-3.0889,-3.0889,-3.0889,-3.0889,-3.0889,-3.0889,-3.0889,-3.1025,-3.1269,-3.1269,-3.165,-3.2314,-3.2656,-3.2939,-3.3193,-3.335,-3.3418,-3.3418,-3.3418,-3.3418,-3.3418,-3.5203,-3.5516,-3.5784,-3.5947,-3.6345,-3.6832,-3.7337,-3.7575,-3.7826,-3.8216,-3.8404,-3.8442,-3.8278,-3.8253,-3.8329,-3.8492,-3.8354,-3.8253,-3.8253,-3.7739,-3.7425,-3.7425,-3.7801,-3.809,-3.8253,-3.9044,-3.9179,-3.8623,-3.7596,-3.6692,-3.5797,-3.4637,-3.4455,-3.5034,-3.3455,-3.3172,-3.3931,-3.3058,-3.2669,-3.2669,-3.2669,-3.2669,-3.2669,-3.2669,-3.2669,-3.2669,-3.2669,-3.2669,-3.2669,-3.2669,-3.2669,-3.2669,-3.2669,-3.2669,-3.2669,-3.2669,-3.2669,-3.2612,-3.2363,-3.2248,-3.2018,-3.1441,-3.1218,-3.1112,-3.0947,-3.0889,-3.0889,-3.0889,-3.0889,-3.0889,-3.0889,-3.0889,-3.0889,-3.0889,-3.0889,-3.0889,-3.0889,-3.0889,-3.0889,-3.0889,-3.0605,-3.04,-3.04,-3.04,-3.04,-3.04,-3.04,-3.04,-3.04,-3.0713,-3.0889,-3.0889,-3.0889,-3.0889,-3.0889,-3.0889,-3.0889,-3.0889,-3.0889,-3.0889,-3.0889,-3.0889,-3.1123,-3.1523,-3.165,-3.2119,-3.2803,-3.293,-3.3154,-3.3418,-3.3418,-3.3418,-3.3418,-3.3418,-3.3418,-3.3355,-3.6392,-3.6392,-3.6568,-3.7073,-3.7174,-3.7362,-3.7914,-3.8479,-3.8906,-3.8906,-3.9333,-3.9471,-3.8969,-3.8906,-3.9082,-3.9622,-3.917,-3.8906,-3.8906,-3.8316,-3.8002,-3.8002,-3.8002,-3.8278,-3.8894,-3.8919,-3.8596,-3.7938,-3.8545,-3.7988,-3.6261,-3.5057,-3.4499,-3.4469,-3.3218,-3.2727,-3.2727,-3.2737,-3.2669,-3.2669,-3.2669,-3.2669,-3.2669,-3.2669,-3.2669,-3.2669,-3.2669,-3.2669,-3.2669,-3.2669,-3.2669,-3.2669,-3.2669,-3.2669,-3.2669,-3.2669,-3.2669,-3.2612,-3.2363,-3.2076,-3.173,-3.1383,-3.1112,-3.0889,-3.0889,-3.0889,-3.0889,-3.0889,-3.0889,-3.0889,-3.0889,-3.0889,-3.0889,-3.0889,-3.0889,-3.0889,-3.0889,-3.0889,-3.0889,-3.0889,-3.0889,-3.0889,-3.0889,-3.0889,-3.0889,-3.0889,-3.0889,-3.0889,-3.0889,-3.0889,-3.0889,-3.0889,-3.0889,-3.0889,-3.0889,-3.0889,-3.0889,-3.0889,-3.0889,-3.0889,-3.0889,-3.0889,-3.1123,-3.1543,-3.1973,-3.2402,-3.2832,-3.3242,-3.3418,-3.3418,-3.3418,-3.3418,-3.3418,-3.3418,-3.3418,-3.3219,-3.7412,-3.7475,-3.7538,-3.7713,-3.7751,-3.7939,-3.8504,-3.8806,-3.9057,-3.9383,-3.9584,-3.9622,-3.9446,-3.9433,-3.9496,-3.9685,-3.9534,-3.9433,-3.9433,-3.8906,-3.8592,-3.8592,-3.7848,-3.7463,-3.7685,-3.7283,-3.695,-3.6738,-3.5864,-3.473,-3.3356,-3.2996,-3.2953,-3.3275,-3.2898,-3.2669,-3.2669,-3.2669,-3.2669,-3.2669,-3.2669,-3.2669,-3.2669,-3.2669,-3.2669,-3.2669,-3.2669,-3.2669,-3.2669,-3.2669,-3.2669,-3.2669,-3.2669,-3.2669,-3.2669,-3.2669,-3.2669,-3.2612,-3.2076,-3.1903,-3.1682,-3.117,-3.0947,-3.0889,-3.0889,-3.0889,-3.0889,-3.0889,-3.0889,-3.0889,-3.0889,-3.0889,-3.0889,-3.0889,-3.0889,-3.0889,-3.0889,-3.0889,-3.0889,-3.0889,-3.0889,-3.0889,-3.0889,-3.0889,-3.0889,-3.0889,-3.0889,-3.0889,-3.0889,-3.0889,-3.0889,-3.0889,-3.0889,-3.0889,-3.0889,-3.0889,-3.0889,-3.0889,-3.0889,-3.0889,-3.0898,-3.1182,-3.1553,-3.1982,-3.2412,-3.2832,-3.3232,-3.3369,-3.3418,-3.3418,-3.3418,-3.3418,-3.3418,-3.3418,-3.2765,-3.1909,-3.7939,-3.8002,-3.8078,-3.8291,-3.8329,-3.8517,-3.9094,-3.9182,-3.9308,-3.9647,-3.9697,-3.9697,-3.9697,-3.9697,-3.9697,-3.9697,-3.9697,-3.9697,-3.9697,-3.9371,-3.9182,-3.9182,-3.7846,-3.72,-3.7392,-3.6389,-3.5785,-3.5553,-3.4549,-3.3701,-3.2944,-3.2944,-3.2832,-3.2669,-3.2669,-3.2669,-3.2669,-3.2669,-3.2669,-3.2669,-3.2669,-3.2669,-3.2669,-3.2669,-3.2669,-3.2669,-3.2669,-3.2669,-3.2669,-3.2669,-3.2669,-3.2669,-3.2669,-3.2669,-3.2669,-3.2669,-3.2669,-3.2555,-3.196,-3.1787,-3.1682,-3.1064,-3.0889,-3.0889,-3.0889,-3.0889,-3.0889,-3.0889,-3.0889,-3.0889,-3.0889,-3.0889,-3.0889,-3.0889,-3.0889,-3.0889,-3.0889,-3.0889,-3.0889,-3.0889,-3.0889,-3.0889,-3.0889,-3.0889,-3.0889,-3.0889,-3.0889,-3.0889,-3.0889,-3.0889,-3.0889,-3.0889,-3.0889,-3.0889,-3.0889,-3.0889,-3.0889,-3.0889,-3.0889,-3.0889,-3.0908,-3.1328,-3.1758,-3.2187,-3.2617,-3.3037,-3.3418,-3.3418,-3.3418,-3.3418,-3.3418,-3.3418,-3.3355,-3.2829,-3.2036,-3.112,-3.8115,-3.8128,-3.8304,-3.8881,-3.8982,-3.9094,-3.9609,-3.9697,-3.9697,-3.9697,-3.9697,-3.9697,-3.9697,-3.9697,-3.9697,-3.9697,-3.9697,-3.9697,-3.9697,-3.9697,-3.9697,-3.9697,-3.8066,-3.7392,-3.7885,-3.6219,-3.5025,-3.4368,-3.4368,-3.4368,-3.4368,-3.4368,-3.3773,-3.2669,-3.2669,-3.2669,-3.2669,-3.2669,-3.2669,-3.2669,-3.2669,-3.2669,-3.2669,-3.2669,-3.2669,-3.2669,-3.2669,-3.2669,-3.2669,-3.2669,-3.2669,-3.2669,-3.2669,-3.2669,-3.2669,-3.2669,-3.2669,-3.2555,-3.196,-3.1787,-3.1682,-3.1064,-3.0889,-3.0889,-3.0889,-3.0889,-3.0889,-3.0889,-3.0889,-3.0889,-3.0889,-3.0889,-3.0889,-3.0889,-3.0889,-3.0889,-3.0889,-3.0889,-3.0889,-3.0889,-3.0889,-3.0889,-3.0889,-3.0889,-3.0889,-3.0889,-3.0889,-3.0889,-3.0889,-3.0889,-3.0889,-3.0889,-3.0889,-3.0889,-3.0889,-3.0889,-3.0889,-3.0889,-3.0889,-3.0908,-3.0947,-3.1367,-3.1797,-3.2236,-3.2656,-3.3057,-3.3418,-3.3418,-3.3418,-3.3418,-3.3418,-3.3355,-3.3092,-3.1771,-3.1185,-3.066,-3.922,-3.9295,-3.9333,-3.9484,-3.9496,-3.9546,-3.9672,-3.9697,-3.9697,-3.9697,-3.9697,-3.9697,-3.9697,-3.9697,-3.9697,-3.9697,-3.9697,-3.9697,-3.9697,-3.9697,-3.9697,-3.9697,-3.842,-3.7765,-3.7897,-3.5822,-3.4193,-3.3115,-3.3115,-3.3115,-3.3115,-3.3115,-3.2944,-3.2669,-3.2669,-3.2669,-3.2669,-3.2669,-3.2669,-3.2669,-3.2669,-3.2669,-3.2669,-3.2669,-3.2669,-3.2669,-3.2669,-3.2669,-3.2669,-3.2669,-3.2669,-3.2669,-3.2669,-3.2669,-3.2669,-3.2669,-3.2669,-3.2555,-3.196,-3.1787,-3.1682,-3.1064,-3.0889,-3.0889,-3.0889,-3.0889,-3.0889,-3.0889,-3.0889,-3.0889,-3.0889,-3.0889,-3.0889,-3.0889,-3.0889,-3.0889,-3.0889,-3.0889,-3.0889,-3.0889,-3.0889,-3.0889,-3.0889,-3.0889,-3.0889,-3.0889,-3.0889,-3.0889,-3.0889,-3.0889,-3.0889,-3.0889,-3.0889,-3.0889,-3.0889,-3.0889,-3.0889,-3.0889,-3.0889,-3.1055,-3.1377,-3.1816,-3.2246,-3.2666,-3.3086,-3.333,-3.3418,-3.3418,-3.3418,-3.3418,-3.3418,-3.2756,-3.1771,-3.1442,-2.9947,-2.7998,-3.9634,-3.9697,-3.9697,-3.9697,-3.9697,-3.9697,-3.9697,-3.9697,-3.9697,-3.9697,-3.9697,-3.9697,-3.9697,-3.9697,-3.9697,-3.9697,-3.9697,-3.9697,-3.9697,-3.9697,-3.9478,-3.8881,-3.7725,-3.6858,-3.6371,-3.458,-3.3332,-3.2669,-3.2669,-3.2669,-3.2669,-3.2669,-3.2669,-3.2669,-3.2669,-3.2669,-3.2669,-3.2669,-3.2669,-3.2669,-3.2669,-3.2669,-3.2669,-3.2669,-3.2669,-3.2669,-3.2669,-3.2669,-3.2669,-3.2669,-3.2669,-3.2669,-3.2669,-3.2669,-3.2669,-3.2669,-3.2669,-3.2612,-3.2143,-3.1903,-3.1682,-3.1064,-3.0889,-3.0889,-3.0889,-3.0889,-3.0889,-3.0889,-3.0889,-3.0889,-3.0889,-3.0889,-3.0889,-3.0889,-3.0889,-3.0889,-3.0889,-3.0889,-3.0889,-3.0889,-3.0889,-3.0889,-3.0889,-3.0889,-3.0889,-3.0889,-3.0889,-3.0889,-3.0889,-3.0889,-3.0889,-3.0889,-3.0889,-3.0889,-3.0889,-3.0889,-3.0889,-3.0889,-3.0889,-3.1113,-3.1533,-3.1973,-3.2393,-3.2822,-3.3242,-3.3418,-3.3418,-3.3418,-3.3029,-3.2438,-3.2438,-3.1588,-3.0281,-2.9622,-2.8386,-2.702,-3.9697,-3.9697,-3.9697,-3.9697,-3.9697,-3.9697,-3.9697,-3.9697,-3.9697,-3.9697,-3.9697,-3.9697,-3.9697,-3.9697,-3.9697,-3.9697,-3.9697,-3.9633,-3.9426,-3.9426,-3.8868,-3.7725,-3.6738,-3.5761,-3.4803,-3.3604,-3.2898,-3.2669,-3.2669,-3.2669,-3.2669,-3.2669,-3.2669,-3.2669,-3.2669,-3.2669,-3.2669,-3.2669,-3.2669,-3.2669,-3.2669,-3.2711,-3.283,-3.283,-3.2871,-3.2923,-3.2851,-3.283,-3.2762,-3.269,-3.2669,-3.2669,-3.2669,-3.2669,-3.2669,-3.2669,-3.2669,-3.2612,-3.2363,-3.2018,-3.1614,-3.1064,-3.0889,-3.0889,-3.0889,-3.0889,-3.0889,-3.0889,-3.0889,-3.0889,-3.0889,-3.0889,-3.0889,-3.0889,-3.0889,-3.0889,-3.0889,-3.0889,-3.0889,-3.0889,-3.0889,-3.0889,-3.0889,-3.0889,-3.0889,-3.0889,-3.0889,-3.0889,-3.0889,-3.0889,-3.0889,-3.0889,-3.0889,-3.0889,-3.0889,-3.0889,-3.0889,-3.0889,-3.0957,-3.1211,-3.1631,-3.206,-3.249,-3.291,-3.3271,-3.3418,-3.3418,-3.3418,-3.2565,-3.1313,-3.1313,-3.0346,-2.8732,-2.7543,-2.6953,-2.6627,-3.9697,-3.9697,-3.9697,-3.9697,-3.9697,-3.9697,-3.9697,-3.9697,-3.9697,-3.9697,-3.9697,-3.9697,-3.9697,-3.9697,-3.9697,-3.9697,-3.9697,-3.9258,-3.8279,-3.8161,-3.7672,-3.6522,-3.6294,-3.6131,-3.5925,-3.4803,-3.3717,-3.2669,-3.2669,-3.2669,-3.2669,-3.2669,-3.2669,-3.2669,-3.2669,-3.2669,-3.2669,-3.2669,-3.2669,-3.2669,-3.2669,-3.2954,-3.3275,-3.3275,-3.3524,-3.3803,-3.342,-3.3275,-3.3223,-3.2851,-3.2669,-3.2669,-3.2669,-3.2669,-3.2669,-3.2669,-3.2669,-3.2612,-3.2363,-3.1845,-3.1276,-3.1005,-3.0889,-3.0889,-3.0889,-3.0889,-3.0889,-3.0889,-3.0889,-3.0889,-3.0889,-3.0889,-3.0889,-3.0889,-3.0889,-3.0889,-3.0889,-3.0889,-3.0889,-3.0889,-3.0889,-3.0889,-3.0889,-3.0889,-3.0889,-3.0889,-3.0889,-3.0889,-3.0889,-3.0889,-3.0889,-3.0889,-3.0889,-3.0889,-3.0889,-3.0889,-3.0889,-3.0898,-3.125,-3.165,-3.208,-3.25,-3.293,-3.333,-3.3389,-3.3418,-3.3418,-3.3418,-3.2565,-3.1313,-3.1313,-2.9761,-2.7493,-2.7294,-2.6442,-2.5382,-3.9697,-3.9697,-3.9697,-3.9697,-3.9697,-3.9697,-3.9697,-3.9697,-3.9697,-3.9697,-3.9697,-3.9697,-3.9697,-3.9697,-3.9426,-3.8764,-3.8712,-3.795,-3.6208,-3.7245,-3.7126,-3.5388,-3.5278,-3.4958,-3.4357,-3.3818,-3.3275,-3.2669,-3.2669,-3.2669,-3.2669,-3.2669,-3.2669,-3.2669,-3.2669,-3.2669,-3.2669,-3.2669,-3.2871,-3.3078,-3.3078,-3.3348,-3.381,-3.381,-3.3935,-3.4041,-3.3824,-3.381,-3.3738,-3.3234,-3.3078,-3.3037,-3.2799,-3.2669,-3.2669,-3.2669,-3.2612,-3.243,-3.2143,-3.1672,-3.1218,-3.0947,-3.0889,-3.0889,-3.0889,-3.0889,-3.0889,-3.0889,-3.0889,-3.0889,-3.0889,-3.0889,-3.0889,-3.0889,-3.0889,-3.0889,-3.0889,-3.0889,-3.0889,-3.0889,-3.0889,-3.0889,-3.0889,-3.0889,-3.0889,-3.0889,-3.0889,-3.0889,-3.0889,-3.0889,-3.0889,-3.0889,-3.0889,-3.0889,-3.0889,-3.0889,-3.1006,-3.123,-3.1426,-3.1865,-3.251,-3.2705,-3.3027,-3.3418,-3.3418,-3.3418,-3.3355,-3.2565,-3.1451,-3.0086,-2.9296,-2.78,-2.6048,-2.6048,-2.5652,-2.5127,-3.9697,-3.9697,-3.9697,-3.9697,-3.9697,-3.9697,-3.9697,-3.9697,-3.9697,-3.9697,-3.981,-3.9769,-3.9496,-3.9496,-3.9001,-3.7744,-3.7584,-3.6642,-3.4636,-3.6165,-3.6208,-3.4155,-3.4099,-3.366,-3.2737,-3.2669,-3.2669,-3.2669,-3.2669,-3.2669,-3.2669,-3.2669,-3.2669,-3.2669,-3.2669,-3.2789,-3.2882,-3.2882,-3.313,-3.3534,-3.3534,-3.3813,-3.4287,-3.4287,-3.4289,-3.4372,-3.4329,-3.4287,-3.4214,-3.3689,-3.3461,-3.3317,-3.2985,-3.282,-3.2669,-3.2669,-3.243,-3.2133,-3.1845,-3.1556,-3.1218,-3.0947,-3.0889,-3.0889,-3.0889,-3.0889,-3.0889,-3.0889,-3.0889,-3.0889,-3.0889,-3.0889,-3.0889,-3.0889,-3.0889,-3.0889,-3.0889,-3.0889,-3.0889,-3.0889,-3.0889,-3.0889,-3.0889,-3.0889,-3.0889,-3.0889,-3.0889,-3.0889,-3.0889,-3.0889,-3.0889,-3.0889,-3.0889,-3.0889,-3.0889,-3.0986,-3.1201,-3.1514,-3.1719,-3.2158,-3.2803,-3.29,-3.3115,-3.3418,-3.3418,-3.3228,-3.2829,-3.1771,-3.0281,-2.8592,-2.7543,-2.6301,-2.5127,-2.5127,-2.5127,-2.5127,-3.9697,-3.9697,-3.9697,-3.9697,-3.9697,-3.9697,-3.9697,-3.9697,-3.9697,-3.9697,-4.0136,-4.0003,-3.8809,-3.8767,-3.8389,-3.7063,-3.6582,-3.5815,-3.4591,-3.4636,-3.4201,-3.2898,-3.2841,-3.2784,-3.2669,-3.2669,-3.2669,-3.2669,-3.2669,-3.2669,-3.2669,-3.2669,-3.2669,-3.2669,-3.2669,-3.2954,-3.3327,-3.3327,-3.3596,-3.408,-3.408,-3.4349,-3.4774,-3.4774,-3.4962,-3.5273,-3.4848,-3.4774,-3.4702,-3.4235,-3.3789,-3.3368,-3.3337,-3.3058,-3.2669,-3.2669,-3.2258,-3.1845,-3.1787,-3.1556,-3.1218,-3.0947,-3.0889,-3.0889,-3.0889,-3.0889,-3.0889,-3.0889,-3.0889,-3.0889,-3.0889,-3.0889,-3.0889,-3.0889,-3.0889,-3.0889,-3.0889,-3.0889,-3.0889,-3.0889,-3.0889,-3.0889,-3.0889,-3.0889,-3.0889,-3.0889,-3.0889,-3.0889,-3.0889,-3.0889,-3.0889,-3.0889,-3.0889,-3.0889,-3.0889,-3.1279,-3.1484,-3.1533,-3.2324,-3.2734,-3.2803,-3.3203,-3.3389,-3.3418,-3.3418,-3.2629,-3.1442,-3.1313,-2.9687,-2.7211,-2.7145,-2.6301,-2.5127,-2.5127,-2.5127,-2.5127,-3.9697,-3.9697,-3.9697,-3.9697,-3.9697,-3.9697,-3.9697,-3.9697,-3.9697,-3.9697,-4.0174,-4.0,-3.8749,-3.8941,-3.8362,-3.6407,-3.6069,-3.5336,-3.3925,-3.38,-3.3455,-3.2737,-3.2669,-3.2669,-3.2669,-3.2669,-3.2669,-3.2669,-3.2669,-3.2669,-3.2669,-3.2669,-3.2669,-3.269,-3.3006,-3.3223,-3.3399,-3.3689,-3.4132,-3.4557,-3.4557,-3.4766,-3.5169,-3.5169,-3.5273,-3.5397,-3.5231,-3.5169,-3.5107,-3.4712,-3.4246,-3.3751,-3.3461,-3.3078,-3.2669,-3.2487,-3.2133,-3.173,-3.1556,-3.1276,-3.1054,-3.0947,-3.0889,-3.0889,-3.0889,-3.0889,-3.0889,-3.0889,-3.0889,-3.0889,-3.0889,-3.0889,-3.0889,-3.0889,-3.0889,-3.0889,-3.0889,-3.0889,-3.0889,-3.0889,-3.0889,-3.0889,-3.0889,-3.0889,-3.0889,-3.0889,-3.0889,-3.0889,-3.0889,-3.0889,-3.0889,-3.0889,-3.1143,-3.1279,-3.1279,-3.1435,-3.1787,-3.2314,-3.2637,-3.293,-3.3193,-3.335,-3.3418,-3.3355,-3.2502,-3.1771,-3.1185,-2.9426,-2.8065,-2.702,-2.6167,-2.5517,-2.5127,-2.5127,-2.5127,-2.5127,-3.976,-3.9835,-3.9898,-3.9722,-3.9697,-3.9697,-3.9697,-3.9697,-3.9581,-3.9193,-3.9708,-3.9526,-3.7895,-3.8183,-3.7702,-3.5671,-3.5355,-3.479,-3.3665,-3.3596,-3.3337,-3.2758,-3.2669,-3.2669,-3.2669,-3.2669,-3.2669,-3.2669,-3.2669,-3.2669,-3.2669,-3.2871,-3.2934,-3.2954,-3.3399,-3.3668,-3.3893,-3.4204,-3.4608,-3.4973,-3.4973,-3.5148,-3.5418,-3.5418,-3.5418,-3.5418,-3.5418,-3.5418,-3.5376,-3.5076,-3.4569,-3.401,-3.3689,-3.3134,-3.2555,-3.2363,-3.196,-3.1614,-3.1383,-3.1112,-3.0889,-3.0889,-3.0889,-3.0889,-3.0889,-3.0889,-3.0889,-3.0889,-3.0889,-3.0889,-3.0889,-3.0889,-3.0889,-3.0889,-3.0889,-3.0889,-3.0889,-3.0889,-3.0889,-3.0889,-3.0889,-3.0889,-3.0889,-3.0889,-3.0889,-3.0889,-3.0889,-3.0889,-3.0889,-3.0889,-3.0957,-3.1084,-3.1367,-3.1641,-3.1914,-3.1914,-3.2217,-3.2793,-3.293,-3.3144,-3.3418,-3.3418,-3.3418,-3.3292,-3.1909,-3.1056,-3.0475,-2.8056,-2.682,-2.6368,-2.545,-2.5127,-2.5127,-2.5127,-2.5127,-2.5127,-3.9923,-4.0149,-4.035,-3.9798,-3.9697,-3.9697,-3.9697,-3.9697,-3.927,-3.8068,-3.8797,-3.8489,-3.6074,-3.6278,-3.6096,-3.4937,-3.4401,-3.4132,-3.4132,-3.4132,-3.3668,-3.2721,-3.269,-3.2737,-3.2737,-3.2737,-3.268,-3.2669,-3.2669,-3.2669,-3.2747,-3.3172,-3.3379,-3.3399,-3.3924,-3.4391,-3.4816,-3.4826,-3.5024,-3.5418,-3.5418,-3.5418,-3.5418,-3.5418,-3.5418,-3.5418,-3.5418,-3.5418,-3.5418,-3.5418,-3.4817,-3.4132,-3.4062,-3.3265,-3.2305,-3.2305,-3.1845,-3.1325,-3.1325,-3.1112,-3.0889,-3.0889,-3.0889,-3.0889,-3.0889,-3.0889,-3.0889,-3.0889,-3.0889,-3.0889,-3.0889,-3.0889,-3.0889,-3.0889,-3.0889,-3.0889,-3.0889,-3.0889,-3.0889,-3.0889,-3.0889,-3.0889,-3.0889,-3.0889,-3.0889,-3.0889,-3.0889,-3.0889,-3.0889,-3.0898,-3.1084,-3.1504,-3.1523,-3.1934,-3.2793,-3.2793,-3.2793,-3.2803,-3.3223,-3.3418,-3.3418,-3.3418,-3.3418,-3.3292,-3.1909,-3.0475,-2.9051,-2.7676,-2.6301,-2.5127,-2.5127,-2.5127,-2.5127,-2.5127,-2.5127,-2.5127,-4.0337,-4.0714,-4.0862,-4.0362,-4.0588,-4.0714,-4.0325,-4.0601,-4.0388,-3.9141,-3.9578,-3.9096,-3.6578,-3.6768,-3.657,-3.5344,-3.5097,-3.4879,-3.464,-3.4308,-3.4007,-3.3679,-3.3668,-3.3513,-3.3192,-3.3182,-3.3037,-3.2669,-3.2669,-3.2882,-3.3192,-3.3317,-3.3555,-3.3935,-3.4401,-3.4691,-3.4837,-3.5086,-3.5304,-3.5418,-3.5418,-3.5418,-3.5418,-3.5418,-3.5418,-3.5418,-3.5418,-3.5418,-3.5418,-3.5418,-3.4817,-3.3958,-3.3084,-3.2588,-3.2201,-3.173,-3.1441,-3.1276,-3.1054,-3.0947,-3.0889,-3.0889,-3.0889,-3.0889,-3.0889,-3.0889,-3.0889,-3.0889,-3.0889,-3.0889,-3.0889,-3.0889,-3.0889,-3.0889,-3.0889,-3.0889,-3.0889,-3.0889,-3.0889,-3.0889,-3.0889,-3.0889,-3.0889,-3.0889,-3.0889,-3.0889,-3.0889,-3.0889,-3.0889,-3.1172,-3.1387,-3.1514,-3.21,-3.2539,-3.2793,-3.2793,-3.2939,-3.3232,-3.3359,-3.3418,-3.3418,-3.3418,-3.2829,-3.1845,-3.0419,-2.9043,-2.761,-2.6241,-2.545,-2.5127,-2.5127,-2.5127,-2.5127,-2.5127,-2.5127,-2.5127,-4.0927,-4.1062,-4.1175,-4.0849,-4.0887,-4.0924,-4.0811,-4.0662,-4.0129,-3.888,-3.8776,-3.8065,-3.6048,-3.6275,-3.6247,-3.5479,-3.5418,-3.5304,-3.5035,-3.4755,-3.46,-3.46,-3.46,-3.43,-3.3668,-3.3658,-3.3524,-3.3254,-3.3254,-3.3399,-3.3658,-3.3893,-3.4132,-3.4422,-3.4817,-3.5024,-3.5035,-3.5304,-3.5418,-3.5418,-3.5418,-3.5418,-3.5418,-3.5418,-3.5418,-3.5418,-3.5418,-3.5418,-3.5418,-3.5418,-3.4817,-3.3906,-3.2707,-3.219,-3.2018,-3.1441,-3.1218,-3.1112,-3.0947,-3.0889,-3.0889,-3.0889,-3.0889,-3.0889,-3.0889,-3.0889,-3.0889,-3.0889,-3.0889,-3.0889,-3.0889,-3.0889,-3.0889,-3.0889,-3.0889,-3.0889,-3.0889,-3.0889,-3.0889,-3.0889,-3.0889,-3.0889,-3.0889,-3.0889,-3.0889,-3.0889,-3.1045,-3.1143,-3.1143,-3.1543,-3.1855,-3.2021,-3.2529,-3.2871,-3.3037,-3.3047,-3.3174,-3.3418,-3.3418,-3.3418,-3.3418,-3.3418,-3.2629,-3.1249,-2.9835,-2.8394,-2.702,-2.5644,-2.5127,-2.5127,-2.5127,-2.5127,-2.5127,-2.5127,-2.5127,-2.5127,-4.1551,-4.1401,-4.1413,-4.1363,-4.0921,-4.0718,-4.1114,-4.0184,-3.8954,-3.7839,-3.7047,-3.6101,-3.4999,-3.518,-3.5418,-3.5418,-3.5418,-3.5418,-3.5418,-3.5418,-3.5418,-3.5418,-3.5418,-3.5035,-3.4207,-3.4204,-3.4113,-3.4132,-3.4132,-3.4142,-3.4194,-3.4619,-3.4847,-3.4899,-3.5242,-3.5418,-3.5418,-3.5418,-3.5418,-3.5418,-3.5418,-3.5418,-3.5418,-3.5418,-3.5418,-3.5418,-3.5418,-3.5418,-3.5407,-3.5324,-3.4755,-3.3906,-3.2649,-3.2076,-3.173,-3.1383,-3.1112,-3.0889,-3.0889,-3.0889,-3.0889,-3.0889,-3.0889,-3.0889,-3.0889,-3.0889,-3.0889,-3.0889,-3.0889,-3.0889,-3.0889,-3.0889,-3.0898,-3.0947,-3.0947,-3.0957,-3.0996,-3.1006,-3.1006,-3.1006,-3.1006,-3.1006,-3.1006,-3.1006,-3.1006,-3.1006,-3.1357,-3.1572,-3.1572,-3.1992,-3.2402,-3.2783,-3.2832,-3.3037,-3.3418,-3.3418,-3.3418,-3.3418,-3.3418,-3.3418,-3.3418,-3.3292,-3.2438,-3.1056,-2.9631,-2.8205,-2.6828,-2.5584,-2.5127,-2.5127,-2.5127,-2.5127,-2.5127,-2.5127,-2.5127,-2.5127,-4.202,-4.2321,-4.2484,-4.2057,-4.1423,-4.0894,-4.059,-3.9793,-3.8825,-3.7517,-3.7199,-3.6624,-3.5396,-3.5366,-3.5418,-3.5418,-3.5418,-3.5418,-3.5418,-3.5418,-3.5418,-3.5418,-3.5418,-3.5324,-3.5128,-3.4786,-3.4494,-3.4132,-3.4132,-3.4318,-3.4671,-3.4774,-3.4941,-3.5283,-3.5376,-3.5418,-3.5418,-3.5418,-3.5418,-3.5418,-3.5418,-3.5418,-3.5418,-3.5418,-3.5418,-3.5418,-3.5418,-3.5418,-3.5314,-3.46,-3.4287,-3.3847,-3.236,-3.1845,-3.1672,-3.117,-3.0947,-3.0889,-3.0889,-3.0889,-3.0889,-3.0889,-3.0889,-3.0889,-3.0889,-3.0889,-3.0889,-3.0889,-3.0889,-3.0889,-3.0889,-3.0889,-3.0996,-3.1328,-3.1377,-3.1504,-3.1846,-3.1894,-3.1894,-3.1894,-3.1894,-3.1894,-3.1894,-3.1894,-3.1894,-3.1894,-3.1973,-3.2031,-3.2031,-3.2432,-3.2695,-3.2793,-3.3115,-3.333,-3.3418,-3.3418,-3.3418,-3.3418,-3.3418,-3.3418,-3.3355,-3.2237,-3.1001,-2.9574,-2.8196,-2.6761,-2.5517,-2.5187,-2.5127,-2.5127,-2.5127,-2.5127,-2.5127,-2.5127,-2.5127,-2.5127,-4.2602,-4.2627,-4.2627,-4.2602,-4.1575,-4.0715,-4.0691,-3.9325,-3.8078,-3.7358,-3.6775,-3.6125,-3.5479,-3.5418,-3.5418,-3.5418,-3.5418,-3.5418,-3.5418,-3.5418,-3.5418,-3.5418,-3.5418,-3.5418,-3.5418,-3.519,-3.4962,-3.4714,-3.4714,-3.4838,-3.5076,-3.5076,-3.52,-3.5418,-3.5418,-3.5418,-3.5418,-3.5418,-3.5418,-3.5418,-3.5418,-3.5418,-3.5418,-3.5418,-3.5418,-3.5418,-3.5418,-3.5418,-3.5283,-3.4372,-3.4132,-3.3847,-3.2302,-3.1787,-3.1682,-3.1064,-3.0889,-3.0889,-3.0889,-3.0889,-3.0889,-3.0889,-3.0889,-3.0889,-3.0889,-3.0889,-3.0889,-3.0889,-3.0889,-3.0957,-3.1152,-3.1191,-3.1328,-3.1758,-3.1826,-3.1904,-3.2139,-3.2229,-3.2229,-3.2229,-3.2229,-3.2229,-3.2229,-3.2229,-3.2229,-3.2229,-3.2353,-3.2471,-3.2471,-3.2861,-3.3096,-3.3096,-3.331,-3.3418,-3.3418,-3.3418,-3.3418,-3.3418,-3.3418,-3.3029,-3.2365,-3.1643,-3.0151,-2.8139,-2.7411,-2.6368,-2.5127,-2.5127,-2.5127,-2.5127,-2.5127,-2.5127,-2.5127,-2.5127,-2.5127,-2.5127,-4.2974,-4.2665,-4.2502,-4.2898,-4.1374,-4.0242,-4.0741,-3.8614,-3.7006,-3.7006,-3.6074,-3.5418,-3.5418,-3.5418,-3.5418,-3.5418,-3.5418,-3.5418,-3.5418,-3.5418,-3.5418,-3.5418,-3.5418,-3.5418,-3.5418,-3.5418,-3.5418,-3.5418,-3.5418,-3.5418,-3.5418,-3.5418,-3.5418,-3.5418,-3.5418,-3.5418,-3.5418,-3.5418,-3.5418,-3.5418,-3.5418,-3.5418,-3.5418,-3.5418,-3.5418,-3.5418,-3.5418,-3.5418,-3.5273,-3.4279,-3.4,-3.3847,-3.2302,-3.1787,-3.1682,-3.1064,-3.0889,-3.0889,-3.0889,-3.0889,-3.0889,-3.0889,-3.0889,-3.0889,-3.0889,-3.0889,-3.0889,-3.0889,-3.0947,-3.1103,-3.1455,-3.1582,-3.1768,-3.2207,-3.2275,-3.2305,-3.2373,-3.2383,-3.2383,-3.2383,-3.2383,-3.2383,-3.2383,-3.2383,-3.2383,-3.2383,-3.2705,-3.29,-3.29,-3.3232,-3.3418,-3.3418,-3.3418,-3.3418,-3.3418,-3.3418,-3.3418,-3.3418,-3.3165,-3.2428,-3.1313,-3.1056,-2.9557,-2.7086,-2.6886,-2.6107,-2.5127,-2.5127,-2.5127,-2.5127,-2.5127,-2.5127,-2.5127,-2.5127,-2.5127,-2.5127,-4.2974,-4.2924,-4.2886,-4.2961,-4.0983,-3.9382,-3.9451,-3.7259,-3.5654,-3.5654,-3.5541,-3.5418,-3.5418,-3.5418,-3.5418,-3.5418,-3.5418,-3.5418,-3.5418,-3.5418,-3.5418,-3.5418,-3.5418,-3.5418,-3.5418,-3.5418,-3.5418,-3.5418,-3.5418,-3.5418,-3.5418,-3.5418,-3.5418,-3.5418,-3.5418,-3.5418,-3.5418,-3.5418,-3.5418,-3.5418,-3.5418,-3.5418,-3.5418,-3.5418,-3.5418,-3.5418,-3.5418,-3.5418,-3.5221,-3.3917,-3.3731,-3.3847,-3.2302,-3.1787,-3.1682,-3.1064,-3.0889,-3.0889,-3.0889,-3.0889,-3.0889,-3.0889,-3.0889,-3.0889,-3.0889,-3.0889,-3.0889,-3.0889,-3.1182,-3.1455,-3.1504,-3.1826,-3.2217,-3.2637,-3.2715,-3.2832,-3.3203,-3.3252,-3.3252,-3.3252,-3.3252,-3.3252,-3.3252,-3.3252,-3.3252,-3.3252,-3.3301,-3.334,-3.334,-3.3389,-3.3418,-3.3418,-3.3418,-3.3418,-3.3418,-3.3418,-3.3418,-3.3364,-3.2174,-3.1506,-3.1249,-3.0021,-2.8592,-2.702,-2.5839,-2.5255,-2.5127,-2.5127,-2.5127,-2.5127,-2.5127,-2.5127,-2.5127,-2.5127,-2.5127,-2.5127,-4.2974,-4.2974,-4.2974,-4.2974,-4.0916,-3.9216,-3.9216,-3.7028,-3.5418,-3.5418,-3.5418,-3.5418,-3.5418,-3.5418,-3.5418,-3.5418,-3.5418,-3.5418,-3.5418,-3.5418,-3.5418,-3.5418,-3.5418,-3.5418,-3.5418,-3.5418,-3.5418,-3.5418,-3.5418,-3.5418,-3.5418,-3.5418,-3.5418,-3.5418,-3.5418,-3.5418,-3.5418,-3.5418,-3.5418,-3.5418,-3.5418,-3.5418,-3.5418,-3.5418,-3.5418,-3.5387,-3.5138,-3.489,-3.4538,-3.3668,-3.3396,-3.3213,-3.2163,-3.1672,-3.1441,-3.0995,-3.0889,-3.0889,-3.0889,-3.0889,-3.0889,-3.0889,-3.0889,-3.0889,-3.0889,-3.0889,-3.0957,-3.1191,-3.1387,-3.166,-3.2148,-3.2383,-3.2656,-3.3076,-3.3144,-3.3213,-3.3398,-3.3418,-3.3418,-3.3418,-3.3418,-3.3418,-3.3418,-3.3418,-3.3418,-3.3418,-3.3418,-3.3418,-3.3418,-3.3418,-3.3418,-3.3418,-3.3418,-3.3418,-3.3418,-3.3418,-3.3418,-3.3355,-3.1973,-3.0863,-3.0086,-2.8657,-2.7286,-2.5973,-2.539,-2.5127,-2.5127,-2.5127,-2.5127,-2.5127,-2.5127,-2.5127,-2.5127,-2.5127,-2.5127,-2.5127]},{"header":{"parameterUnit":"m.s-1","parameterCategory":1,"la1":30.6,"la2":28.766,"lo1":-90.7593,"lo2":-88.6598,"dy":0.0162,"dx":0.0183,"nx":116,"ny":114,"refTime":"2023-09-01T18:00:00:Z","depth":0,"parameterNumber":3,"parameterNumberName":"V-component_of_WINDS"},"data":[0.0,0.0,0.0,0.0,0.0,0.0,0.0,0.0,0.0,0.0,0.0,0.0,0.0,0.0,0.0,0.0,0.0,0.0,0.0,0.0,0.0,0.0,0.0,0.0,0.0,0.0,0.0,0.0,0.0,0.0,0.0,0.0,0.0,0.0,0.0,0.0,0.0,0.0,0.0,0.0,0.0,0.0,0.0,0.0,0.0,0.0,0.0,0.0,0.0,0.0,0.0,0.0,0.0,0.0,0.0,0.0,0.0,0.0,0.0,0.0,0.0,0.0,0.0,0.0,0.0,0.0,0.0,0.0,0.0,0.0,0.0,0.0,0.0,0.0,0.0,0.0,0.0,0.0,0.0,0.0,0.0,0.0,0.0,0.0,0.0,0.0,0.0,0.0,0.0,0.0,0.0,0.0,0.0,0.0,0.0,0.0,0.0,0.0,0.0,0.0,0.0,0.0,0.0,0.0,0.0,0.0,0.0,0.0,0.0,0.0,0.0,0.0,0.0,0.0,0.0,0.0,0.0,0.0,0.0,0.0,0.0,0.0,0.0,0.0,0.0,0.0,0.0,0.0,0.0,0.0,0.0,0.0,0.0,0.0,0.0,0.0,0.0,0.0,0.0,0.0,0.0,0.0,0.0,0.0,0.0,0.0,0.0,0.0,0.0,0.0,0.0,0.0,0.0,0.0,0.0,0.0,0.0,0.0,0.0,0.0,0.0,0.0,0.0,0.0,0.0,0.0,0.0,0.0,0.0,0.0,0.0,0.0,0.0,0.0,0.0,0.0,0.0,0.0,0.0,0.0,0.0,0.0,0.0,0.0,0.0,0.0,0.0,0.0,0.0,0.0,0.0,0.0,0.0,0.0,0.0,0.0,0.0,0.0,0.0,0.0,0.0,0.0,0.0,0.0,0.0,0.0,0.0,0.0,0.0,0.0,0.0,0.0,0.0,0.0,0.0,0.0,0.0,0.0,0.0,0.0,0.0,0.0,0.0,0.0,0.0,0.0,0.0,0.0,0.0,0.0,0.0,0.0,0.0,0.0,0.0,0.0,0.0,0.0,0.0,0.0,0.0,0.0,0.0,0.0,0.0,0.0,0.0,0.0,0.0,0.0,0.0,0.0,0.0,0.0,0.0,0.0,0.0,0.0,0.0,0.0,0.0,0.0,0.0,0.0,0.0,0.0,0.0,0.0,0.0,0.0,0.0,0.0,0.0,0.0,0.0,0.0,0.0,0.0,0.0,0.0,0.0,0.0,0.0,0.0,0.0,0.0,0.0,0.0,0.0,0.0,0.0,0.0,0.0,0.0,0.0,0.0,0.0,0.0,0.0,0.0,0.0,0.0,0.0,0.0,0.0,0.0,0.0,0.0,0.0,0.0,0.0,0.0,0.0,0.0,0.0,0.0,0.0,0.0,0.0,0.0,0.0,0.0,0.0,0.0,0.0,0.0,0.0,0.0,0.0,0.0,0.0,0.0,0.0,0.0,0.0,0.0,0.0,0.0,0.0,0.0,0.0,0.0,0.0,0.0,0.0,0.0,0.0,0.0,0.0,0.0,0.0,0.0,0.0,0.0,0.0,0.0,0.0,0.0,0.0,0.0,0.0,0.0,0.0,0.0,0.0,0.0,0.0,0.0,0.0,0.0,0.0,0.0,0.0,0.0,0.0,0.0,0.0,0.0,0.0,0.0,0.0,0.0,0.0,0.0,0.0,0.0,0.0,0.0,0.0,0.0,0.0,0.0,0.0,0.0,0.0,0.0,0.0,0.0,0.0,0.0,0.0,0.0,0.0,0.0,0.0,0.0,0.0,0.0,0.0,0.0,0.0,0.0,0.0,0.0,0.0,0.0,0.0,0.0,0.0,0.0,0.0,0.0,0.0,0.0,0.0,0.0,0.0,0.0,0.0,0.0,0.0,0.0,0.0,0.0,0.0,0.0,0.0,0.0,0.0,0.0,0.0,0.0,0.0,0.0,0.0,0.0,0.0,0.0,0.0,0.0,0.0,0.0,0.0,0.0,0.0,0.0,0.0,0.0,0.0,0.0,0.0,0.0,0.0,0.0,0.0,0.0,0.0,0.0,0.0,0.0,0.0,0.0,0.0,0.0,0.0,0.0,0.0,0.0,0.0,0.0,0.0,0.0,0.0,0.0,0.0,0.0,0.0,0.0,0.0,0.0,0.0,0.0,0.0,0.0,0.0,0.0,0.0,0.0,0.0,0.0,0.0,0.0,0.0,0.0,0.0,0.0,0.0,0.0,0.0,0.0,0.0,0.0,0.0,0.0,0.0,0.0,0.0,0.0,0.0,0.0,0.0,0.0,0.0,0.0,0.0,0.0,0.0,0.0,0.0,0.0,0.0,0.0,0.0,0.0,0.0,0.0,0.0,0.0,0.0,0.0,0.0,0.0,0.0,0.0,0.0,0.0,0.0,0.0,0.0,0.0,0.0,0.0,0.0,0.0,0.0,0.0,0.0,0.0,0.0,0.0,0.0,0.0,0.0,0.0,0.0,0.0,0.0,0.0,0.0,0.0,0.0,0.0,0.0,0.0,0.0,0.0,0.0,0.0,0.0,0.0,0.0,0.0,0.0,0.0,0.0,0.0,0.0,0.0,0.0,0.0,0.0,0.0,0.0,0.0,0.0,0.0,0.0,0.0,0.0,0.0,0.0,0.0,0.0,0.0,0.0,0.0,0.0,0.0,0.0,0.0,0.0,0.0,0.0,0.0,0.0,0.0,0.0,0.0,0.0,0.0,0.0,0.0,0.0,0.0,0.0,0.0,0.0,0.0,0.0,0.0,0.0,0.0,0.0,0.0,0.0,0.0,0.0,0.0,0.0,0.0,0.0,0.0,0.0,0.0,0.0,0.0,0.0,0.0,0.0,0.0,0.0,0.0,0.0,0.0,0.0,0.0,0.0,0.0,0.0,0.0,0.0,0.0,0.0,0.0,0.0,0.0,0.0,0.0,0.0,0.0,0.0,0.0,0.0,0.0,0.0,0.0,0.0,0.0,0.0,0.0,0.0,0.0,0.0,0.0,0.0,0.0,0.0,0.0,0.0,0.0,0.0,0.0,0.0,0.0,0.0,0.0,0.0,0.0,0.0,0.0,0.0,0.0,0.0,0.0,0.0,0.0,0.0,0.0,0.0,0.0,0.0,0.0,0.0,0.0,0.0,0.0,0.0,0.0,0.0,0.0,0.0,0.0,0.0,0.0,0.0,0.0,0.0,0.0,0.0,0.0,0.0,0.0,0.0,0.0,0.0,0.0,0.0,0.0,0.0,0.0,0.0,0.0,0.0,0.0,0.0,0.0,0.0,0.0,0.0,0.0,0.0,0.0,0.0,0.0,0.0,0.0,0.0,0.0,0.0,0.0,0.0,0.0,0.0,0.0,0.0,0.0,0.0,0.0,0.0,0.0,0.0,0.0,0.0,0.0,0.0,0.0,0.0,0.0,0.0,0.0,0.0,0.0,0.0,0.0,0.0,0.0,0.0,0.0,0.0,0.0,0.0,0.0,0.0,0.0,0.0,0.0,0.0,0.0,0.0,0.0,0.0,0.0,0.0,0.0,0.0,0.0,0.0,0.0,0.0,0.0,0.0,0.0,0.0,0.0,0.0,0.0,0.0,0.0,0.0,0.0,0.0,0.0,0.0,0.0,0.0,0.0,0.0,0.0,0.0,0.0,0.0,0.0,0.0,0.0,0.0,0.0,0.0,0.0,0.0,0.0,0.0,0.0,0.0,0.0,0.0,0.0,0.0,0.0,0.0,0.0,0.0,0.0,0.0,0.0,0.0,0.0,0.0,0.0,0.0,0.0,0.0,0.0,0.0,0.0,0.0,0.0,0.0,0.0,0.0,0.0,0.0,0.0,0.0,0.0,0.0,0.0,0.0,0.0,0.0,0.0,0.0,0.0,0.0,0.0,0.0,0.0,0.0,0.0,0.0,0.0,0.0,0.0,0.0,0.0,0.0,0.0,0.0,0.0,0.0,0.0,0.0,0.0,0.0,0.0,0.0,0.0,0.0,0.0,0.0,0.0,0.0,0.0,0.0,0.0,0.0,0.0,0.0,0.0,0.0,0.0,0.0,0.0,0.0,0.0,0.0,0.0,0.0,0.0,0.0,0.0,0.0,0.0,0.0,0.0,0.0,0.0,0.0,0.0,0.0,0.0,0.0,0.0,0.0,0.0,0.0,0.0,0.0,0.0,0.0,0.0,0.0,0.0,0.0,0.0,0.0,0.0,0.0,0.0,0.0,0.0,0.0,0.0,0.0,0.0,0.0,0.0,0.0,0.0,0.0,0.0,0.0,0.0,0.0,0.0,0.0,0.0,0.0,0.0,0.0,0.0,0.0,0.0,0.0,0.0,0.0,0.0,0.0,0.0,0.0,0.0,0.0,0.0,0.0,0.0,0.0,0.0,0.0,0.0,0.0,0.0,0.0,0.0,0.0,0.0,0.0,0.0,0.0,0.0,0.0,0.0,0.0,0.0,0.0,0.0,0.0,0.0,0.0,0.0,0.0,0.0,0.0,0.0,0.0,0.0,0.0,0.0,0.0,0.0,0.0,0.0,0.0,0.0,0.0,0.0,0.0,0.0,0.0,0.0,0.0,0.0,0.0,0.0,0.0,0.0,0.0,0.0,0.0,0.0,0.0,0.0,0.0,0.0,0.0,0.0,0.0,0.0,0.0,0.0,0.0,0.0,0.0,0.0,0.0,0.0,0.0,0.0,0.0,0.0,0.0,0.0,0.0,0.0,0.0,0.0,0.0,0.0,0.0,0.0,0.0,0.0,0.0,0.0,0.0,0.0,0.0,0.0,0.0,0.0,0.0,0.0,0.0,0.0,0.0,0.0,0.0,0.0,0.0,0.0,0.0,0.0,0.0,0.0,0.0,0.0,0.0,0.0,0.0,0.0,0.0,0.0,0.0,0.0,0.0,0.0,0.0,0.0,0.0,0.0,0.0,0.0,0.0,0.0,0.0,0.0,0.0,0.0,0.0,0.0,0.0,0.0,0.0,0.0,0.0,0.0,0.0,0.0,0.0,0.0,0.0,0.0,0.0,0.0,0.0,0.0,0.0,0.0,0.0,0.0,0.0,0.0,0.0,0.0,0.0,0.0,0.0,0.0,0.0,0.0,0.0,0.0,0.0,0.0,0.0,0.0,0.0,0.0,0.0,0.0,0.0,0.0,0.0,0.0,0.0,0.0,0.0,0.0,0.0,0.0,0.0,0.0,0.0,0.0,0.0,0.0,0.0,0.0,0.0,0.0,0.0,0.0,0.0,0.0,0.0,0.0,0.0,0.0,0.0,0.0,0.0,0.0,0.0,0.0,0.0,0.0,0.0,0.0,0.0,0.0,0.0,0.0,0.0,0.0,0.0,0.0,0.0,0.0,0.0,0.0,0.0,0.0,0.0,0.0,0.0,0.0,0.0,0.0,0.0,0.0,0.0,0.0,0.0,0.0,0.0,0.0,0.0,0.0,0.0,0.0,0.0,0.0,0.0,0.0,0.0,0.0,0.0,0.0,0.0,0.0,0.0,0.0,0.0,0.0,0.0,0.0,0.0,0.0,0.0,0.0,0.0,0.0,0.0,0.0,0.0,0.0,0.0,0.0,0.0,0.0,0.0,0.0,0.0,0.0,0.0,0.0,0.0,0.0,0.0,0.0,0.0,0.0,0.0,0.0,0.0,0.0,0.0,0.0,0.0,0.0,0.0,0.0,0.0,0.0,0.0,0.0,0.0,0.0,0.0,0.0,0.0,0.0,0.0,0.0,0.0,0.0,0.0,0.0,0.0,0.0,0.0,0.0,0.0,0.0,0.0,0.0,0.0,0.0,0.0,0.0,0.0,0.0,0.0,0.0,0.0,0.0,0.0,0.0,0.0,0.0,0.0,0.0,0.0,0.0,0.0,0.0,0.0,0.0,0.0,0.0,0.0,0.0,0.0,0.0,0.0,0.0,0.0,0.0,0.0,0.0,0.0,0.0,0.0,0.0,0.0,0.0,0.0,0.0,0.0,0.0,0.0,0.0,0.0,0.0,0.0,0.0,0.0,0.0,0.0,0.0,0.0,0.0,0.0,0.0,0.0,0.0,0.0,0.0,0.0,0.0,0.0,0.0,3.0084,2.9701,0.0,0.0,0.0,0.0,0.0,0.0,0.0,0.0,0.0,0.0,0.0,0.0,0.0,0.0,0.0,0.0,0.0,0.0,0.0,0.0,0.0,0.0,0.0,0.0,0.0,0.0,0.0,0.0,0.0,0.0,0.0,0.0,0.0,0.0,0.0,0.0,0.0,3.1511,3.1511,3.1511,3.1496,3.0977,3.0867,3.1067,0.0,0.0,0.0,0.0,0.0,0.0,0.0,0.0,0.0,0.0,0.0,0.0,0.0,0.0,0.0,0.0,0.0,0.0,0.0,0.0,0.0,0.0,0.0,0.0,0.0,0.0,0.0,0.0,0.0,0.0,0.0,0.0,0.0,0.0,0.0,0.0,0.0,0.0,0.0,0.0,0.0,0.0,0.0,0.0,0.0,0.0,0.0,0.0,0.0,0.0,0.0,0.0,0.0,0.0,0.0,0.0,0.0,0.0,0.0,0.0,0.0,0.0,0.0,0.0,0.0,0.0,0.0,0.0,0.0,0.0,3.0803,3.0306,0.0,0.0,0.0,0.0,0.0,0.0,0.0,0.0,0.0,0.0,0.0,0.0,0.0,0.0,0.0,0.0,0.0,0.0,0.0,0.0,0.0,0.0,0.0,2.6244,2.6634,2.6519,2.7276,2.7962,0.0,0.0,0.0,0.0,0.0,0.0,0.0,3.1426,3.1499,3.1511,3.1511,3.1511,3.1511,3.1511,3.1511,3.1481,3.1041,0.0,0.0,0.0,0.0,0.0,0.0,0.0,0.0,0.0,0.0,0.0,0.0,0.0,0.0,0.0,0.0,0.0,0.0,0.0,0.0,0.0,0.0,0.0,0.0,0.0,0.0,0.0,0.0,0.0,0.0,0.0,0.0,0.0,0.0,0.0,0.0,0.0,0.0,0.0,0.0,0.0,0.0,0.0,0.0,0.0,0.0,0.0,0.0,0.0,0.0,0.0,0.0,0.0,0.0,0.0,0.0,0.0,0.0,0.0,0.0,0.0,0.0,0.0,3.338,3.338,3.3499,3.3499,3.3499,3.341,3.1749,3.1345,3.1854,3.2044,0.0,0.0,0.0,0.0,0.0,0.0,0.0,0.0,0.0,0.0,0.0,0.0,0.0,0.0,0.0,0.0,0.0,0.0,0.0,0.0,0.0,2.5949,2.6435,2.573,2.7332,2.8207,2.7838,0.0,0.0,0.0,0.0,0.0,3.0614,3.1183,3.1499,3.1511,3.1511,3.1511,3.1511,3.1511,3.1511,3.1511,3.145,3.139,3.139,0.0,0.0,0.0,0.0,0.0,0.0,0.0,0.0,0.0,0.0,0.0,0.0,0.0,0.0,0.0,0.0,0.0,0.0,0.0,0.0,0.0,0.0,0.0,0.0,0.0,0.0,0.0,0.0,0.0,0.0,0.0,0.0,0.0,0.0,0.0,0.0,0.0,0.0,0.0,0.0,0.0,2.9711,3.0313,0.0,0.0,0.0,0.0,0.0,0.0,0.0,0.0,0.0,0.0,0.0,0.0,0.0,3.3455,3.3365,3.2886,3.2931,3.3484,3.2916,3.2946,3.3499,3.3499,3.3499,3.3484,3.3215,0.0,3.3245,3.326,0.0,0.0,0.0,0.0,0.0,0.0,0.0,0.0,0.0,0.0,0.0,0.0,0.0,0.0,0.0,0.0,0.0,0.0,0.0,0.0,0.0,2.591,2.6345,2.5897,2.6953,2.7769,2.8025,2.8074,0.0,0.0,0.0,2.9891,3.118,3.1748,3.1977,3.1961,3.2034,3.1825,3.138,3.1467,3.1511,3.1511,3.1511,3.1511,3.1511,3.1597,0.0,0.0,0.0,0.0,0.0,0.0,0.0,0.0,0.0,0.0,0.0,0.0,0.0,0.0,0.0,0.0,0.0,0.0,0.0,0.0,0.0,0.0,0.0,0.0,0.0,0.0,0.0,0.0,0.0,0.0,0.0,0.0,0.0,0.0,0.0,0.0,0.0,0.0,0.0,3.0986,3.1465,3.2108,3.2452,3.2751,0.0,0.0,0.0,0.0,0.0,0.0,0.0,0.0,0.0,3.4622,3.4622,3.4622,3.4622,3.4711,3.4891,3.5175,3.5235,3.5415,3.5684,3.5684,3.5684,3.5669,3.5325,3.5175,3.5085,3.3963,3.3499,3.3499,0.0,0.0,0.0,0.0,3.3683,3.3683,0.0,0.0,0.0,0.0,0.0,0.0,0.0,0.0,0.0,0.0,0.0,0.0,2.5448,2.6103,2.647,2.6258,2.67,2.7333,2.8107,2.7577,2.7947,2.9644,2.945,2.9875,3.1231,3.1772,3.2188,3.2494,3.2482,3.2169,3.1545,3.187,3.1974,3.1945,3.2004,3.1824,3.1511,3.169,3.166,3.1511,0.0,0.0,0.0,0.0,0.0,0.0,0.0,0.0,0.0,0.0,0.0,0.0,0.0,0.0,0.0,0.0,0.0,0.0,0.0,0.0,0.0,0.0,0.0,0.0,0.0,0.0,0.0,0.0,0.0,0.0,0.0,0.0,0.0,0.0,0.0,0.0,0.0,3.2273,3.2766,3.3425,3.3499,3.3559,0.0,0.0,0.0,0.0,0.0,0.0,3.5474,3.5669,3.5759,3.5759,3.5908,3.5998,3.5998,3.6477,3.6716,3.6731,3.7195,3.7404,3.7404,3.7404,3.7404,3.7375,3.6926,3.6716,3.6582,3.4756,3.4008,3.4008,3.4008,3.4008,3.4008,3.4008,3.4008,3.4039,0.0,0.0,0.0,0.0,0.0,0.0,0.0,0.0,0.0,0.0,0.0,2.5871,2.5884,2.6526,2.6905,2.6676,2.685,2.7229,2.7798,2.7767,2.8023,2.8646,2.9381,2.9766,2.9731,3.0671,3.1753,3.296,3.2645,3.2422,3.2273,3.305,3.3303,3.3119,3.3319,3.2706,3.154,3.2168,3.2079,3.1555,3.2183,0.0,0.0,0.0,0.0,0.0,0.0,0.0,0.0,0.0,0.0,0.0,0.0,0.0,0.0,0.0,0.0,0.0,0.0,0.0,0.0,0.0,0.0,0.0,0.0,0.0,0.0,0.0,0.0,0.0,0.0,0.0,0.0,0.0,0.0,0.0,0.0,0.0,0.0,3.3425,3.3499,0.0,0.0,0.0,0.0,3.5444,3.5444,3.5474,3.5504,3.6088,3.6432,3.6432,3.7,3.7315,3.7315,3.7345,3.736,3.736,3.7404,3.7404,3.7404,3.7404,3.7404,3.7404,3.7375,3.736,3.7255,3.5953,3.54,3.54,3.54,3.54,3.54,3.54,3.54,3.54,0.0,0.0,0.0,0.0,0.0,0.0,0.0,0.0,2.5683,2.5683,2.6113,2.6388,2.6299,2.6612,2.6726,2.6589,2.6636,2.6815,2.7062,2.7348,2.7769,2.8448,2.9083,2.9686,3.0281,3.1859,3.2497,3.2166,3.3054,3.3157,3.2572,3.2979,3.3191,3.3192,3.3254,3.3093,3.2781,3.2572,3.2617,3.2781,3.2587,3.2348,0.0,0.0,0.0,0.0,0.0,0.0,0.0,0.0,0.0,0.0,0.0,0.0,0.0,0.0,0.0,0.0,0.0,0.0,0.0,0.0,0.0,0.0,0.0,0.0,0.0,0.0,0.0,0.0,0.0,0.0,0.0,0.0,0.0,0.0,0.0,0.0,0.0,3.4711,3.4786,0.0,3.5115,3.5744,3.6133,3.6133,3.6507,3.6731,3.6731,3.6956,3.727,3.7704,3.7928,3.8257,3.8691,3.9125,3.9334,3.9334,3.9768,3.9963,3.9963,3.9963,3.9963,3.9933,3.9514,3.9334,3.923,3.7898,3.7105,3.6731,3.6731,3.6731,3.6731,3.6731,3.6731,3.6731,0.0,0.0,0.0,0.0,0.0,0.0,0.0,0.0,2.6202,2.6101,2.643,2.6589,2.6499,2.6589,2.6589,2.6499,2.6499,2.6684,2.7154,2.7427,2.7968,2.8848,2.9214,2.9965,3.1146,3.1952,3.2222,3.1895,3.3031,3.3404,3.3059,3.3454,3.3652,3.3701,3.3765,3.386,3.3925,3.3332,3.3229,3.3469,3.326,3.2901,3.2512,0.0,0.0,0.0,0.0,0.0,0.0,0.0,0.0,0.0,0.0,0.0,0.0,0.0,0.0,0.0,0.0,0.0,0.0,0.0,0.0,0.0,0.0,0.0,0.0,0.0,0.0,0.0,0.0,0.0,0.0,0.0,0.0,0.0,0.0,3.4653,3.4758,3.5429,3.5504,3.5594,3.5818,3.6417,3.6896,3.7105,3.7509,3.7838,3.8078,3.8302,3.8616,3.905,3.9275,3.9619,4.0083,4.0516,4.0726,4.0726,4.1175,4.1422,4.1422,4.1422,4.1422,4.1392,4.092,4.0726,4.0666,3.9768,3.914,3.8661,3.7764,3.7404,3.7404,3.7404,3.7404,3.7404,0.0,0.0,0.0,0.0,0.0,0.0,0.0,2.6337,2.6499,2.6499,2.6499,2.6499,2.6499,2.6499,2.6499,2.6499,2.6512,2.6977,2.8009,2.8109,2.8624,2.9741,2.9792,3.0508,3.1974,3.0844,3.0909,3.2266,3.2633,3.313,3.3747,3.4508,3.4817,3.4698,3.485,3.4902,3.4857,3.4436,3.3971,3.3619,3.4218,3.3709,3.2647,0.0,0.0,0.0,0.0,0.0,0.0,0.0,0.0,0.0,0.0,0.0,0.0,0.0,0.0,0.0,0.0,0.0,0.0,0.0,0.0,0.0,0.0,0.0,0.0,0.0,0.0,0.0,0.0,0.0,0.0,0.0,0.0,0.0,3.5504,3.4951,3.4786,3.5459,3.5549,3.5818,3.6477,3.7105,3.7749,3.8407,3.8467,3.8781,3.9454,4.0083,4.0442,4.0457,4.107,4.1467,4.1474,4.1474,4.1474,4.1474,4.1474,4.1459,4.1482,4.1482,4.1482,4.1482,4.1482,4.1482,4.1482,4.1452,4.1452,4.1145,3.8556,3.7524,3.7524,3.7524,3.7524,3.7524,0.0,0.0,0.0,0.0,0.0,0.0,2.675,2.6807,2.6773,2.6521,2.6499,2.6499,2.6499,2.6499,2.6499,2.6499,2.6864,2.7216,2.7494,2.826,2.9038,2.9767,2.9792,2.9808,2.9765,3.0394,3.1,3.1577,3.2611,3.3471,3.4205,3.4428,3.4582,3.4698,3.4731,3.4817,3.4887,3.4907,3.4842,3.4713,3.4575,3.4294,3.3963,0.0,0.0,0.0,0.0,0.0,0.0,0.0,0.0,0.0,0.0,0.0,0.0,0.0,0.0,0.0,0.0,0.0,0.0,0.0,0.0,0.0,0.0,0.0,0.0,0.0,0.0,0.0,0.0,0.0,0.0,0.0,3.6282,3.6567,3.5639,3.5759,3.6031,3.6193,3.6611,3.715,3.7808,3.8482,3.914,3.9798,4.0292,4.0651,4.0831,4.101,4.1324,4.1841,4.2036,4.259,4.3494,4.3509,4.3509,4.3509,4.3509,4.3254,4.2791,4.2791,4.2791,4.2791,4.2791,4.2791,4.2761,4.2321,4.2126,4.2006,4.0793,4.0292,4.0292,4.0292,4.0292,4.0217,0.0,0.0,0.0,0.0,0.0,0.0,2.7056,2.6977,2.6794,2.6589,2.6521,2.6499,2.6499,2.6499,2.6499,2.6499,2.7002,2.7381,2.7607,2.8674,2.944,2.9779,2.9792,2.9641,2.9302,3.0339,3.0985,3.1128,3.2504,3.3451,3.3894,3.423,3.4448,3.4597,3.4664,3.4731,3.485,3.5082,3.518,3.5184,3.4991,3.4741,3.4533,3.4801,3.4322,3.3499,3.3499,3.3499,3.3455,3.3185,0.0,0.0,0.0,0.0,0.0,0.0,0.0,0.0,0.0,0.0,0.0,0.0,0.0,0.0,0.0,0.0,0.0,0.0,0.0,0.0,0.0,0.0,0.0,0.0,3.715,3.7569,3.6821,3.6806,3.6971,3.7255,3.7853,3.8512,3.917,3.9843,4.0516,4.1175,4.1818,4.2207,4.2207,4.2716,4.306,4.318,4.3489,4.3958,4.4721,4.4721,4.4721,4.4721,4.4721,4.4526,4.4152,4.4152,4.4152,4.4152,4.4152,4.4152,4.4107,4.3449,4.318,4.306,0.0,0.0,0.0,0.0,4.1422,4.1324,0.0,0.0,0.0,0.0,0.0,0.0,2.7133,2.696,2.6748,2.676,2.6624,2.6521,2.6521,2.6499,2.6499,2.6499,2.7052,2.7645,2.826,2.9239,2.9792,2.9792,2.9792,2.9792,2.9792,3.0444,3.082,3.0895,3.2349,3.3108,3.3213,3.4011,3.4414,3.4414,3.4597,3.4664,3.4731,3.5016,3.518,3.5213,3.5439,3.513,3.4698,3.5265,3.4756,3.3724,3.3724,3.3724,3.3619,3.2961,0.0,0.0,0.0,0.0,0.0,0.0,0.0,0.0,0.0,0.0,0.0,0.0,0.0,0.0,0.0,0.0,0.0,0.0,0.0,0.0,0.0,0.0,0.0,0.0,3.8182,3.8646,3.8721,3.8287,3.8153,3.8661,3.9334,4.0008,4.0666,4.1265,4.1848,4.247,4.3075,4.3409,4.3409,4.4616,0.0,0.0,0.0,4.5334,4.5409,4.5409,4.5409,4.5409,4.5409,4.5364,4.5289,4.5289,4.5289,4.5289,4.5289,4.5289,4.5244,4.4661,4.4421,4.4242,4.2342,4.1594,4.1594,4.1594,4.1594,4.1594,0.0,0.0,0.0,0.0,0.0,0.0,2.6569,2.6904,2.7134,2.6943,2.6773,2.6658,2.6658,2.6555,2.6499,2.6499,2.7369,2.8373,2.9402,2.9679,2.9792,2.9792,2.9792,2.9792,2.9792,2.9934,3.0305,3.0895,3.1856,3.2613,3.3213,3.4011,3.4414,3.4414,3.4448,3.4563,3.4698,3.4868,3.5034,3.5213,3.5439,3.5429,3.5325,3.5459,3.534,3.5115,3.5115,3.5115,3.5011,3.4322,3.4547,3.5026,3.4488,3.4666,0.0,0.0,0.0,0.0,0.0,0.0,0.0,0.0,0.0,0.0,0.0,0.0,0.0,0.0,0.0,0.0,0.0,0.0,0.0,3.9014,3.9589,4.0187,4.0726,4.1183,4.1287,4.0861,4.1422,4.2043,4.2662,4.2841,4.3015,4.3135,4.3748,4.4122,4.4122,4.487,4.5229,4.511,4.5229,4.5559,4.6112,4.6127,4.6127,4.6127,4.6127,0.0,4.5289,4.5289,4.5289,4.5289,4.5289,4.5289,4.5289,4.5155,4.511,4.496,4.3524,4.2916,4.2916,4.2916,4.2916,4.2916,0.0,0.0,0.0,0.0,0.0,0.0,2.6518,2.6726,2.6912,2.7108,2.6977,2.6794,2.6714,2.6658,2.6669,2.6889,2.7883,2.875,2.9327,2.9365,2.9365,2.9365,2.9365,2.9503,2.9779,3.0177,3.0507,3.0895,3.206,3.2826,3.3213,3.4011,3.4414,3.4414,3.4582,3.4616,3.4597,3.5016,3.5148,3.5082,3.5359,3.5439,3.5359,3.5472,3.5439,3.5314,3.5068,3.5141,3.5255,3.4711,3.4728,3.4936,3.4623,3.4711,3.4996,0.0,0.0,0.0,0.0,0.0,0.0,0.0,0.0,0.0,0.0,0.0,0.0,0.0,0.0,3.9005,3.9334,0.0,4.0502,4.0846,4.1175,4.1728,4.2701,4.2851,4.2851,4.2851,4.3135,4.3464,4.3753,4.3783,4.3783,4.3783,4.4436,4.4811,4.4811,4.5753,4.6157,4.5813,4.6127,4.6471,4.6815,4.6815,4.6815,4.6815,4.6815,4.6636,4.6307,4.6307,4.6307,4.6307,4.6307,4.6307,4.6277,4.5948,4.5603,4.5229,4.4571,4.4122,4.3738,4.3409,4.329,4.329,0.0,0.0,0.0,0.0,0.0,0.0,0.0,2.666,2.6818,2.7291,2.7302,2.7134,2.6863,2.676,2.6889,2.7417,2.8397,2.8925,2.8888,2.8925,2.8925,2.8888,2.9038,2.9341,2.9779,3.0658,3.1044,3.0895,3.2456,3.3178,3.3213,3.4011,3.4414,3.4414,3.4668,3.4702,3.4549,3.5129,3.5261,3.5019,3.5225,3.5287,3.5246,3.5242,3.5207,3.5106,3.4765,3.4897,3.5124,3.4665,3.4503,3.4488,3.4354,3.4414,3.4503,3.4503,3.4966,0.0,0.0,0.0,0.0,0.0,0.0,0.0,0.0,3.8108,3.8616,3.8751,3.932,4.0038,4.0831,4.1399,4.2013,4.2845,4.286,4.321,4.4526,4.4201,4.4112,4.4811,4.4781,4.4706,4.4706,4.4706,4.4646,4.4511,4.5125,4.5484,4.5484,4.6636,4.7055,4.6488,4.7025,4.7309,4.7309,4.7309,4.7309,4.7309,4.7309,4.7309,4.7309,4.7309,4.7309,4.7309,4.7309,4.7309,4.7264,4.6741,4.6187,4.5678,4.5544,4.517,4.4631,4.3958,4.3589,4.3484,0.0,0.0,0.0,0.0,0.0,0.0,0.0,0.0,2.7533,2.7478,2.7875,2.7908,2.7302,2.6918,2.7041,2.7921,2.871,2.91,2.8925,2.9063,2.91,2.8925,2.9571,2.9928,2.9818,3.122,3.1636,3.0895,3.2456,3.3178,3.3213,3.4011,3.4414,3.4414,3.4448,3.4601,3.4868,3.4935,3.5148,3.5379,3.4831,3.4966,3.5365,3.4641,3.4581,3.4953,3.5091,3.5154,3.5124,3.4665,3.4503,3.4414,3.3784,3.4008,3.4503,3.4503,3.4966,3.5504,3.5504,3.5923,3.6522,3.715,3.7749,3.8197,0.0,3.8811,3.9469,4.0053,4.0696,4.1534,4.2737,4.3021,4.3524,4.4766,4.4481,4.4571,4.5876,4.5995,4.619,4.689,4.6456,4.6055,4.6055,4.6055,4.5843,4.5229,4.5813,4.6217,4.6217,4.6905,4.7279,4.7189,4.7264,4.7309,4.7309,4.7309,4.7309,4.7309,4.7309,4.7309,4.7309,4.7309,4.7309,4.7309,4.7309,4.7309,4.7294,4.7234,4.7145,4.7025,4.6441,4.6115,4.6022,4.5319,4.4706,4.4212,0.0,0.0,0.0,0.0,0.0,0.0,0.0,0.0,0.0,2.7985,2.7943,2.7842,2.7875,2.7574,2.7653,2.8361,2.9019,2.9197,2.8805,2.9106,2.9132,2.875,2.9298,2.9932,3.0522,3.1177,3.1757,3.2241,3.2883,3.3451,3.3894,3.423,3.4414,3.4414,3.4601,3.475,3.4817,3.5129,3.5294,3.5297,3.5158,3.517,3.5297,3.4934,3.483,3.4902,3.5001,3.5034,0.0,3.4919,3.4737,3.4459,3.4189,3.4279,3.4503,3.4503,3.5235,3.6148,3.6522,3.709,3.7749,3.8407,3.8781,3.92,3.9963,4.0651,4.1324,4.1983,4.2626,4.3374,4.4302,4.4167,4.4347,4.5678,4.5319,4.5349,4.6711,4.6576,4.6576,4.7234,4.7055,4.6741,4.6324,4.6279,4.616,4.5918,4.6115,4.6444,4.6875,4.716,4.7309,4.7309,4.7309,4.7309,4.7309,4.7309,4.7309,4.7309,4.7309,4.7309,4.7309,4.7309,4.7309,4.7309,4.7309,4.7309,4.7309,4.7309,4.7309,4.7279,4.6995,4.689,4.6756,4.5693,4.5125,4.4885,0.0,0.0,0.0,0.0,0.0,0.0,0.0,0.0,0.0,0.0,2.8392,2.8306,2.8287,2.821,2.8252,2.8443,2.9509,2.9836,2.9048,2.9729,2.9856,2.9226,2.9678,3.0275,3.0955,3.1309,3.1896,3.2756,3.3111,3.3588,3.4205,3.4327,3.4414,3.4481,3.475,3.4817,3.4798,3.5228,3.5359,3.5264,3.5036,3.4959,3.4981,3.4738,3.467,3.475,3.4909,3.4968,3.5001,3.5213,3.4944,3.4503,3.4503,3.4503,3.4548,3.4728,3.5666,3.6858,3.7714,3.8267,3.8844,3.9926,4.0382,4.0801,4.1938,4.2566,4.309,4.3733,4.4107,4.4571,4.5424,4.5185,4.5244,4.6411,4.6172,4.6187,4.716,4.689,4.677,4.7249,4.7309,4.7115,4.6636,4.6591,4.6591,4.6591,4.6591,4.68,4.7279,4.7309,4.7309,4.7309,4.7309,4.7309,4.7309,4.7309,4.7309,4.7309,4.7309,4.7309,4.7309,4.7309,4.7309,4.7309,4.7309,4.7309,4.7309,4.7309,4.7309,4.7309,4.7309,4.7309,4.7189,4.6202,4.5738,4.5589,0.0,0.0,0.0,0.0,0.0,0.0,0.0,0.0,0.0,0.0,0.0,0.0,0.0,2.8745,2.8735,2.7901,3.0265,3.124,2.9862,3.1172,3.1638,3.0764,3.1312,3.1293,3.0623,3.1838,3.2206,3.1641,3.2904,3.3583,3.3732,3.4176,3.4481,3.4698,3.4698,3.4798,3.4902,3.5115,3.5326,3.5385,3.4083,3.3948,3.4442,3.3597,3.3669,3.4307,3.4943,3.518,3.5213,3.5439,3.504,3.4503,3.4503,3.4503,3.4638,3.528,3.622,3.7411,3.8934,3.922,3.9609,4.1788,4.2815,4.3434,4.4077,4.4242,4.4436,4.5095,4.4751,4.4721,4.601,4.6234,4.6486,4.7174,4.7249,4.7249,4.7294,4.7294,4.7279,4.7309,4.7309,4.7294,4.7279,4.7279,4.7279,4.7279,4.7279,4.7279,4.7309,4.7309,4.7309,4.7309,4.7309,4.7309,4.7309,4.7309,4.7309,4.7309,4.7309,4.7309,4.7309,4.7309,4.7309,4.7309,4.7309,4.7309,4.7309,4.7309,4.7309,4.7309,4.7309,4.7309,4.7309,4.7249,4.6845,4.6249,0.0,0.0,0.0,0.0,0.0,0.0,0.0,0.0,0.0,0.0,0.0,0.0,0.0,0.0,0.0,0.0,3.0367,3.0884,3.0859,3.1622,3.2013,3.1813,3.2298,3.244,3.2216,3.253,3.264,3.2533,3.2829,3.3074,3.3233,3.3404,3.3507,3.3571,3.3684,3.3733,3.3797,3.4001,3.4095,3.4173,3.4189,3.4309,3.4533,3.4663,3.4869,3.5078,0.0,3.5326,3.5213,3.5294,3.5242,3.516,3.516,3.5459,3.6118,3.7644,3.8336,3.8803,3.963,4.0746,4.1763,4.2118,4.2877,4.3801,4.4728,4.4508,4.4307,4.5113,4.5125,4.511,4.5559,4.6022,4.6354,4.6621,4.7025,4.7309,4.7309,4.7309,4.7309,4.7309,4.7309,4.7309,4.7309,4.7309,4.7309,4.7309,4.7309,4.7309,4.7309,4.7309,4.7309,4.7309,4.7309,4.7309,4.7309,4.7309,4.7309,4.7309,4.7309,4.7309,4.7309,4.7309,4.7309,4.7309,4.7309,4.7309,4.7309,4.7309,4.7309,4.7309,4.7309,4.7309,4.7309,4.7309,4.7174,4.698,0.0,0.0,0.0,0.0,0.0,0.0,0.0,0.0,0.0,0.0,0.0,0.0,0.0,0.0,0.0,0.0,0.0,3.1249,3.1411,3.2384,3.2896,3.2737,3.3195,3.3336,3.3066,3.2941,3.291,3.3004,3.3098,3.3248,3.3437,3.361,3.3728,3.3792,3.3888,3.3904,3.3936,3.414,3.4218,3.4233,3.4397,3.4503,3.4563,3.4966,3.513,0.0,3.5415,3.5439,3.5326,3.5326,3.5359,3.5436,3.5675,3.6511,3.7709,3.9014,3.948,3.9787,4.0941,4.1804,4.2602,4.3312,4.3971,4.464,4.5364,4.5141,4.4846,4.5218,4.5263,4.5206,4.5304,4.5663,4.6037,4.6234,4.6681,4.695,4.695,4.716,4.7219,4.698,4.716,4.7309,4.7309,4.7309,4.7309,4.7309,4.7309,4.7309,4.7309,4.7309,4.7309,4.7309,4.7309,4.7309,4.7309,4.7309,4.7309,4.7309,4.7309,4.7309,4.7309,4.7309,4.7309,4.7309,4.7309,4.7309,4.7309,4.7309,4.7309,4.7309,4.7309,4.7309,4.7309,4.7309,4.7309,4.7309,0.0,0.0,0.0,0.0,0.0,0.0,0.0,0.0,0.0,0.0,0.0,0.0,0.0,0.0,0.0,0.0,0.0,0.0,3.1591,3.3339,3.4144,3.3529,3.3956,3.3891,3.3238,3.3114,3.3035,3.3035,3.3655,3.4046,3.4159,3.4635,3.493,3.5109,3.5109,3.5109,3.5124,3.5335,3.54,3.5355,3.4726,3.4503,3.4503,3.4548,3.4563,3.4638,3.5265,3.5504,3.5504,3.5504,3.5389,3.5377,3.6,3.753,3.9141,3.9337,3.9654,4.0421,4.2619,4.2435,4.2294,4.52,4.5953,4.5997,4.601,4.5951,4.5798,4.5337,4.5063,4.4965,4.5158,4.5229,4.5469,4.6115,4.6264,4.6294,4.6324,4.692,4.707,4.6456,4.692,4.7309,4.7309,4.7309,4.7309,4.7309,4.7309,4.7309,4.7309,4.7309,4.7309,4.7309,4.7309,4.7309,4.7309,4.7309,4.7309,4.7309,4.7309,4.7309,4.7309,4.7309,4.7309,4.7309,4.7309,4.7309,4.7309,4.7309,4.7309,4.7309,4.7309,4.7309,4.7309,4.7309,4.7309,4.7309,0.0,0.0,0.0,0.0,0.0,0.0,0.0,0.0,0.0,0.0,0.0,0.0,0.0,0.0,0.0,0.0,0.0,0.0,3.2228,3.2736,3.3155,3.3484,3.4082,3.4095,3.3438,3.373,3.3713,3.3376,3.3431,3.3551,3.3677,3.3794,3.3868,3.3931,3.3931,3.3931,3.3946,3.3977,3.4008,3.4038,3.4384,3.4503,3.4563,3.504,3.525,3.5265,3.5444,3.5504,3.5504,3.5504,3.5801,3.6153,3.6168,3.753,3.9104,3.9141,4.052,4.1995,4.2085,4.314,4.4366,4.4912,4.5477,4.5918,4.5999,4.5452,4.4862,4.4433,4.402,4.3758,4.3798,4.4227,4.4781,4.5454,4.5992,4.6444,4.698,4.7189,4.7249,4.707,4.7204,4.7309,4.7309,4.7309,4.7309,4.7309,4.7309,4.7309,4.7309,4.7309,4.7309,4.7309,4.7309,4.7309,4.7309,4.7309,4.7309,4.7309,4.7309,4.7309,4.7309,4.7309,4.7309,4.7309,4.7309,4.7309,4.7309,4.7309,4.7309,4.7309,4.7309,4.7309,4.7309,4.7309,4.7309,4.7309,0.0,0.0,0.0,0.0,0.0,0.0,0.0,0.0,0.0,0.0,0.0,0.0,0.0,0.0,0.0,0.0,0.0,0.0,0.0,3.2333,3.2677,3.3051,3.3694,3.3842,3.3376,3.4003,3.4152,3.3825,3.4107,3.4288,3.4382,3.4382,3.4382,3.4382,3.4382,3.4382,3.4382,3.4382,3.4382,0.0,0.0,3.4921,3.4966,3.5355,3.5504,3.5504,3.5504,3.5504,3.5504,3.5504,3.5839,3.6238,3.6364,3.7783,3.9528,4.0233,4.1296,4.2393,4.3002,4.3495,4.4047,4.4858,4.5156,4.5245,4.5524,4.4847,4.4098,4.3749,4.3424,4.321,4.329,4.3604,4.4092,4.4751,4.5424,4.5992,4.6367,4.6935,4.7189,4.692,4.713,4.7309,4.7309,4.7563,4.7623,4.7324,4.7309,4.7309,4.7309,4.7309,4.7309,4.7309,4.7309,4.7309,4.7309,4.7309,4.7309,4.7309,4.7309,4.7309,4.7309,4.7309,4.7309,4.7309,4.7309,4.7309,4.7309,4.7309,4.7309,4.7309,4.7309,4.7309,4.7309,4.7309,4.7309,4.7309,0.0,0.0,0.0,0.0,0.0,0.0,0.0,0.0,0.0,0.0,0.0,0.0,0.0,0.0,0.0,0.0,0.0,0.0,0.0,0.0,3.2377,3.2377,3.3021,3.3304,3.3089,3.3931,3.4274,3.4101,3.4872,3.5235,3.5235,3.5235,3.528,3.537,3.537,3.5429,3.5504,3.5504,3.5504,3.5504,3.5504,3.5504,3.5504,0.0,3.5504,3.5504,3.5504,3.5504,3.5504,3.5472,3.5692,3.6045,3.6447,3.8002,3.9971,4.1294,4.1755,4.2231,4.4175,4.3581,4.2955,4.5107,4.4977,4.4479,4.4902,4.4341,4.3634,4.3344,4.3155,4.3076,4.325,4.329,4.3514,4.4212,4.487,4.5334,4.5424,4.6516,4.71,4.6516,4.6965,4.7339,4.7429,4.7878,4.7952,4.7474,4.7429,4.7429,4.7429,4.7519,4.7519,4.7444,4.7429,4.7399,4.7309,4.7309,4.7309,4.7309,4.7309,4.7309,4.7309,4.7309,4.7309,4.7309,4.7309,4.7309,4.7309,4.7309,4.7309,4.7309,4.7309,4.7309,4.7309,4.7309,4.7309,4.7309,0.0,0.0,0.0,0.0,0.0,0.0,0.0,0.0,0.0,0.0,2.895,2.9442,0.0,0.0,0.0,0.0,0.0,0.0,0.0,0.0,0.0,3.1675,3.2303,3.2662,3.2617,3.332,3.3664,3.3633,3.3784,3.3844,3.3844,3.3844,3.4128,3.4651,3.4651,3.4966,3.5504,3.5504,3.5504,3.5504,3.5504,3.5504,3.5504,3.5504,0.0,0.0,3.5504,3.5504,3.5472,3.5326,3.5758,3.6391,3.6293,3.7623,3.9239,3.935,4.0846,4.2603,4.2968,4.362,4.4474,4.563,4.5206,4.4634,4.4929,4.4424,4.3772,4.3169,4.3155,4.325,4.329,4.329,4.3514,4.4212,4.487,4.5484,4.6067,4.6815,4.7264,4.7145,4.7234,4.7519,4.8057,4.7728,4.7653,4.8072,4.8117,4.8117,4.8117,4.8626,4.8686,4.8132,4.8117,4.7863,4.7309,4.7309,4.7309,4.7309,4.7309,4.7309,4.7309,4.7309,4.7309,4.7309,4.7309,4.7309,4.7309,4.7309,4.7309,4.7309,4.7309,4.7309,4.7309,4.7309,4.7309,4.7309,0.0,0.0,0.0,0.0,0.0,0.0,0.0,2.8348,2.8323,2.8387,2.8624,2.896,2.9442,3.0211,3.0797,0.0,0.0,0.0,0.0,0.0,0.0,0.0,0.0,0.0,3.1974,3.2647,3.2976,3.2976,0.0,3.3499,3.3499,3.3499,3.3664,3.3994,3.3994,3.4337,3.4966,3.4966,3.5175,3.5504,3.5504,3.5504,3.5504,0.0,0.0,0.0,0.0,3.5504,3.5504,3.5392,3.5633,3.5995,3.6041,3.7682,3.9572,3.9387,4.0997,4.2824,4.2718,4.316,4.382,4.461,4.4187,4.3747,4.435,0.0,0.0,4.2798,4.2742,4.2821,4.2821,4.2821,4.3045,4.3703,4.4646,4.5409,4.5738,4.6666,4.7309,4.7309,4.7309,4.7563,4.8222,4.7997,4.8087,4.8745,4.9105,4.9,4.8327,4.8955,4.9164,4.885,4.8461,4.8132,4.7818,4.7474,4.7309,4.7309,4.7309,4.7309,4.7309,4.7309,4.7309,4.7309,4.7309,4.7309,4.7309,4.7309,4.7309,4.7309,4.7309,4.7309,4.7309,4.7309,4.7309,4.7309,0.0,0.0,0.0,0.0,0.0,0.0,0.0,2.8411,2.8411,2.8411,2.8411,2.8547,2.897,2.9826,3.047,0.0,0.0,0.0,0.0,0.0,0.0,0.0,0.0,0.0,0.0,0.0,0.0,3.2273,3.2826,0.0,0.0,0.0,0.0,0.0,3.329,3.3649,3.4294,3.4294,3.4666,0.0,0.0,3.537,0.0,0.0,0.0,0.0,0.0,0.0,3.5504,3.5504,3.5609,3.5738,3.5963,3.7733,3.978,4.0001,4.1314,4.2679,4.2721,4.2602,4.2628,4.3412,4.3116,4.286,4.3634,4.3358,4.2758,4.2462,4.2396,4.2396,4.2396,4.2515,4.2746,4.32,4.4436,4.5289,4.5289,4.6456,4.7309,4.7309,4.7309,4.7623,4.8416,4.8237,4.8461,4.9404,4.9942,4.9807,4.897,4.9404,4.9613,4.9479,4.8835,4.8431,4.8282,4.7638,4.7309,4.7309,4.7309,4.7309,4.7309,4.7309,4.7309,4.7309,4.7309,4.7309,4.7309,4.7309,4.7309,4.7309,4.7309,4.7309,4.7309,4.7309,4.7309,4.7309,0.0,0.0,0.0,0.0,0.0,0.0,0.0,2.8411,2.8411,2.8411,2.8411,2.8427,2.8464,2.8985,2.9711,0.0,0.0,0.0,0.0,0.0,0.0,0.0,0.0,0.0,0.0,0.0,0.0,3.1585,3.1645,0.0,0.0,0.0,0.0,0.0,0.0,3.2961,3.3589,3.3589,0.0,0.0,0.0,0.0,0.0,0.0,0.0,0.0,0.0,3.5504,3.5504,3.5504,3.5893,3.6402,3.6428,3.7415,3.8859,4.0508,4.1239,4.178,4.2709,4.2252,4.1825,4.3026,4.2901,4.2587,4.323,0.0,4.2432,4.241,4.2396,4.2396,4.2396,4.2851,4.323,4.329,4.4436,4.5289,4.5289,4.6456,4.7309,4.7309,0.0,4.7803,4.9105,4.8102,4.8162,4.9971,5.0166,5.0405,5.093,5.1005,5.0765,5.0121,4.9523,4.894,4.8297,4.7638,4.7309,4.7309,4.7309,4.7309,4.7309,4.7309,4.7309,4.7309,4.7309,4.7309,4.7309,4.7309,4.7309,4.7309,4.7309,4.7309,4.7309,4.7309,4.7309,4.7309,0.0,0.0,0.0,0.0,0.0,0.0,2.8396,2.8411,2.8411,2.8411,2.8411,2.8411,2.8411,2.8593,2.9159,3.0304,0.0,0.0,0.0,0.0,0.0,0.0,0.0,0.0,0.0,0.0,3.1511,3.1511,3.1511,0.0,0.0,0.0,0.0,0.0,0.0,3.2258,3.2901,3.2901,0.0,0.0,0.0,0.0,0.0,0.0,0.0,0.0,0.0,0.0,3.5504,3.5504,3.5684,3.6028,3.6806,3.7659,0.0,3.9111,4.0293,4.1361,4.129,4.1307,4.1556,4.2335,4.2473,4.2432,4.2514,0.0,4.2171,4.1339,4.1527,4.1811,4.1811,4.2312,4.288,4.323,4.4107,4.484,4.5229,4.6112,4.686,4.7249,4.7309,4.7818,4.9179,4.8431,4.8551,5.0076,5.0554,5.0945,5.1214,5.1214,5.1094,5.0794,4.9808,4.9179,4.8925,4.7833,4.7309,4.7309,4.7309,4.7309,4.7309,4.7309,4.7309,4.7309,4.7309,4.7309,4.7309,4.7309,4.7309,4.7309,4.7309,4.7309,4.7309,4.7309,4.7309,4.7309,0.0,0.0,0.0,0.0,0.0,2.8549,2.842,2.8411,2.8411,2.8411,2.8411,2.8411,2.8411,2.8411,2.8808,2.9884,3.0323,0.0,0.0,0.0,0.0,0.0,0.0,0.0,0.0,0.0,3.1511,3.1511,3.1511,3.1511,0.0,0.0,3.1511,3.1511,0.0,0.0,0.0,0.0,0.0,0.0,0.0,0.0,0.0,0.0,0.0,0.0,0.0,0.0,0.0,0.0,0.0,0.0,0.0,0.0,0.0,0.0,3.9883,4.098,4.0368,4.048,4.0868,4.1164,4.1509,4.1735,4.1567,0.0,4.1557,4.0591,4.092,4.1422,4.1422,4.2073,4.2806,4.3215,4.3843,4.4541,4.52,4.5888,4.6576,4.7234,4.7309,4.7818,4.9179,4.9194,4.9464,5.0136,5.0808,5.1214,5.1214,5.1214,5.1214,5.1214,5.0137,4.9464,4.9314,4.8162,4.7504,4.7309,4.7309,4.7309,4.7309,4.7309,4.7309,4.7309,4.7309,4.7309,4.7309,4.7309,4.7309,4.7309,4.7309,4.7309,4.7309,4.7309,4.7309,4.7309,0.0,0.0,0.0,0.0,0.0,0.0,2.842,2.8411,2.8411,2.8411,2.8411,2.8411,2.8411,2.8411,2.8673,2.9341,2.9899,0.0,0.0,0.0,0.0,0.0,0.0,0.0,0.0,0.0,3.1511,3.1511,3.1511,3.1511,3.1511,3.1511,3.1511,3.1511,0.0,0.0,0.0,0.0,0.0,0.0,0.0,0.0,0.0,0.0,0.0,0.0,0.0,0.0,0.0,0.0,0.0,0.0,0.0,0.0,0.0,0.0,4.0397,4.0412,4.0397,3.9933,3.9403,3.9418,3.9948,4.0427,4.0427,4.0427,4.0412,4.0397,4.092,4.1422,4.1422,4.2447,4.329,4.329,4.3843,4.4541,4.52,4.5888,4.6576,4.7234,4.7309,4.7818,4.9179,5.0436,5.0883,5.024,5.0808,5.1214,5.1214,5.1214,5.1214,5.1214,5.0524,4.9912,4.9329,4.8655,4.7952,4.7309,4.7309,4.7309,4.7309,4.7309,4.7309,4.7309,4.7309,4.7309,4.7309,4.7309,4.7309,4.7309,4.7309,4.7309,4.7309,4.7309,4.7309,4.7309,0.0,0.0,0.0,0.0,0.0,0.0,0.0,2.8411,2.8517,2.885,2.8597,2.8517,2.885,2.8597,2.8618,2.9163,2.9795,0.0,0.0,0.0,0.0,0.0,0.0,0.0,0.0,0.0,3.1511,3.1511,3.1511,3.1511,3.1511,3.1511,3.1511,3.1511,3.1511,3.1511,0.0,0.0,0.0,0.0,0.0,0.0,3.5504,0.0,0.0,0.0,0.0,0.0,0.0,0.0,0.0,0.0,0.0,0.0,0.0,3.9469,3.9723,3.9723,3.9723,3.9574,3.9493,3.9978,4.0247,4.0397,4.0397,4.0397,4.0397,4.0397,4.092,4.1557,4.2006,4.2761,4.329,4.329,4.3843,4.4541,4.52,4.5888,4.6576,4.7234,4.8102,4.8805,4.9269,5.0451,5.1124,5.0883,5.1094,5.1214,5.1214,5.1214,5.1214,5.1214,5.0539,4.9927,4.9329,4.8626,4.7952,4.7309,4.7309,4.7309,4.7309,4.7309,4.7309,4.7309,4.7309,4.7309,4.7309,4.7309,4.7309,4.7309,4.7309,4.7309,4.7309,4.7309,4.7381,4.751,0.0,0.0,0.0,0.0,0.0,0.0,0.0,2.842,2.8517,2.8795,2.8573,2.8517,2.8803,2.8573,2.8597,2.9067,2.9822,0.0,0.0,0.0,0.0,0.0,0.0,0.0,3.1511,3.1511,3.1511,3.1511,3.1511,3.1511,3.1511,3.1511,3.1511,3.1511,3.1511,3.1511,0.0,0.0,0.0,0.0,0.0,0.0,3.5504,0.0,0.0,0.0,0.0,0.0,0.0,0.0,0.0,0.0,0.0,0.0,0.0,0.0,3.9388,3.9328,3.9095,3.923,3.9454,3.9604,3.9843,0.0,4.0023,4.0023,4.0023,4.0023,4.0756,4.1542,4.1961,4.2731,4.329,4.329,4.3843,4.4541,4.52,4.5888,4.6576,4.7234,4.8461,4.9314,4.9314,5.0451,5.1214,5.1214,5.1214,5.1214,5.1214,5.1214,5.1214,5.1214,5.0779,5.0182,4.9329,4.891,4.8192,4.7309,4.7309,4.7309,4.7309,4.7309,4.7309,4.7309,4.7309,4.7309,0.0,4.7309,4.7309,4.7309,4.7381,4.7424,4.7424,4.751,4.7624,4.7709,0.0,0.0,0.0,0.0,0.0,0.0,0.0,2.8468,2.8396,2.8444,2.842,2.8396,2.8444,2.8444,2.8621,2.9067,0.0,0.0,0.0,0.0,0.0,0.0,0.0,0.0,3.1511,3.1511,3.1511,3.1511,3.1511,3.1511,3.1511,3.1524,3.1539,3.1511,3.1524,3.1539,3.1511,3.1511,3.2258,3.3499,3.3499,3.4292,0.0,0.0,0.0,0.0,0.0,0.0,0.0,0.0,0.0,0.0,0.0,0.0,0.0,0.0,0.0,0.0,0.0,3.8931,3.9275,3.8616,3.8945,3.9388,3.9388,3.9388,0.0,3.9448,4.0502,4.1384,4.1482,4.2476,4.329,4.329,4.3888,4.4601,4.5214,4.5933,4.6621,4.7234,4.8461,4.9314,4.9314,5.0451,5.1214,5.1214,5.1214,5.1214,5.1214,5.1214,5.1214,5.1214,5.1214,5.0616,4.9389,4.9329,4.8626,4.7369,4.7324,4.7309,4.7309,4.7309,4.7309,4.7309,4.7309,4.7309,4.7309,4.7309,4.7309,4.7352,4.751,4.7639,4.7681,4.7922,4.8007,4.8007,0.0,0.0,0.0,0.0,0.0,0.0,0.0,0.0,0.0,0.0,2.8621,2.8541,2.8897,2.8943,2.8974,0.0,0.0,0.0,0.0,0.0,0.0,0.0,0.0,0.0,3.1511,3.1511,3.1511,3.1511,3.1511,3.1511,3.1511,3.1966,3.1938,3.1524,3.1994,3.1938,3.1511,3.1511,3.2258,3.3499,3.3499,3.4292,0.0,0.0,0.0,0.0,3.5504,3.5504,0.0,0.0,0.0,0.0,0.0,0.0,0.0,0.0,3.9388,3.9394,3.923,0.0,3.9343,3.9215,3.9269,3.9388,0.0,3.9388,3.9574,4.0068,4.0816,4.1572,4.2081,4.2791,4.329,4.329,4.4302,4.5125,4.5274,4.6322,4.713,4.7294,4.8461,4.9314,4.9314,5.0451,5.1214,5.1214,5.1214,5.1214,5.1214,5.1214,5.1214,5.1214,5.1214,5.0825,5.0017,4.9508,4.885,4.8057,4.7549,4.7309,4.7309,4.7309,4.7309,4.7309,4.7309,4.7309,4.7309,4.7309,4.7381,4.7553,4.7581,4.7709,4.7922,4.7964,4.8091,4.8202,0.0,0.0,0.0,0.0,0.0,0.0,0.0,0.0,0.0,0.0,0.0,0.0,0.0,0.0,0.0,0.0,0.0,0.0,0.0,0.0,0.0,0.0,0.0,3.2504,3.1524,3.1511,3.1511,3.1511,3.1511,3.164,3.191,3.1966,3.1966,3.191,3.1966,3.1796,3.1525,3.1824,3.2572,3.3529,3.3829,0.0,0.0,0.0,0.0,0.0,3.5504,3.5504,0.0,3.5504,3.6357,3.7404,0.0,0.0,0.0,0.0,3.9388,3.9388,3.9388,3.9388,3.9388,3.9388,3.9388,3.9388,3.9388,3.9388,3.9514,3.9873,4.0711,4.1527,4.1886,4.2701,4.3394,4.3693,4.4631,4.5514,4.6127,4.6845,4.7414,4.7713,4.8656,4.9434,4.9688,5.0616,5.1214,5.1214,5.1214,5.1214,5.1214,5.1214,5.1214,5.1214,5.1214,5.09,5.0196,4.9583,4.8985,4.8282,4.7623,4.7309,4.7309,4.7309,4.7309,4.7309,4.7309,4.7337,4.7424,4.7424,4.7596,4.7794,4.788,4.8007,4.8175,4.8244,4.8328,4.8412,0.0,0.0,0.0,0.0,0.0,0.0,0.0,0.0,0.0,0.0,0.0,0.0,0.0,0.0,0.0,0.0,0.0,0.0,0.0,0.0,0.0,0.0,3.2868,3.2718,3.1568,3.1511,3.1511,3.1511,3.1582,3.1853,3.2259,3.1938,3.1979,3.237,3.1888,3.1645,3.1705,3.2377,3.3036,3.3694,3.4279,0.0,0.0,0.0,0.0,0.0,0.0,0.0,0.0,3.5624,3.6432,3.7419,3.7524,0.0,0.0,0.0,0.0,0.0,3.9388,3.9388,3.9388,3.9388,3.9388,3.9388,3.9388,3.9499,3.9574,3.9574,4.0621,4.1572,4.1572,4.2521,4.3514,4.4212,4.496,4.5888,4.713,4.7309,4.7549,4.8207,4.891,4.9523,5.0121,5.0794,5.1214,5.1214,5.1214,5.1214,5.1214,5.1214,5.1214,5.1214,5.1214,5.0945,5.0345,4.9643,4.903,4.8416,4.7668,4.7309,4.7309,4.7309,4.7309,4.7352,4.7352,4.7467,4.7666,4.7666,4.7794,4.8049,4.8244,4.8328,4.837,4.8537,4.862,4.862,0.0,0.0,0.0,0.0,0.0,0.0,0.0,0.0,0.0,0.0,0.0,0.0,0.0,0.0,0.0,0.0,0.0,0.0,0.0,0.0,0.0,3.2722,3.2722,3.241,3.1756,3.1597,3.1511,3.1511,3.2023,3.2051,3.1668,3.2516,3.2734,3.2385,3.2356,3.2333,3.2378,3.3066,3.3724,3.4369,3.4474,0.0,0.0,0.0,0.0,0.0,0.0,0.0,0.0,3.6148,3.6821,3.7509,3.8063,0.0,0.0,0.0,0.0,0.0,3.9388,3.9388,3.9388,3.9388,3.9388,3.9388,3.9388,3.9843,4.0247,4.0247,4.1294,4.2246,4.2246,4.2821,4.3514,4.4212,4.5364,4.6441,4.7189,4.7309,4.7549,4.8207,4.891,4.9523,5.0121,5.0794,5.1214,5.1214,5.1214,5.1214,5.1214,5.1214,5.1214,5.1214,5.1214,5.1169,5.1065,4.9868,4.9269,4.9149,4.7878,4.7309,4.7309,4.7309,4.7381,4.7538,4.7538,4.7709,4.7922,4.7922,4.8049,4.826,4.8301,4.8412,4.8578,4.8578,4.862,4.862,0.0,0.0,0.0,0.0,0.0,0.0,0.0,0.0,0.0,0.0,0.0,0.0,0.0,0.0,0.0,0.0,0.0,0.0,0.0,0.0,3.3469,3.2933,3.2722,3.2437,3.215,3.1697,3.1781,3.2407,3.2092,3.2092,3.2449,3.3379,3.3509,3.303,3.3362,3.3336,3.308,3.3739,3.4234,3.4533,0.0,0.0,0.0,0.0,0.0,0.0,0.0,0.0,0.0,0.0,3.6896,3.7524,3.8182,0.0,0.0,0.0,0.0,0.0,3.9388,3.9388,3.9388,3.9388,3.9388,3.9478,3.9873,4.0187,4.0502,4.0861,4.1737,4.2396,4.2396,4.318,4.4197,4.5188,4.6217,4.6965,4.7264,4.7309,4.7549,4.8207,4.891,4.9523,5.0121,5.0794,5.1214,5.1214,5.1214,5.1214,5.1214,5.1214,5.1214,5.1214,5.1214,5.105,5.0644,4.9748,4.9314,4.9299,4.7938,4.7337,4.7467,4.7467,4.7596,4.7794,4.7794,4.7964,4.816,4.816,4.8286,4.8453,4.8453,4.8537,4.862,4.862,4.8893,4.9284,0.0,0.0,0.0,0.0,0.0,0.0,0.0,0.0,0.0,0.0,0.0,0.0,0.0,0.0,0.0,0.0,0.0,0.0,0.0,0.0,3.3556,3.3013,3.2641,3.2398,3.2274,3.2007,3.2333,3.3264,3.2502,3.2662,3.3688,3.3995,3.3977,3.3713,3.4196,3.4167,3.3769,3.4442,3.4711,3.4788,0.0,0.0,0.0,0.0,0.0,0.0,0.0,0.0,0.0,0.0,0.0,0.0,0.0,0.0,0.0,3.9388,3.9388,3.9388,3.9388,3.9388,3.9388,3.9388,3.9529,3.9783,4.0292,4.0636,4.0995,4.1542,4.2171,4.268,4.283,4.3898,4.5125,4.6115,4.6875,4.7309,4.7309,4.7309,4.7549,4.8207,4.891,4.9523,5.0121,5.0794,5.1214,5.1214,5.1214,5.1214,5.1214,5.1214,5.1214,5.1214,5.1065,5.0704,5.0196,4.9449,4.909,4.906,4.7892,4.7467,4.7581,4.7681,4.7837,4.8049,4.8049,4.816,4.837,4.837,4.8453,4.862,4.8811,4.9,4.9188,4.9188,4.963,5.0167,0.0,0.0,0.0,0.0,0.0,0.0,0.0,0.0,0.0,0.0,0.0,0.0,0.0,0.0,0.0,0.0,0.0,0.0,0.0,0.0,3.3556,3.3013,3.2398,3.1968,3.1841,3.2668,3.3208,3.3478,3.3826,3.4416,3.5126,3.4071,3.3834,3.434,3.4439,3.446,3.4474,3.513,3.5429,3.5429,3.5489,0.0,0.0,0.0,0.0,0.0,0.0,0.0,0.0,0.0,0.0,0.0,0.0,0.0,3.9388,3.9388,3.9388,3.9388,3.9388,3.9388,3.9388,3.9388,3.9873,4.0337,4.0382,4.1339,4.2276,4.2321,4.2806,4.3409,4.4062,4.5274,4.6217,4.6264,4.6875,4.7309,4.7309,4.7309,4.7549,4.8207,4.891,4.9523,5.0121,5.0794,5.1214,5.1214,5.1214,5.1214,5.1214,5.1214,5.1214,5.1214,5.0584,5.024,5.0196,4.8985,4.8356,4.8356,4.7841,4.7596,4.7639,4.7837,4.8091,4.8286,4.8286,4.837,4.8578,4.8578,4.8578,4.8687,4.9486,5.0245,5.0919,5.0919,5.0957,5.0995,0.0,0.0,0.0,0.0,0.0,0.0,0.0,0.0,0.0,0.0,0.0,0.0,0.0,0.0,0.0,0.0,0.0,0.0,0.0,3.3505,3.3145,3.252,3.2492,3.2638,3.2972,3.3348,3.3799,3.443,3.4738,3.4873,3.4819,3.5133,3.5215,3.509,3.5489,3.5453,3.513,3.5385,3.5504,3.5504,3.5504,3.5504,0.0,0.0,0.0,0.0,0.0,0.0,0.0,0.0,3.7689,3.8182,3.9125,3.9388,3.9388,3.9388,3.9388,3.9388,3.9388,3.9388,3.9514,3.9933,4.0531,4.101,4.101,4.1752,4.2515,4.288,4.3494,4.4231,4.5323,4.5935,4.6456,4.686,4.7145,4.7309,4.7309,4.7309,4.7399,4.7653,4.8252,4.876,4.9,4.9613,5.0002,5.0002,5.0002,5.0002,5.0002,5.0002,5.0002,5.0002,4.9763,4.9434,4.903,4.8654,4.8291,4.7871,4.7658,4.7752,4.8049,4.8133,4.8604,4.9269,4.9269,4.9614,5.0151,5.0151,5.0151,5.019,5.0499,5.0843,5.1107,5.1107,5.1422,5.1842,0.0,0.0,0.0,0.0,0.0,0.0,0.0,0.0,0.0,0.0,0.0,0.0,0.0,0.0,0.0,0.0,0.0,0.0,3.371,3.3391,3.2922,3.2287,3.2656,3.3158,3.3805,3.4107,3.4644,3.5449,3.5796,3.5866,3.5722,3.6188,3.6273,3.6085,3.6116,3.5878,3.5504,3.5504,3.5504,3.5504,3.5504,3.5504,0.0,0.0,0.0,0.0,0.0,0.0,0.0,0.0,3.8018,3.8512,3.92,3.9388,3.9388,3.9388,3.9388,3.9388,3.9388,3.9574,3.9843,4.0292,4.1055,4.1737,4.1737,4.2396,4.3105,4.3514,4.4347,4.5188,4.6115,4.6444,4.6785,4.7234,4.7309,4.7309,4.7309,4.7309,4.7309,4.7309,4.7878,4.8282,4.8282,4.8925,4.9314,4.9314,4.9314,4.9314,4.9314,4.9314,4.9314,4.9314,4.9105,4.8775,4.8414,4.832,4.8119,4.7837,4.7837,4.8007,4.8328,4.8646,4.9203,4.9908,5.0182,5.0576,5.1107,5.1107,5.1257,5.1496,5.1496,5.1643,5.1862,5.1862,5.2219,5.2677,0.0,0.0,0.0,0.0,0.0,0.0,0.0,0.0,0.0,0.0,0.0,0.0,0.0,0.0,0.0,0.0,0.0,0.0,3.3182,3.3198,3.296,3.2425,3.278,3.3352,3.4113,3.5039,3.5804,3.64,3.7081,3.7706,3.825,3.7011,3.6753,3.734,3.6053,3.5504,3.5504,3.5504,3.5504,3.5504,3.5504,3.5504,3.5504,0.0,0.0,0.0,0.0,0.0,0.0,0.0,3.8392,3.8527,3.92,3.9388,3.9388,3.9388,3.9388,3.9388,3.9388,3.9903,4.0397,4.0412,4.1384,4.2396,4.241,4.3374,4.4317,4.4332,4.5394,4.6279,4.6294,4.686,4.7309,4.7309,4.7309,4.7309,4.7309,4.7309,4.7309,4.7309,4.7878,4.8282,4.8282,4.891,4.9284,4.9284,4.9284,4.9284,4.9284,4.9284,4.9284,4.9284,4.8626,4.8399,4.8603,4.7955,4.7837,4.8328,4.8328,4.8328,4.837,4.9405,4.9908,4.9947,5.0767,5.1107,5.1107,5.1107,5.1606,5.2307,5.2307,5.2799,5.3501,5.3501,5.3501,5.3501,0.0,0.0,0.0,0.0,0.0,0.0,0.0,0.0,0.0,0.0,0.0,0.0,0.0,0.0,0.0,0.0,0.0,0.0,3.3182,3.2841,3.2695,3.2819,3.3027,3.3752,3.5055,3.6254,3.6906,3.7112,3.7726,3.7677,3.6981,3.7501,3.7131,3.6068,3.6116,3.591,3.5504,3.5504,3.5504,3.5504,3.5504,3.5504,3.5549,0.0,0.0,0.0,0.0,0.0,0.0,0.0,0.0,0.0,3.9349,3.9388,3.9388,3.9388,3.9388,3.9388,3.9388,3.9903,4.0502,4.098,4.1767,4.2635,4.3524,4.4032,4.4586,4.5487,4.5995,4.6429,4.6935,4.7174,4.7309,4.7309,4.7309,4.7309,4.7309,4.7309,4.7309,4.7309,4.7474,4.7593,4.7593,4.7773,4.7878,4.7878,4.7878,4.7878,4.7878,4.7878,4.7965,4.8096,4.7901,4.7925,4.8183,4.8098,4.8464,4.9157,4.9349,4.9446,4.9446,4.9749,5.0515,5.1586,5.1842,5.2255,5.2782,5.2782,5.2938,5.3127,5.3127,5.328,5.3501,5.3501,5.3501,5.3501,0.0,0.0,0.0,0.0,0.0,0.0,0.0,0.0,0.0,0.0,0.0,0.0,0.0,0.0,0.0,0.0,0.0,0.0,0.0,3.2574,3.2616,3.3142,3.3408,3.4301,3.5864,3.7249,3.7895,3.7764,3.7879,3.7809,3.7546,3.7822,3.7472,3.66,3.6753,3.6461,3.5846,3.5846,3.5701,3.5534,3.5789,3.5893,3.5968,0.0,0.0,0.0,0.0,0.0,0.0,0.0,0.0,0.0,3.9388,3.9388,3.9388,3.9388,3.9388,3.9388,3.9388,4.0083,4.0891,4.128,4.2073,4.309,4.4407,4.4915,4.5424,4.6501,4.6711,4.683,4.7234,4.7309,4.7309,4.7309,4.7309,4.7309,4.7309,4.7309,4.7309,4.7309,4.7309,4.7309,4.7309,4.7309,4.7309,4.7309,4.7309,4.7309,4.7309,4.7309,4.7381,4.7581,4.7581,4.7907,4.8573,4.8697,4.9237,5.0158,5.0306,5.0554,5.0859,5.0859,5.1401,5.2307,5.2642,5.3058,5.3501,5.3501,5.3501,5.3501,5.3501,5.3501,5.3501,5.3501,5.3501,5.3501,0.0,0.0,0.0,0.0,0.0,0.0,0.0,0.0,0.0,0.0,0.0,0.0,0.0,0.0,0.0,0.0,0.0,0.0,0.0,0.0,3.281,3.3517,3.406,3.5066,3.6622,3.8042,3.8662,3.8407,3.7867,3.8141,3.9175,3.8084,3.7793,3.8193,3.7648,3.7041,3.6399,3.6399,3.6084,3.5654,3.6304,3.6573,3.6641,3.727,0.0,0.0,0.0,0.0,0.0,0.0,0.0,0.0,3.9388,3.9388,3.9388,3.9388,3.9388,3.9388,3.9388,4.0382,4.1422,4.1422,4.2462,4.3783,4.502,4.5873,4.6576,4.7174,4.7309,4.7309,4.7309,4.7309,4.7309,4.7309,4.7309,4.7309,4.7309,4.7309,4.7309,4.7309,4.7309,4.7309,4.7309,4.7309,4.7309,4.7309,4.7309,4.7309,4.7309,4.7309,4.7424,4.7624,4.7752,4.8324,4.9527,4.9607,5.0158,5.122,5.122,5.1643,5.243,5.2343,5.2343,5.2449,5.3161,5.3501,5.3501,5.3501,5.3501,5.3501,5.3501,5.3501,5.3501,5.3501,5.3501,5.3501,0.0,0.0,0.0,0.0,0.0,0.0,0.0,0.0,0.0,0.0,0.0,0.0,0.0,0.0,0.0,0.0,0.0,0.0,0.0,0.0,3.3661,3.4685,3.5656,3.6649,3.7744,3.8286,3.8799,3.9255,3.8996,3.8761,3.8535,3.8772,3.8439,3.7605,3.7458,3.7041,3.6399,3.6399,3.6358,3.6349,3.6964,3.7198,3.7285,3.7928,3.8182,0.0,0.0,0.0,0.0,0.0,0.0,0.0,3.9388,3.9388,3.9388,3.9388,3.9388,3.9388,3.9388,4.0382,4.1422,4.1422,4.3135,4.4945,4.5229,4.6232,4.713,4.7279,4.7309,4.7309,4.7309,4.7309,4.7309,4.7309,4.7309,4.7309,4.7309,4.7309,4.7309,4.7309,4.7309,4.7309,4.7309,4.7309,4.7309,4.7309,4.7309,4.7309,4.7309,4.7467,4.7624,4.7922,4.8682,4.9303,4.9813,5.0461,5.1182,5.204,5.204,5.2449,5.3212,5.2572,5.2642,5.3246,5.3433,5.3501,5.3501,5.3501,5.3501,5.3501,5.3501,5.3501,5.3501,5.3501,5.3501,5.3501,0.0,0.0,0.0,0.0,0.0,0.0,0.0,0.0,0.0,0.0,0.0,0.0,0.0,0.0,0.0,0.0,0.0,0.0,0.0,0.0,3.433,3.5245,3.6683,3.7653,3.81,3.8783,3.9276,3.9501,3.9484,3.9239,3.8772,3.8816,3.8479,3.7851,3.8169,3.778,3.6891,3.7234,3.7186,3.6988,3.761,3.7862,3.7958,3.8616,3.8886,3.8931,3.9254,0.0,0.0,0.0,0.0,0.0,0.0,0.0,3.9388,3.9388,3.9388,3.9388,3.9388,4.0382,4.1534,4.2162,4.3823,4.5289,4.5289,4.6337,4.7309,4.7309,4.7309,4.7309,4.7309,4.7309,4.7309,4.7309,4.7309,4.7309,4.7309,4.7309,4.7309,4.7309,4.7309,4.7309,4.7309,4.7309,4.7309,4.7309,4.7309,4.7337,4.7424,4.7553,4.7934,4.8682,4.9222,5.0002,5.1048,5.1459,5.2076,5.2868,5.2868,5.3093,5.3501,5.3058,5.3093,5.3501,5.3501,5.3501,5.3501,5.3501,5.3501,5.3501,5.3501,5.3501,5.3501,5.3501,5.3501,5.3501,0.0,0.0,0.0,0.0,0.0,0.0,0.0,0.0,0.0,0.0,0.0,0.0,0.0,0.0,0.0,0.0,0.0,0.0,0.0,0.0,0.0,3.5796,3.7303,3.8197,3.8242,3.9222,3.9694,3.9537,3.9616,3.9547,3.9325,3.8772,3.849,3.849,3.8925,3.8532,3.7621,3.8161,3.8075,3.7632,3.8307,3.8557,3.8631,3.92,3.9388,3.9388,3.9388,3.9388,3.9388,3.9388,0.0,0.0,0.0,0.0,3.9388,3.9388,3.9388,3.9388,3.9388,4.0382,4.1698,4.2961,4.4332,4.5289,4.5289,4.6337,4.7309,4.7309,4.7309,4.7309,4.7309,4.7309,4.7309,4.7309,4.7309,4.7309,4.7309,4.7309,4.7309,4.7309,4.7309,4.7309,4.7309,4.7309,4.7309,4.7309,4.7352,4.7424,4.7581,4.7822,4.8407,4.9447,4.9789,5.0735,5.2272,5.2449,5.2834,5.3501,5.3501,5.3501,5.3501,5.3501,5.3501,5.3501,5.3501,5.3501,5.3501,5.3501,5.3501,5.3501,5.3501,5.3501,5.3501,5.3501,5.3501,5.3501,0.0,0.0,0.0,0.0,0.0,0.0,0.0,0.0,0.0,0.0,0.0,0.0,0.0,0.0,0.0,0.0,0.0,0.0,3.5332,0.0,0.0,3.7126,3.7383,3.794,3.8865,3.9044,3.9302,3.9677,3.9563,3.9528,3.9475,3.9379,3.9299,3.9148,3.8645,3.8364,3.8287,3.8351,3.8349,3.8346,3.8979,3.9247,3.929,3.9394,3.9388,3.9388,3.9388,3.9388,3.9388,3.9388,3.9388,0.0,0.0,0.0,3.9388,3.9388,3.9388,3.9388,3.9388,4.0382,4.1698,4.2961,4.4332,4.5289,4.5289,4.6337,4.7309,4.7309,4.7309,4.7309,4.7309,4.7309,4.7309,4.7309,4.7309,4.7309,4.7309,4.7309,4.7309,4.7309,4.7309,4.7309,4.7309,4.7309,4.7309,4.7309,4.7467,4.7596,4.7581,4.8641,4.9327,4.9487,5.1091,5.204,5.2307,5.2972,5.3382,5.3501,5.3501,5.3501,5.3501,5.3501,5.3501,5.3501,5.3501,5.3501,5.3501,5.3501,5.3501,5.3501,5.3501,5.3501,5.3501,5.3501,5.3501,5.3501,0.0,0.0,0.0,0.0,0.0,0.0,0.0,0.0,0.0,0.0,0.0,0.0,0.0,0.0,0.0,3.5396,3.5449,3.5635,3.603,3.6645,3.6983,3.6892,3.7533,3.8124,3.8601,3.8947,3.9339,3.9807,3.9833,3.972,3.9501,3.9563,3.9292,3.8733,3.8817,3.8681,3.8446,3.9188,3.9287,3.9017,3.9741,4.001,3.9985,3.9553,3.9646,3.995,3.9553,3.9388,3.9388,3.9388,3.9388,3.9388,3.9388,0.0,0.0,0.0,3.9388,3.9574,4.0322,4.0935,4.1698,4.2961,4.4047,4.484,4.5214,4.6052,4.686,4.7234,4.7309,4.7309,4.7309,4.7309,4.7309,4.7309,4.7309,4.7309,4.7309,4.7309,4.7309,4.7309,4.7309,4.7309,4.7309,4.7309,4.7352,4.7467,4.7961,4.8392,4.8641,4.9607,5.0467,5.1054,5.1878,5.2537,5.2989,5.3314,5.3501,5.3501,5.3501,5.3501,5.3501,5.3501,5.3501,5.3501,5.3501,5.3501,5.3501,5.3501,5.3501,5.3501,5.3501,5.3501,5.3501,5.3501,5.3501,5.3568,0.0,0.0,0.0,0.0,0.0,0.0,0.0,0.0,0.0,0.0,0.0,0.0,0.0,0.0,0.0,0.0,3.6232,3.6121,3.6492,3.6922,3.7043,3.6754,3.7592,3.821,3.8518,3.8974,3.9461,3.9935,4.0011,3.9884,3.9537,3.9616,3.9365,3.8872,3.9369,3.9317,3.8959,3.9977,4.0122,3.9736,4.0278,4.0512,4.0443,3.9879,4.0021,4.0409,3.9646,3.9388,3.9388,3.9388,3.9388,3.9388,3.9388,3.9388,0.0,0.0,0.0,3.9664,4.0816,4.125,4.1654,4.2791,4.3703,4.4436,4.493,4.5708,4.6456,4.695,4.7189,4.7309,4.7309,4.7309,4.7309,4.7309,4.7309,4.7309,4.7309,4.7309,4.7309,4.7309,4.7309,4.7424,4.7651,4.7679,4.7849,4.8282,4.8922,4.9432,4.9805,5.0621,5.148,5.2272,5.2501,5.2903,5.3501,5.3501,5.3501,5.3501,5.3501,5.3501,5.3501,5.3501,5.3501,5.3501,5.3501,5.3501,5.3501,5.3501,5.3501,5.3501,5.3501,5.3501,5.3518,5.3704,5.3788,5.389,0.0,0.0,0.0,0.0,0.0,0.0,0.0,0.0,0.0,0.0,0.0,0.0,3.4661,3.56,3.6124,3.5624,3.665,3.7057,3.6554,3.6523,3.6785,3.7328,3.7417,0.0,3.9125,3.9162,3.9497,4.007,3.9961,3.9833,3.9677,3.9563,3.9787,4.0288,4.0321,4.0336,4.0315,4.0356,4.0403,4.0432,4.0497,4.0512,4.0478,4.0443,4.0478,4.0409,3.9646,3.9388,3.9388,3.9388,3.9388,3.9388,3.9388,3.9388,3.9388,0.0,0.0,0.0,4.0262,4.0905,4.1587,4.2276,4.3374,4.4332,4.4362,4.5379,4.6294,4.6324,4.6875,4.7309,4.7309,4.7309,4.7309,4.7309,4.7309,4.7309,4.7309,4.7309,4.7309,4.7309,4.7309,4.7679,4.8636,4.8702,4.915,5.0165,5.049,5.0605,5.0643,5.1643,5.2236,5.2307,5.3058,5.3467,5.3501,5.3501,5.3501,5.3501,5.3501,5.3501,5.3501,5.3501,5.3501,5.3501,5.3501,5.3501,5.3501,5.3501,5.3501,5.3501,5.3501,5.3501,5.3585,5.4279,5.4532,5.4651,0.0,0.0,0.0,0.0,0.0,0.0,0.0,0.0,0.0,0.0,0.0,0.0,0.0,3.651,3.6949,3.6728,3.6782,3.6723,3.6523,3.6861,3.7013,3.6831,3.7562,3.8181,3.8601,3.9001,3.9513,4.0096,4.0062,3.991,3.972,4.0127,4.0361,4.0398,4.0418,4.0388,4.0482,4.1405,4.1304,4.0581,4.1492,4.1558,4.1093,4.0668,4.0771,4.1008,3.9809,3.9681,4.0021,3.9553,3.9388,3.9388,3.9388,3.9388,3.9388,3.9388,3.9388,3.9574,4.0217,4.0876,4.1572,4.2231,4.303,4.3753,4.4212,4.5005,4.5783,4.619,4.6845,4.7309,4.7309,4.7309,4.7309,4.7309,4.7309,4.7309,4.7309,4.7309,4.7309,4.7309,4.7876,4.8403,4.8743,4.9416,5.0048,5.0566,5.1134,5.1557,5.1716,5.259,5.3058,5.3058,5.3365,5.3501,5.3501,5.3501,5.3501,5.3501,5.3501,5.3501,5.3501,5.3501,5.3501,5.3501,5.3501,5.3501,5.3501,5.3501,5.3501,5.3501,5.3501,5.3501,5.3602,5.4329,5.4583,5.4752,0.0,0.0,0.0,0.0,0.0,0.0,0.0,0.0,0.0,3.608,0.0,0.0,0.0,0.0,3.7104,3.7104,3.6723,3.6492,3.6492,3.6877,3.6922,3.6523,3.765,3.8306,3.8306,3.9082,3.9696,4.0096,4.0096,3.9944,3.972,4.0431,4.0798,4.0763,4.0996,4.1107,4.1162,4.2168,4.2061,4.1309,4.2221,4.2317,4.1819,4.136,4.1327,4.1393,4.0443,4.0285,4.0443,4.0181,3.995,3.9788,3.9788,3.9589,3.9388,3.9388,3.9388,3.9514,3.9948,4.0546,4.1205,4.1916,4.2521,4.318,4.3838,4.4496,4.5155,4.5843,4.6516,4.704,4.7264,4.7309,4.7309,4.7309,4.7309,4.7309,4.7309,4.7309,4.7424,4.7694,4.8377,4.9054,4.9663,5.0458,5.1096,5.161,5.2134,5.2522,5.2677,5.3212,5.3501,5.3501,5.3501,5.3501,5.3501,5.3501,5.3501,5.3501,5.3501,5.3501,5.3501,5.3501,5.3501,5.3501,5.3501,5.3501,5.3501,5.3501,5.3501,5.3501,5.3501,5.3501,5.3619,5.4617,5.4972,5.5175,0.0,0.0,0.0,0.0,0.0,0.0,0.0,0.0,3.7926,3.744,0.0,0.0,0.0,0.0,0.0,3.6492,3.6492,3.6492,3.6492,3.6492,3.6492,3.6492,3.7634,3.8278,3.8278,3.947,4.007,4.007,4.0096,3.9961,3.9754,4.0481,4.1038,4.1446,4.2162,4.2493,4.2468,4.2572,4.2617,4.2617,4.2617,4.2617,4.2617,4.2617,4.2158,4.1557,4.1557,4.114,4.073,4.1341,4.1091,4.0543,4.0493,3.9985,3.9424,3.9424,3.9388,3.9454,0.0,0.0,0.0,4.1287,4.1946,4.259,4.3155,4.3838,4.4496,4.514,4.5813,4.6501,4.716,4.7279,4.7279,4.7309,4.7309,4.7309,4.7309,4.7309,4.7651,4.849,4.8774,4.9599,5.1435,5.1796,5.24,5.3433,5.3501,5.3501,5.3501,5.3501,5.3501,5.3501,5.3501,5.3501,5.3501,5.3501,5.3501,5.3501,5.3501,5.3501,5.3501,5.3501,5.3501,5.3501,5.3501,5.3501,5.3501,5.3501,5.3501,5.3501,5.3501,5.3501,5.3687,5.5175,5.5681,5.5919,0.0,0.0,0.0,0.0,0.0,0.0,3.8204,3.7862,3.7385,0.0,0.0,0.0,3.6569,3.6492,3.6492,3.6492,3.6492,3.6492,3.6492,3.6492,3.6492,3.6492,3.7238,3.765,3.765,3.8838,3.9444,3.9444,3.9893,4.023,4.0498,4.1251,4.1536,4.1482,4.2246,4.2278,4.1837,4.2876,4.3035,4.2648,4.3143,4.3035,4.2617,4.2617,4.2798,4.3025,4.2501,4.2868,4.3484,4.2593,4.1828,4.1105,4.0031,3.9915,4.0076,3.9553,3.9753,4.0127,4.0127,0.0,0.0,0.0,0.0,0.0,4.3245,4.3838,4.4362,4.4541,4.511,4.5783,4.6471,4.6591,4.6756,4.7234,4.7309,4.7309,4.7309,4.7864,4.8324,4.8573,4.9931,5.1026,5.1561,5.247,5.3179,5.3467,5.3501,5.3501,5.3501,5.3501,5.3501,5.3501,5.3501,5.3501,5.3501,5.3501,5.3501,5.3501,5.3501,5.3501,5.3501,5.3501,5.3501,5.3501,5.3501,5.3501,5.3501,5.3501,5.3501,5.3501,5.3501,5.3501,5.3687,5.5175,5.5681,5.5919,0.0,0.0,0.0,0.0,0.0,3.7924,3.7924,3.7637,3.7178,0.0,0.0,0.0,3.6585,3.6492,3.6492,3.6492,3.6492,3.6492,3.6492,3.6492,3.6492,3.6492,3.7074,3.7519,3.7767,3.8701,3.9355,3.9626,4.0191,4.0428,4.0409,4.1665,4.1972,4.1533,4.2555,4.2772,4.2412,4.2943,4.2943,4.2648,4.3342,4.3372,4.3037,4.3362,4.3582,4.3735,4.3897,4.4318,4.4707,4.4139,4.35,4.2742,4.1573,4.1484,4.1678,4.0934,4.097,0.0,0.0,0.0,4.2128,4.2728,0.0,0.0,4.323,4.3589,4.3947,4.4257,4.4616,4.5095,4.5768,4.5888,4.6112,4.6785,4.7217,4.7531,4.7819,4.8558,4.9237,4.9599,5.0779,5.176,5.2098,5.2956,5.3501,5.3501,5.3501,5.3501,5.3501,5.3501,5.3501,5.3501,5.3501,5.3501,5.3501,5.3501,5.3501,5.3501,5.3501,5.3501,5.3501,5.3501,5.3501,5.3501,5.3501,5.3501,5.3501,5.3501,5.3501,5.3501,5.3501,5.3501,5.3687,5.5175,5.5681,5.5919,0.0,0.0,3.8039,3.749,3.7417,3.7417,3.7417,3.7358,3.7104,0.0,3.6952,3.7104,3.6554,3.6492,3.6492,3.6492,3.6492,3.6492,3.6492,3.6492,3.6492,3.6492,3.7013,3.7533,3.8096,3.8766,3.9375,3.9961,4.0617,4.0583,3.9923,4.1684,4.215,4.1554,4.2818,4.3342,4.3235,4.2789,4.2554,4.2554,4.3204,4.3572,4.378,4.444,4.4432,4.4219,4.5478,4.5567,4.5228,4.5646,4.5388,4.4772,4.3972,4.3767,4.3648,4.2878,4.269,0.0,0.0,0.0,0.0,4.3442,4.3258,0.0,4.3455,4.3551,4.3717,4.4343,4.4479,4.4675,4.5337,4.5458,4.5684,4.6334,4.7181,4.7939,4.8533,4.9383,5.0252,5.1027,5.15,5.2046,5.2868,5.328,5.3501,5.3501,5.3501,5.3501,5.3501,5.3501,5.3501,5.3501,5.3501,5.3501,5.3501,5.3501,5.3501,5.3501,5.3501,5.3501,5.3501,5.3501,5.3501,5.3501,5.3501,5.3501,5.3501,5.3501,5.3501,5.3501,5.3501,5.3501,5.3687,5.5175,5.5681,5.5919,0.0,3.749,3.7549,3.7417,3.7417,3.7417,3.7417,3.6983,3.6631,3.6523,3.66,3.6631,3.6523,3.6492,3.6492,3.6492,3.6492,3.6492,3.6492,3.6492,3.6492,3.6492,3.66,3.6723,3.6861,3.7984,3.8557,3.8502,3.9796,4.0425,4.0452,4.0987,4.134,4.1515,4.1788,4.1624,4.1176,4.2158,4.2253,4.1787,4.2506,4.3471,4.4489,4.4638,4.5371,4.6318,4.6594,4.6992,4.721,4.6175,4.5717,4.5386,4.4092,4.4124,4.4442,4.3699,4.385,4.4272,4.4272,4.4573,4.4935,4.5206,4.5165,0.0,4.519,4.5221,4.5253,4.5393,4.5425,4.5628,4.6316,4.6441,4.6622,4.7239,4.8092,4.8628,4.8594,4.9876,5.0989,5.129,5.2095,5.2782,5.311,5.3348,5.3501,5.3501,5.3501,5.3501,5.3501,5.3501,5.3501,5.3501,5.3501,5.3501,5.3501,5.3501,5.3501,5.3501,5.3501,5.3501,5.3501,5.3501,5.3501,5.3501,5.3501,5.3501,5.3501,5.3501,5.3501,5.3501,5.3501,5.3501,5.3687,5.5175,5.5681,5.5919,3.7476,3.7417,3.7298,3.7013,3.6952,3.6952,3.6952,3.6693,3.6492,3.6492,3.6414,3.6383,3.6492,3.6414,3.6383,3.6492,3.6492,3.6492,3.6492,3.6492,3.6645,3.6984,3.6999,3.7296,3.7935,3.856,3.8999,3.9251,4.0255,4.0594,4.0311,4.1406,4.1757,4.1525,4.2237,4.219,4.1591,4.2285,4.259,4.2654,4.3372,4.4066,4.4771,4.5516,4.6245,4.6941,4.7322,4.7686,4.7869,4.7144,4.6914,4.6778,4.6076,4.6092,4.6241,4.5472,4.5472,4.5741,4.5741,4.5714,4.5805,4.6163,4.5969,0.0,0.0,4.5697,4.5697,4.5697,4.5697,4.5807,4.6155,4.6218,4.6403,4.7028,4.793,4.8627,4.8882,5.023,5.1241,5.1333,5.2285,5.2938,5.3041,5.3314,5.3501,5.3501,5.3501,5.3501,5.3501,5.3501,5.3501,5.3501,5.3501,5.3501,5.3501,5.3501,5.3501,5.3501,5.3501,5.3501,5.3501,5.3501,5.3501,5.3501,5.3501,5.3501,5.3501,5.3501,5.3501,5.3501,5.3501,5.3501,5.3687,5.5175,5.5681,5.5919,3.7252,3.7178,3.7028,3.6538,3.6429,3.6429,3.6492,3.646,3.6398,3.6398,3.6258,3.6211,3.6398,3.6258,3.6211,3.6398,3.6507,3.6585,3.6645,3.677,3.7078,3.7629,3.766,3.8164,3.9156,3.9345,3.9643,4.0127,4.0753,4.0661,3.9925,4.1588,4.2029,4.1558,4.2538,4.2772,4.2396,4.2699,4.3056,4.3573,4.466,4.5102,4.5235,4.6444,4.699,4.7189,4.7785,4.8001,4.8001,4.8001,4.8001,4.8001,4.8001,4.8001,4.7853,4.722,4.7033,4.7033,4.7033,4.6585,4.6269,4.6862,4.6585,4.6127,0.0,0.0,0.0,4.6127,4.6127,4.6127,4.6127,4.6127,4.6271,4.6722,4.7554,4.8335,4.8793,5.0047,5.1003,5.1222,5.203,5.2604,5.2772,5.323,5.3501,5.3501,5.3501,5.3501,5.3501,5.3501,5.3501,5.3501,5.3501,5.3501,5.3501,5.3501,5.3501,5.3501,5.3501,5.3501,5.3501,5.3501,5.3501,5.3501,5.3501,5.3501,5.3501,5.3501,5.3501,5.3501,5.3501,5.3501,5.3687,5.5175,5.5681,5.5919,3.6321,3.6321,3.6321,3.6242,3.6132,3.6163,3.646,3.6258,3.6068,3.6068,3.6037,3.6037,3.6068,3.6037,3.6037,3.6068,3.6569,3.6925,3.7116,3.767,3.8028,3.8142,3.8286,3.8383,3.833,3.9111,3.9364,3.9165,4.0108,4.0205,3.9496,4.0051,4.0734,4.1492,4.1042,4.1142,4.1704,4.3025,4.3234,4.2949,4.5602,4.6643,4.6659,4.6841,4.7305,4.7885,4.7968,4.8001,4.8001,4.8001,4.8001,4.8001,4.8001,4.8001,4.7968,4.7886,4.7853,4.7853,4.7853,4.7787,4.7754,4.7853,4.7787,4.7754,4.7754,0.0,4.7754,4.7754,0.0,4.7754,4.7754,0.0,0.0,4.7125,4.7604,4.7901,4.7626,4.8726,4.9909,5.0926,5.1143,5.1512,5.2301,5.3044,5.3501,5.3501,5.3501,5.3501,5.3501,5.3501,5.3501,5.3501,5.3501,5.3501,5.3501,5.3501,5.3501,5.3501,5.3501,5.3501,5.3501,5.3501,5.3501,5.3501,5.3501,5.3501,5.3501,5.3501,5.3501,5.3501,5.3501,5.3501,5.3687,5.5175,5.5681,5.5919,3.6053,3.6148,3.6179,3.6085,3.6085,3.6132,3.6195,3.61,3.6005,3.6005,3.5894,3.6014,3.6535,3.6468,3.6572,3.7064,3.7325,3.7512,3.7606,3.7883,3.824,3.8763,3.8861,3.9094,3.9527,3.9886,3.9971,3.9745,4.0159,4.0121,3.9589,4.0597,4.1024,4.0974,4.19,4.1803,4.1073,4.333,4.3864,4.3454,4.5914,4.7156,4.7537,4.7537,4.7736,4.8001,4.8001,4.8001,4.8001,4.8001,4.8001,4.8001,4.8001,4.8001,4.8001,4.8001,4.8001,4.8001,4.8001,4.8001,4.8001,4.8001,4.8001,4.8001,4.8001,4.8001,4.8001,4.8001,0.0,0.0,0.0,0.0,0.0,0.0,4.8236,4.8416,4.8224,4.8726,4.9381,5.0104,5.0689,5.1359,5.2199,5.2604,5.301,5.3467,5.3501,5.3501,5.3501,5.3501,5.3501,5.3501,5.3501,5.3501,5.3501,5.3501,5.3501,5.3501,5.3501,5.3501,5.3501,5.3501,5.3501,5.3501,5.3501,5.3501,5.3501,5.3501,5.3501,5.3501,5.3501,5.3501,5.3687,5.5175,5.5681,5.5919,3.5861,0.0,3.6038,3.5926,3.5973,3.5973,3.5893,3.5878,3.597,3.6103,3.6021,3.6213,3.7038,3.6999,3.7146,3.7699,3.7913,3.8056,3.8118,3.8302,3.8693,3.9295,3.9394,3.9707,4.0281,4.0316,4.0296,4.0121,4.0207,4.0121,3.995,4.0805,4.1075,4.0839,4.2156,4.2106,4.1233,4.3654,4.4545,4.4459,4.6405,4.7636,4.8299,4.8299,4.8431,4.8597,4.8597,4.8481,4.8299,4.8299,4.8166,4.8001,4.8001,4.8001,4.8001,4.8001,4.8001,4.8001,4.8017,4.8049,4.8066,4.8115,4.8147,4.8147,4.8147,4.8147,4.8147,4.8147,4.8147,0.0,0.0,0.0,4.8289,0.0,0.0,4.8671,4.8562,4.8776,4.908,4.9397,5.0217,5.1003,5.164,5.1877,5.2334,5.3112,5.3179,5.3264,5.3501,5.3501,5.3501,5.3501,5.3501,5.3501,5.3501,5.3501,5.3501,5.3501,5.3501,5.3501,5.3501,5.3501,5.3501,5.3501,5.3501,5.3501,5.3501,5.3501,5.3501,5.3501,5.3501,5.3501,5.3687,5.5175,5.5681,5.5919,3.5504,3.5621,3.572,3.572,3.5604,3.5537,3.5504,3.5621,3.5911,3.6439,3.6495,3.672,3.7315,3.7375,3.7389,3.7404,3.7998,3.8473,3.8661,3.9293,3.9668,3.9692,3.9859,3.991,3.9717,3.9925,3.9925,3.9732,3.9925,4.0191,4.0443,3.9985,4.0374,4.1458,4.0781,4.127,4.2618,4.406,4.508,4.5859,4.7342,4.8415,4.9077,4.9077,4.9525,5.0154,5.0154,4.9674,4.9077,4.9077,4.8597,4.8001,4.8001,4.8001,4.8001,4.8001,4.8001,4.8033,4.8163,4.8195,4.8227,4.8452,4.8483,4.8483,4.8483,4.8483,4.8483,4.8483,4.8483,4.8483,4.8483,4.8483,0.0,0.0,0.0,0.0,0.0,4.8456,4.888,4.9004,4.9695,5.0135,5.0152,5.0828,5.1555,5.2283,5.2334,5.2689,5.3467,5.3501,5.3501,5.3501,5.3501,5.3501,5.3501,5.3501,5.3501,5.3501,5.3501,5.3501,5.3501,5.3501,5.3501,5.3501,5.3501,5.3501,5.3501,5.3501,5.3501,5.3501,5.3501,5.3501,5.3687,5.5175,5.5681,5.5919,3.5504,3.5522,3.5572,3.5572,3.5589,3.5739,3.6121,3.6199,3.6424,3.7015,3.7105,3.7345,3.7988,3.8063,3.8242,3.8691,3.8948,3.9073,3.9172,3.94,3.9561,3.9681,3.9768,3.9839,3.9889,3.996,3.9889,3.9681,3.9768,3.9803,3.9788,4.0091,4.0724,4.1607,4.227,4.2855,4.345,4.5354,4.6009,4.5973,4.7951,4.9177,4.9839,4.9839,4.9988,5.022,5.022,5.0055,4.9839,4.9839,4.9674,4.9475,4.9475,4.9475,4.9475,4.9475,4.9475,4.9475,4.9526,4.9161,4.8845,4.9009,4.8674,4.8324,4.8483,4.8515,4.8515,4.8515,4.8515,4.8547,4.8658,4.8707,0.0,0.0,0.0,0.0,0.0,4.8787,4.8956,4.9001,4.9221,4.956,5.0033,5.0321,5.098,5.2215,5.23,5.2655,5.3467,5.3501,5.3501,5.3501,5.3501,5.3501,5.3501,5.3501,5.3501,5.3501,5.3501,5.3501,5.3501,5.3501,5.3501,5.3501,5.3501,5.3501,5.3501,5.3501,5.3501,5.3501,5.3501,5.3805,5.4346,5.5344,5.5681,5.5919,3.5504,3.5504,3.5504,3.5504,3.5767,3.616,3.675,3.6806,3.7045,3.7674,3.7764,3.8093,3.9005,3.9095,3.9379,4.0053,4.0113,4.0113,4.0113,3.9903,3.9805,3.9935,3.9709,3.9661,3.9783,3.9783,3.9696,3.9589,3.9589,3.9646,3.9788,4.0249,4.0832,4.1599,4.3021,4.3804,4.4196,4.6091,4.6897,4.7157,4.9091,5.0171,5.0618,5.0883,5.0817,5.0634,5.0883,5.0817,5.0585,5.0585,5.0419,5.022,5.022,5.022,5.022,5.022,5.022,5.0204,5.0255,4.9941,4.9609,4.9776,4.9458,4.9141,4.9335,4.9166,4.8996,4.906,4.8858,4.8721,4.8863,4.8863,0.0,0.0,0.0,0.0,0.0,4.9001,4.9001,4.9001,4.9001,4.9187,4.9661,4.9712,5.0202,5.142,5.1758,5.2249,5.3044,5.3348,5.3501,5.3501,5.3501,5.3501,5.3501,5.3501,5.3501,5.3501,5.3501,5.3501,5.3501,5.3501,5.3501,5.3501,5.3501,5.3501,5.3501,5.3501,5.3501,5.3501,5.3501,5.3957,5.4685,5.5446,5.6038,5.663,3.5549,3.5579,3.5609,3.5639,3.6133,3.6746,3.736,3.7464,3.7704,3.8407,3.8482,3.899,4.0307,4.0442,4.0696,4.1324,4.1422,4.1422,4.1422,4.0786,4.0442,4.0442,3.9828,3.9433,3.9433,3.9439,3.9388,3.9388,3.9388,3.9768,4.047,4.0447,0.0,0.0,4.2946,4.4024,4.4941,4.6327,4.7794,4.9342,5.0717,5.1315,5.1398,5.2127,5.1962,5.1415,5.2161,5.1962,5.1365,5.1365,5.0883,5.032,5.032,5.032,5.032,5.032,5.032,5.0337,5.0458,5.0458,5.0509,5.0694,5.0744,5.0743,5.0941,5.0419,4.9912,5.0103,4.9593,4.9103,4.9069,4.9052,4.9035,0.0,0.0,0.0,0.0,4.9001,4.9001,4.9001,4.9001,4.9001,4.9001,4.9001,4.9306,5.0033,5.0777,5.1539,5.2266,5.3061,5.3501,5.3501,5.3501,5.3501,5.3501,5.3501,5.3501,5.3501,5.3501,5.3501,5.3501,5.3501,5.3501,5.3501,5.3501,5.3501,5.3501,5.3501,5.3501,5.3501,5.3551,5.4025,5.4786,5.5513,5.6664,5.7881,3.6237,3.6611,3.7075,3.7569,3.7389,3.7389,3.8033,3.8138,3.8556,3.9723,3.9888,4.0202,4.104,4.113,4.119,4.1369,4.1422,4.1422,4.1422,4.122,4.113,4.113,4.0502,4.0142,4.0142,3.9664,3.9388,3.9388,3.9388,3.9736,4.042,4.0417,0.0,0.0,4.4248,4.5397,4.7191,4.8131,4.9372,5.075,5.1166,5.1315,5.1398,5.2127,5.1962,5.1415,5.2161,5.2293,5.2127,5.2127,5.1976,5.1827,5.1827,5.1827,5.1827,5.1827,5.1827,5.1862,5.1881,5.1466,5.1155,5.1446,5.1112,5.0776,5.1088,5.1,5.0865,5.0898,5.0777,5.0473,4.9915,4.9813,4.9644,0.0,0.0,0.0,0.0,4.9001,4.9001,4.9001,4.9001,4.9001,4.9001,4.9001,4.9306,5.0033,5.0777,5.1539,5.2266,5.3061,5.3501,5.3501,5.3501,5.3501,5.3501,5.3501,5.3501,5.3501,5.3501,5.3501,5.3501,5.3501,5.3501,5.3501,5.3501,5.3501,5.3501,5.3501,5.3501,5.3551,5.4093,5.5091,5.6258,5.6461,5.7103,5.7881,3.6881,3.7404,3.7958,3.8317,3.8332,3.8407,3.8781,3.908,3.9544,4.0307,4.0651,4.107,4.1767,4.1856,4.1923,4.2207,4.2237,4.2237,4.2237,4.1968,4.1856,4.1856,4.1175,4.0831,4.0831,4.0187,3.9843,3.9843,4.019,4.0552,4.0931,0.0,0.0,0.0,4.4827,4.6007,4.7568,4.9319,5.0518,5.1348,5.1663,5.1796,0.0,5.226,5.2161,5.1846,5.2224,5.2409,5.2409,5.2409,5.2409,5.2409,5.2409,5.2409,5.2409,5.2409,5.2409,5.2409,5.2409,5.2111,5.1831,5.2024,5.1811,5.1596,5.19,5.1747,5.161,5.1658,5.1437,5.1082,5.0659,5.0591,5.0338,0.0,0.0,0.0,4.9001,4.9001,4.9001,4.9001,4.9001,4.9001,4.9001,4.9001,4.9171,4.9593,5.0608,5.1403,5.1809,5.2892,5.3501,5.3501,5.3501,5.3501,5.3501,5.3501,5.3501,5.3501,5.3501,5.3501,5.3501,5.3501,5.3501,5.3501,5.3501,5.3501,5.3501,5.3501,5.3501,5.3619,5.4668,5.5784,5.685,5.7154,5.7543,5.7881,3.7659,3.8138,3.8556,3.8646,3.9155,3.9574,3.9664,4.0083,4.0457,4.0636,4.116,4.1796,4.2455,4.253,4.2716,4.3245,4.329,4.329,4.329,4.2806,4.253,4.253,4.1938,4.1594,4.1504,4.1048,4.0718,4.0531,4.1326,4.1714,4.175,0.0,0.0,4.3701,4.4956,4.6139,4.7257,4.9993,5.1282,5.1514,5.2161,5.2409,5.2409,5.2409,5.2409,5.2409,5.2409,5.2409,5.2409,5.2409,5.2409,5.2409,5.2409,5.2409,5.2409,5.2409,5.2409,5.2409,5.2409,5.2409,5.2409,5.2445,5.2535,5.2659,5.292,5.2605,5.227,5.2436,5.1961,5.1488,5.1369,5.1252,5.0997,5.0338,4.9627,4.9137,4.9137,4.9069,4.9001,4.9001,4.9001,0.0,4.9001,4.9001,4.9001,4.9001,5.0388,5.1185,5.1185,5.2672,5.3501,5.3501,5.3501,5.3501,5.3501,5.3501,5.3501,5.3501,5.3501,5.3501,5.3501,5.3501,5.3501,5.3501,5.3501,5.3501,5.3501,5.3501,5.3619,5.394,5.5327,5.6292,5.7019,5.7645,5.7881,5.7881,3.8945,3.9119,3.9409,3.9948,4.0157,4.0412,4.095,4.0666,4.0786,4.1916,4.2156,4.2447,4.309,4.3125,4.317,4.329,4.329,4.329,4.329,4.3185,4.3125,4.3125,4.3006,4.2731,4.2246,4.2727,4.2393,4.1205,4.1998,4.231,4.2281,4.2606,4.3343,4.4341,4.46,4.6155,4.8699,4.9891,5.1082,5.2227,5.2359,5.2409,5.2409,5.2409,5.2409,5.2409,5.2409,5.2409,5.2409,5.2409,5.2409,5.2409,5.2409,5.2409,5.2409,5.2409,5.2409,5.2409,5.2409,5.2409,5.248,5.2746,5.2711,5.2746,5.328,5.3196,5.3061,5.3264,5.3196,5.2892,5.2232,5.1623,5.1166,5.1048,5.0388,4.9898,4.9898,4.9373,4.9001,4.9001,4.9001,4.9001,4.9001,4.9001,4.9001,4.9001,5.0388,5.1185,5.1185,5.2672,5.3501,5.3501,5.3501,5.3501,5.3501,5.3501,5.3501,5.3501,5.3501,5.3501,5.3501,5.3501,5.3501,5.3501,5.3501,5.3501,5.3501,5.3501,5.4228,5.5412,5.6275,5.7053,5.7712,5.7831,5.7881,5.7881,3.9349,3.9694,4.0023,4.0337,4.0681,4.113,4.1826,4.1662,4.1692,4.2321,4.2656,4.2985,4.326,4.329,4.329,4.329,4.329,4.329,4.329,4.329,4.329,4.329,4.3618,4.3688,4.3374,4.3738,4.3406,4.2402,4.3167,4.3339,4.2978,4.3767,4.4703,4.5747,4.6886,4.794,4.9021,5.0657,5.1744,5.2409,5.2409,5.2409,5.2409,5.2409,5.2409,5.2409,5.2409,5.2409,5.2409,5.2409,5.2409,5.2409,5.2409,5.2409,5.2409,5.2409,5.2409,5.2409,5.2409,5.2409,5.2445,5.2676,5.2729,5.285,5.323,5.3348,5.3382,5.3467,5.3501,5.3382,5.2993,5.23,5.1775,5.1775,5.115,5.0676,5.0676,5.0371,5.0152,5.0152,4.9796,4.956,4.956,4.956,4.9407,4.9035,5.0388,5.1185,5.1185,5.2672,5.3501,5.3501,5.3501,5.3501,5.3501,5.3501,5.3501,5.3501,5.3501,5.3501,5.3501,5.3501,5.3501,5.3501,5.3501,5.3501,5.3534,5.3907,5.4938,5.6325,5.6664,5.7256,5.7881,5.7881,5.7881,5.7881,3.9843,4.0247,4.0651,4.0786,4.125,4.1841,4.25,4.2725,4.277,4.262,4.3015,4.3349,4.3484,4.3499,4.3559,4.3693,4.3589,4.3499,4.3499,4.3364,4.329,4.329,4.4092,4.4466,4.4317,4.4749,4.4569,4.3708,4.4395,4.4273,4.3478,4.4778,4.589,4.6859,4.8944,4.9544,4.9193,5.1306,5.2277,5.2409,5.2409,5.2409,5.2409,5.2409,5.2409,5.2409,5.2409,5.2409,5.2409,5.2409,5.2409,5.2409,5.2409,5.2409,5.2409,5.2409,5.2409,5.2409,5.2409,5.2409,5.248,5.264,5.2764,5.2972,5.323,5.3348,5.3467,5.3501,5.3501,5.3501,5.3501,5.2993,5.2553,5.2553,5.1928,5.1454,5.1454,5.1319,5.1185,5.1185,5.0693,5.0321,5.0321,5.0321,5.0084,4.9509,5.0693,5.1454,5.1454,5.2756,5.3501,5.3501,5.3501,5.3501,5.3501,5.3501,5.3501,5.3501,5.3501,5.3501,5.3501,5.3501,5.3501,5.3501,5.3501,5.3602,5.3805,5.4702,5.575,5.6816,5.6968,5.7391,5.7881,5.7881,5.7881,5.7881,4.119,4.125,4.1512,4.2111,4.2261,4.253,4.3135,4.3748,4.3913,4.329,4.3245,4.3529,4.4152,4.4227,4.4466,4.5065,4.4571,4.4227,4.4227,4.3618,4.329,4.329,4.4526,4.493,4.4332,4.6209,4.6498,4.511,4.5309,4.4669,4.3334,4.4098,4.5227,4.6686,4.8381,4.9422,5.0054,5.0996,5.1796,5.2409,5.2409,5.2409,5.2409,5.2409,5.2409,5.2409,5.2409,5.2409,5.2409,5.2409,5.2409,5.2409,5.2409,5.2409,5.2409,5.2409,5.2409,5.2409,5.2409,5.2499,5.264,5.2834,5.2868,5.2989,5.3382,5.3348,5.3264,5.3467,5.3501,5.3501,5.3501,5.345,5.3399,5.3399,5.2723,5.2198,5.2198,5.164,5.1185,5.1185,5.115,5.1116,5.1116,5.1116,5.1082,5.1014,5.1742,5.2198,5.2198,5.3027,5.3501,5.3501,5.3501,5.3501,5.3501,5.3501,5.3501,5.3501,5.3501,5.3501,5.3501,5.3501,5.3501,5.3501,5.3501,5.3873,5.46,5.6004,5.6681,5.6867,5.7526,5.7831,5.7881,5.7881,5.7881,5.7881,4.1422,4.1737,4.2096,4.2351,4.2686,4.3165,4.3823,4.4152,4.4362,4.4496,4.4511,4.4601,4.487,4.49,4.5005,4.5274,4.505,4.49,4.49,4.4287,4.3888,4.3888,4.4811,4.517,4.4915,4.6539,4.69,4.5918,4.6041,4.5592,4.4637,4.5442,4.6563,4.7997,5.0123,5.0899,5.0756,5.1625,5.2144,5.2409,5.2409,5.2409,5.2409,5.2409,5.2409,5.2409,5.2409,5.2409,5.2409,5.2409,5.2409,5.2409,5.2409,5.2409,5.2409,5.2409,5.2409,5.2409,5.2499,5.257,5.2659,5.3007,5.3076,5.3144,5.3433,5.3433,5.3382,5.3467,5.3501,5.3501,5.3501,5.3501,5.3501,5.3501,5.323,5.3027,5.3027,5.2773,5.2587,5.2587,5.2164,5.186,5.186,5.186,5.186,5.186,5.2131,5.23,5.23,5.3061,5.3501,5.3501,5.3501,5.3501,5.3501,5.3501,5.3501,5.3501,5.3501,5.3501,5.3501,5.3501,5.3737,5.416,5.416,5.482,5.597,5.6562,5.7053,5.7492,5.7763,5.7881,5.7881,5.7881,5.7881,5.7881,4.1953,4.2327,4.274,4.2935,4.3314,4.3798,4.4496,4.4781,4.508,4.5544,4.5768,4.5813,4.5618,4.5589,4.5678,4.5873,4.5708,4.5589,4.5589,4.4975,4.4601,4.4601,4.505,4.5394,4.5589,4.6531,4.7004,4.6957,4.6635,4.6232,4.5818,4.6702,4.7971,4.9573,5.1516,5.2069,5.1508,5.2142,5.2409,5.2409,5.2409,5.2409,5.2409,5.2409,5.2409,5.2409,5.2409,5.2409,5.2409,5.2409,5.2409,5.2409,5.2409,5.2409,5.2409,5.2409,5.2409,5.2445,5.2553,5.2624,5.2764,5.311,5.3264,5.3348,5.3467,5.3501,5.3501,5.3501,5.3501,5.3501,5.3501,5.3501,5.3501,5.3501,5.3501,5.3501,5.3501,5.3501,5.3501,5.3501,5.301,5.2655,5.2655,5.2655,5.2655,5.2655,5.2655,5.2655,5.2655,5.3196,5.3501,5.3501,5.3501,5.3501,5.3501,5.3501,5.3501,5.3501,5.3501,5.3501,5.3501,5.3501,5.3907,5.46,5.482,5.5632,5.6816,5.7036,5.7425,5.7881,5.7881,5.7881,5.7881,5.7881,5.7881,5.7918,4.3275,4.3275,4.3484,4.4182,4.4302,4.4526,4.5185,4.5858,4.6264,4.6264,4.6875,4.704,4.6339,4.6264,4.6576,4.7219,4.6681,4.6264,4.6264,4.5663,4.5289,4.5289,4.5289,4.5618,4.6249,4.6279,4.703,4.8558,4.7072,4.6392,4.6621,4.7485,4.9042,5.1102,5.2017,5.2373,5.2373,5.239,5.2409,5.2409,5.2409,5.2409,5.2409,5.2409,5.2409,5.2409,5.2409,5.2409,5.2409,5.2409,5.2409,5.2409,5.2409,5.2409,5.2409,5.2409,5.2409,5.2445,5.2553,5.2729,5.2938,5.3144,5.3348,5.3501,5.3501,5.3501,5.3501,5.3501,5.3501,5.3501,5.3501,5.3501,5.3501,5.3501,5.3501,5.3501,5.3501,5.3501,5.3501,5.3501,5.3501,5.3501,5.3501,5.3501,5.3501,5.3501,5.3501,5.3501,5.3501,5.3501,5.3501,5.3501,5.3501,5.3501,5.3501,5.3501,5.3501,5.3501,5.3501,5.3501,5.3501,5.3501,5.3907,5.4634,5.5378,5.6122,5.6867,5.7577,5.7881,5.7881,5.7881,5.7881,5.7881,5.7881,5.7881,5.7974,4.4586,4.4661,4.4736,4.4945,4.499,4.5214,4.5888,4.6145,4.6444,4.6935,4.7174,4.7219,4.701,4.6995,4.707,4.7294,4.7115,4.6995,4.6995,4.6367,4.5992,4.5992,4.6531,4.6992,4.7165,4.8152,4.8923,4.9423,4.9024,4.9142,4.9803,5.0089,5.0864,5.198,5.2266,5.2409,5.2409,5.2409,5.2409,5.2409,5.2409,5.2409,5.2409,5.2409,5.2409,5.2409,5.2409,5.2409,5.2409,5.2409,5.2409,5.2409,5.2409,5.2409,5.2409,5.2409,5.2409,5.2445,5.2729,5.2834,5.2989,5.3314,5.3467,5.3501,5.3501,5.3501,5.3501,5.3501,5.3501,5.3501,5.3501,5.3501,5.3501,5.3501,5.3501,5.3501,5.3501,5.3501,5.3501,5.3501,5.3501,5.3501,5.3501,5.3501,5.3501,5.3501,5.3501,5.3501,5.3501,5.3501,5.3501,5.3501,5.3501,5.3501,5.3501,5.3501,5.3501,5.3501,5.3501,5.3501,5.3518,5.4008,5.4651,5.5395,5.6139,5.6867,5.756,5.7797,5.7881,5.7881,5.7881,5.7881,5.7881,5.7881,5.8209,5.8616,4.5214,4.5289,4.5379,4.5633,4.5678,4.5903,4.6591,4.6696,4.6845,4.7249,4.7309,4.7309,4.7309,4.7309,4.7309,4.7309,4.7309,4.7309,4.7309,4.692,4.6696,4.6696,4.7261,4.7721,4.7968,4.8953,4.9709,5.0306,5.0387,5.0676,5.1218,5.1218,5.1661,5.2409,5.2409,5.2409,5.2409,5.2409,5.2409,5.2409,5.2409,5.2409,5.2409,5.2409,5.2409,5.2409,5.2409,5.2409,5.2409,5.2409,5.2409,5.2409,5.2409,5.2409,5.2409,5.2409,5.2409,5.248,5.2799,5.2903,5.2989,5.3399,5.3501,5.3501,5.3501,5.3501,5.3501,5.3501,5.3501,5.3501,5.3501,5.3501,5.3501,5.3501,5.3501,5.3501,5.3501,5.3501,5.3501,5.3501,5.3501,5.3501,5.3501,5.3501,5.3501,5.3501,5.3501,5.3501,5.3501,5.3501,5.3501,5.3501,5.3501,5.3501,5.3501,5.3501,5.3501,5.3501,5.3501,5.3501,5.3534,5.4262,5.5006,5.575,5.6494,5.7222,5.7881,5.7881,5.7881,5.7881,5.7881,5.7881,5.7918,5.8173,5.8546,5.8994,4.5424,4.5439,4.5648,4.6234,4.6354,4.6591,4.7204,4.7309,4.7309,4.7309,4.7309,4.7309,4.7309,4.7309,4.7309,4.7309,4.7309,4.7309,4.7309,4.7309,4.7309,4.7309,4.7535,4.7968,4.8599,4.8836,4.9675,5.1194,5.1194,5.1194,5.1194,5.1194,5.1635,5.2409,5.2409,5.2409,5.2409,5.2409,5.2409,5.2409,5.2409,5.2409,5.2409,5.2409,5.2409,5.2409,5.2409,5.2409,5.2409,5.2409,5.2409,5.2409,5.2409,5.2409,5.2409,5.2409,5.2409,5.248,5.2799,5.2903,5.2989,5.3399,5.3501,5.3501,5.3501,5.3501,5.3501,5.3501,5.3501,5.3501,5.3501,5.3501,5.3501,5.3501,5.3501,5.3501,5.3501,5.3501,5.3501,5.3501,5.3501,5.3501,5.3501,5.3501,5.3501,5.3501,5.3501,5.3501,5.3501,5.3501,5.3501,5.3501,5.3501,5.3501,5.3501,5.3501,5.3501,5.3501,5.3501,5.3534,5.3602,5.4329,5.5074,5.5835,5.6562,5.7256,5.7881,5.7881,5.7881,5.7881,5.7881,5.7918,5.8046,5.8668,5.896,5.9212,4.6741,4.683,4.6875,4.7055,4.707,4.713,4.7279,4.7309,4.7309,4.7309,4.7309,4.7309,4.7309,4.7309,4.7309,4.7309,4.7309,4.7309,4.7309,4.7309,4.7309,4.7309,4.7977,4.8445,4.8615,4.9875,5.1053,5.2106,5.2106,5.2106,5.2106,5.2106,5.2214,5.2409,5.2409,5.2409,5.2409,5.2409,5.2409,5.2409,5.2409,5.2409,5.2409,5.2409,5.2409,5.2409,5.2409,5.2409,5.2409,5.2409,5.2409,5.2409,5.2409,5.2409,5.2409,5.2409,5.2409,5.248,5.2799,5.2903,5.2989,5.3399,5.3501,5.3501,5.3501,5.3501,5.3501,5.3501,5.3501,5.3501,5.3501,5.3501,5.3501,5.3501,5.3501,5.3501,5.3501,5.3501,5.3501,5.3501,5.3501,5.3501,5.3501,5.3501,5.3501,5.3501,5.3501,5.3501,5.3501,5.3501,5.3501,5.3501,5.3501,5.3501,5.3501,5.3501,5.3501,5.3501,5.3501,5.3788,5.4346,5.5108,5.5852,5.6579,5.7306,5.7729,5.7881,5.7881,5.7881,5.7881,5.7881,5.8192,5.8668,5.8823,5.9576,6.056,4.7234,4.7309,4.7309,4.7309,4.7309,4.7309,4.7309,4.7309,4.7309,4.7309,4.7309,4.7309,4.7309,4.7309,4.7309,4.7309,4.7309,4.7309,4.7309,4.7309,4.7467,4.7907,4.8723,4.9358,4.9718,5.1027,5.1944,5.2409,5.2409,5.2409,5.2409,5.2409,5.2409,5.2409,5.2409,5.2409,5.2409,5.2409,5.2409,5.2409,5.2409,5.2409,5.2409,5.2409,5.2409,5.2409,5.2409,5.2409,5.2409,5.2409,5.2409,5.2409,5.2409,5.2409,5.2409,5.2409,5.2409,5.2445,5.2711,5.2834,5.2989,5.3399,5.3501,5.3501,5.3501,5.3501,5.3501,5.3501,5.3501,5.3501,5.3501,5.3501,5.3501,5.3501,5.3501,5.3501,5.3501,5.3501,5.3501,5.3501,5.3501,5.3501,5.3501,5.3501,5.3501,5.3501,5.3501,5.3501,5.3501,5.3501,5.3501,5.3501,5.3501,5.3501,5.3501,5.3501,5.3501,5.3501,5.3501,5.389,5.4617,5.5378,5.6105,5.685,5.7577,5.7881,5.7881,5.7881,5.8082,5.8369,5.8369,5.8789,5.9429,5.9739,6.0357,6.1045,4.7309,4.7309,4.7309,4.7309,4.7309,4.7309,4.7309,4.7309,4.7309,4.7309,4.7309,4.7309,4.7309,4.7309,4.7309,4.7309,4.7309,4.7337,4.751,4.751,4.7892,4.8723,4.9423,5.0135,5.0876,5.1745,5.2266,5.2409,5.2409,5.2409,5.2409,5.2409,5.2409,5.2409,5.2409,5.2409,5.2409,5.2409,5.2409,5.2409,5.2409,5.2475,5.2539,5.2539,5.2605,5.2688,5.2572,5.2539,5.2558,5.2442,5.2409,5.2409,5.2409,5.2409,5.2409,5.2409,5.2409,5.2445,5.2553,5.2764,5.3007,5.3399,5.3501,5.3501,5.3501,5.3501,5.3501,5.3501,5.3501,5.3501,5.3501,5.3501,5.3501,5.3501,5.3501,5.3501,5.3501,5.3501,5.3501,5.3501,5.3501,5.3501,5.3501,5.3501,5.3501,5.3501,5.3501,5.3501,5.3501,5.3501,5.3501,5.3501,5.3501,5.3501,5.3501,5.3501,5.3501,5.3501,5.3619,5.4059,5.4786,5.553,5.6275,5.7002,5.7628,5.7881,5.7881,5.7881,5.8298,5.8892,5.8892,5.9396,6.0237,6.0789,6.1075,6.1239,4.7309,4.7309,4.7309,4.7309,4.7309,4.7309,4.7309,4.7309,4.7309,4.7309,4.7309,4.7309,4.7309,4.7309,4.7309,4.7309,4.7309,4.7624,4.8339,4.8407,4.8764,4.9583,4.9726,4.9844,5.0017,5.0876,5.1672,5.2409,5.2409,5.2409,5.2409,5.2409,5.2409,5.2409,5.2409,5.2409,5.2409,5.2409,5.2409,5.2409,5.2409,5.2738,5.3251,5.3251,5.3649,5.4096,5.3483,5.3251,5.3169,5.2572,5.2409,5.2409,5.2409,5.2409,5.2409,5.2409,5.2409,5.2445,5.2553,5.2868,5.323,5.3433,5.3501,5.3501,5.3501,5.3501,5.3501,5.3501,5.3501,5.3501,5.3501,5.3501,5.3501,5.3501,5.3501,5.3501,5.3501,5.3501,5.3501,5.3501,5.3501,5.3501,5.3501,5.3501,5.3501,5.3501,5.3501,5.3501,5.3501,5.3501,5.3501,5.3501,5.3501,5.3501,5.3501,5.3501,5.3501,5.3518,5.4126,5.482,5.5564,5.6292,5.7036,5.7729,5.7831,5.7881,5.7881,5.7881,5.8298,5.8892,5.8892,5.9691,6.0855,6.0945,6.1361,6.185,4.7309,4.7309,4.7309,4.7309,4.7309,4.7309,4.7309,4.7309,4.7309,4.7309,4.7309,4.7309,4.7309,4.7309,4.751,4.7976,4.8019,4.8573,4.9837,4.9091,4.9157,5.0422,5.0499,5.0745,5.1177,5.1582,5.198,5.2409,5.2409,5.2409,5.2409,5.2409,5.2409,5.2409,5.2409,5.2409,5.2409,5.2409,5.2605,5.2937,5.2937,5.3367,5.3976,5.3976,5.4175,5.4477,5.4129,5.3976,5.3861,5.3185,5.2937,5.287,5.2489,5.2409,5.2409,5.2409,5.2445,5.2535,5.2711,5.2972,5.3264,5.3467,5.3501,5.3501,5.3501,5.3501,5.3501,5.3501,5.3501,5.3501,5.3501,5.3501,5.3501,5.3501,5.3501,5.3501,5.3501,5.3501,5.3501,5.3501,5.3501,5.3501,5.3501,5.3501,5.3501,5.3501,5.3501,5.3501,5.3501,5.3501,5.3501,5.3501,5.3501,5.3501,5.3501,5.3501,5.3704,5.4093,5.4431,5.5192,5.6308,5.6647,5.7205,5.7881,5.7881,5.7881,5.7918,5.8298,5.8841,5.9528,5.9899,6.0651,6.1551,6.1551,6.1738,6.1996,4.7309,4.7309,4.7309,4.7309,4.7309,4.7309,4.7309,4.7309,4.7309,4.7309,4.7444,4.7605,4.7807,4.7807,4.8162,4.9078,4.898,4.9519,5.0989,4.9892,4.9837,5.1359,5.1397,5.1709,5.239,5.2409,5.2409,5.2409,5.2409,5.2409,5.2409,5.2409,5.2409,5.2409,5.2409,5.2473,5.2622,5.2622,5.3019,5.3665,5.3665,5.4113,5.4738,5.4738,5.4875,5.5007,5.4804,5.4738,5.4622,5.3914,5.3549,5.3318,5.2788,5.2523,5.2409,5.2409,5.2535,5.2694,5.2868,5.3041,5.3264,5.3467,5.3501,5.3501,5.3501,5.3501,5.3501,5.3501,5.3501,5.3501,5.3501,5.3501,5.3501,5.3501,5.3501,5.3501,5.3501,5.3501,5.3501,5.3501,5.3501,5.3501,5.3501,5.3501,5.3501,5.3501,5.3501,5.3501,5.3501,5.3501,5.3501,5.3501,5.3501,5.3501,5.3501,5.367,5.4042,5.4583,5.4938,5.57,5.6816,5.6985,5.7357,5.7881,5.7881,5.7991,5.8173,5.8668,5.9429,6.0282,6.0789,6.1401,6.1996,6.1996,6.1996,6.1996,4.7309,4.7309,4.7309,4.7309,4.7309,4.7309,4.7309,4.7309,4.7309,4.7309,4.7833,4.8528,4.9339,4.9397,4.9692,5.0664,5.012,5.0096,5.1043,5.0989,5.1306,5.2266,5.2302,5.2338,5.2409,5.2409,5.2409,5.2409,5.2409,5.2409,5.2409,5.2409,5.2409,5.2409,5.2409,5.2738,5.3334,5.3334,5.3765,5.4407,5.4407,5.4837,5.5516,5.5516,5.5951,5.6448,5.5769,5.5516,5.54,5.4655,5.3943,5.34,5.3351,5.2904,5.2409,5.2409,5.264,5.2868,5.2903,5.3041,5.3264,5.3467,5.3501,5.3501,5.3501,5.3501,5.3501,5.3501,5.3501,5.3501,5.3501,5.3501,5.3501,5.3501,5.3501,5.3501,5.3501,5.3501,5.3501,5.3501,5.3501,5.3501,5.3501,5.3501,5.3501,5.3501,5.3501,5.3501,5.3501,5.3501,5.3501,5.3501,5.3501,5.3501,5.3501,5.4177,5.4532,5.4617,5.5987,5.6697,5.6816,5.7509,5.7831,5.7881,5.7881,5.8263,5.8823,5.8892,5.9706,6.0939,6.0968,6.1401,6.1996,6.1996,6.1996,6.1996,4.7309,4.7309,4.7309,4.7309,4.7309,4.7309,4.7309,4.7309,4.7309,4.7309,4.7878,4.8632,4.9485,4.9955,5.0793,5.2236,5.2114,5.2143,5.2491,5.2548,5.2514,5.239,5.2409,5.2409,5.2409,5.2409,5.2409,5.2409,5.2409,5.2409,5.2409,5.2409,5.2409,5.2442,5.2821,5.3169,5.345,5.3914,5.449,5.5168,5.5168,5.5636,5.6282,5.6282,5.6448,5.6647,5.6382,5.6282,5.6183,5.5416,5.4672,5.4013,5.3549,5.2937,5.2409,5.2499,5.2694,5.2938,5.3041,5.323,5.3382,5.3467,5.3501,5.3501,5.3501,5.3501,5.3501,5.3501,5.3501,5.3501,5.3501,5.3501,5.3501,5.3501,5.3501,5.3501,5.3501,5.3501,5.3501,5.3501,5.3501,5.3501,5.3501,5.3501,5.3501,5.3501,5.3501,5.3501,5.3501,5.3501,5.3501,5.3501,5.394,5.4177,5.4177,5.4448,5.5057,5.597,5.6528,5.7036,5.7492,5.7763,5.7881,5.7918,5.8334,5.8668,5.896,5.9835,6.0529,6.1045,6.1458,6.1794,6.1996,6.1996,6.1996,6.1996,4.7384,4.7474,4.7549,4.7339,4.7309,4.7309,4.7309,4.7309,4.7381,4.7651,4.8492,4.9469,5.0632,5.1367,5.2372,5.3893,5.3797,5.37,5.3745,5.3765,5.3351,5.2423,5.2409,5.2409,5.2409,5.2409,5.2409,5.2409,5.2409,5.2409,5.2409,5.2605,5.2705,5.2738,5.345,5.3881,5.4109,5.4605,5.5251,5.5968,5.5968,5.6249,5.668,5.668,5.668,5.668,5.668,5.668,5.6614,5.6133,5.5322,5.4427,5.3914,5.3155,5.248,5.2553,5.2799,5.3007,5.3144,5.3348,5.3501,5.3501,5.3501,5.3501,5.3501,5.3501,5.3501,5.3501,5.3501,5.3501,5.3501,5.3501,5.3501,5.3501,5.3501,5.3501,5.3501,5.3501,5.3501,5.3501,5.3501,5.3501,5.3501,5.3501,5.3501,5.3501,5.3501,5.3501,5.3501,5.3501,5.3619,5.3839,5.4329,5.4803,5.5277,5.5277,5.5801,5.6799,5.7036,5.7408,5.7881,5.7881,5.7881,5.7954,5.8616,5.9028,5.933,6.0511,6.1133,6.1372,6.1822,6.1996,6.1996,6.1996,6.1996,6.1996,4.7578,4.7848,4.8087,4.7429,4.7309,4.7309,4.7309,4.7309,4.7639,4.8506,4.977,5.1309,5.3106,5.3911,5.4665,5.5506,5.492,5.449,5.449,5.449,5.3881,5.2492,5.2442,5.239,5.239,5.239,5.2426,5.2409,5.2409,5.2409,5.2407,5.3086,5.3417,5.345,5.4158,5.4903,5.5582,5.5599,5.6051,5.668,5.668,5.668,5.668,5.668,5.668,5.668,5.668,5.668,5.668,5.668,5.5719,5.449,5.451,5.3625,5.2589,5.2589,5.2868,5.3179,5.3179,5.3348,5.3501,5.3501,5.3501,5.3501,5.3501,5.3501,5.3501,5.3501,5.3501,5.3501,5.3501,5.3501,5.3501,5.3501,5.3501,5.3501,5.3501,5.3501,5.3501,5.3501,5.3501,5.3501,5.3501,5.3501,5.3501,5.3501,5.3501,5.3501,5.3501,5.3518,5.3839,5.4566,5.46,5.531,5.6799,5.6799,5.6799,5.6816,5.7543,5.7881,5.7881,5.7881,5.7881,5.7954,5.8616,5.933,6.0062,6.0729,6.1401,6.1996,6.1996,6.1996,6.1996,6.1996,6.1996,6.1996,4.8072,4.8521,4.8805,4.8102,4.8371,4.8521,4.8057,4.8386,4.8995,4.9873,5.0771,5.2001,5.3849,5.464,5.5382,5.6288,5.6166,5.5819,5.5301,5.4771,5.4291,5.3897,5.3881,5.3632,5.3119,5.3102,5.287,5.2409,5.2409,5.2622,5.3119,5.3318,5.3699,5.4175,5.492,5.5383,5.5615,5.615,5.6498,5.668,5.668,5.668,5.668,5.668,5.668,5.668,5.668,5.668,5.668,5.668,5.5719,5.4345,5.3462,5.2919,5.2676,5.2938,5.311,5.323,5.3382,5.3467,5.3501,5.3501,5.3501,5.3501,5.3501,5.3501,5.3501,5.3501,5.3501,5.3501,5.3501,5.3501,5.3501,5.3501,5.3501,5.3501,5.3501,5.3501,5.3501,5.3501,5.3501,5.3501,5.3501,5.3501,5.3501,5.3501,5.3501,5.3501,5.3501,5.3991,5.4363,5.4583,5.5598,5.6359,5.6799,5.6799,5.7053,5.756,5.778,5.7881,5.7881,5.7881,5.8173,5.8651,5.938,6.0044,6.0759,6.1448,6.1822,6.1996,6.1996,6.1996,6.1996,6.1996,6.1996,6.1996,4.8775,4.9045,4.9179,4.879,4.8835,4.888,4.8745,4.9327,5.0112,5.1014,5.2045,5.3242,5.4721,5.546,5.6083,5.6641,5.668,5.6498,5.6067,5.562,5.5371,5.5371,5.5371,5.4891,5.3881,5.3864,5.3649,5.3218,5.3218,5.345,5.3864,5.4109,5.449,5.4953,5.5719,5.6051,5.6067,5.6498,5.668,5.668,5.668,5.668,5.668,5.668,5.668,5.668,5.668,5.668,5.668,5.668,5.5719,5.4262,5.2983,5.2659,5.2764,5.311,5.3264,5.3348,5.3467,5.3501,5.3501,5.3501,5.3501,5.3501,5.3501,5.3501,5.3501,5.3501,5.3501,5.3501,5.3501,5.3501,5.3501,5.3501,5.3501,5.3501,5.3501,5.3501,5.3501,5.3501,5.3501,5.3501,5.3501,5.3501,5.3501,5.3501,5.3771,5.394,5.394,5.4634,5.5175,5.5463,5.6342,5.6934,5.7222,5.7239,5.7459,5.7881,5.7881,5.7881,5.7881,5.7881,5.8263,5.8926,5.9676,6.0375,6.1045,6.172,6.1996,6.1996,6.1996,6.1996,6.1996,6.1996,6.1996,6.1996,4.9629,4.9449,4.9464,4.9404,4.8984,4.8849,4.9434,5.0293,5.1227,5.208,5.3528,5.4803,5.5605,5.6299,5.668,5.668,5.668,5.668,5.668,5.668,5.668,5.668,5.668,5.6067,5.4742,5.4605,5.4593,5.449,5.449,5.4506,5.4589,5.5267,5.5632,5.5714,5.6398,5.668,5.668,5.668,5.668,5.668,5.668,5.668,5.668,5.668,5.668,5.668,5.668,5.668,5.6663,5.6531,5.562,5.4262,5.3019,5.2729,5.2938,5.3144,5.3348,5.3501,5.3501,5.3501,5.3501,5.3501,5.3501,5.3501,5.3501,5.3501,5.3501,5.3501,5.3501,5.3501,5.3501,5.3501,5.3518,5.3602,5.3602,5.3619,5.3687,5.3704,5.3704,5.3704,5.3704,5.3704,5.3704,5.3704,5.3704,5.3704,5.4313,5.4685,5.4685,5.5412,5.6122,5.6782,5.6867,5.7222,5.7881,5.7881,5.7881,5.7881,5.7881,5.7881,5.7881,5.7954,5.8369,5.9028,5.9756,6.0485,6.1151,6.1766,6.1996,6.1996,6.1996,6.1996,6.1996,6.1996,6.1996,6.1996,5.0077,5.0436,5.0631,5.0122,5.0925,5.1525,5.1143,5.2331,5.3561,5.4461,5.4891,5.5464,5.6371,5.6597,5.668,5.668,5.668,5.668,5.668,5.668,5.668,5.668,5.668,5.6531,5.6216,5.567,5.5069,5.449,5.449,5.4787,5.535,5.5516,5.5918,5.6465,5.6614,5.668,5.668,5.668,5.668,5.668,5.668,5.668,5.668,5.668,5.668,5.668,5.668,5.668,5.6514,5.5371,5.4738,5.4299,5.3196,5.2868,5.2972,5.3314,5.3467,5.3501,5.3501,5.3501,5.3501,5.3501,5.3501,5.3501,5.3501,5.3501,5.3501,5.3501,5.3501,5.3501,5.3501,5.3501,5.3687,5.4262,5.4346,5.4566,5.5158,5.5243,5.5243,5.5243,5.5243,5.5243,5.5243,5.5243,5.5243,5.5243,5.5378,5.548,5.548,5.6173,5.663,5.6799,5.7357,5.7729,5.7881,5.7881,5.7881,5.7881,5.7881,5.7881,5.7918,5.8458,5.9079,5.9806,6.0468,6.118,6.1794,6.195,6.1996,6.1996,6.1996,6.1996,6.1996,6.1996,6.1996,6.1996,5.0659,5.0689,5.0689,5.0659,5.1455,5.2113,5.2082,5.351,5.4762,5.5255,5.5692,5.6162,5.6641,5.668,5.668,5.668,5.668,5.668,5.668,5.668,5.668,5.668,5.668,5.668,5.668,5.6316,5.5951,5.5554,5.5554,5.5752,5.6133,5.6133,5.6332,5.668,5.668,5.668,5.668,5.668,5.668,5.668,5.668,5.668,5.668,5.668,5.668,5.668,5.668,5.668,5.6465,5.5007,5.449,5.4299,5.3231,5.2903,5.2989,5.3399,5.3501,5.3501,5.3501,5.3501,5.3501,5.3501,5.3501,5.3501,5.3501,5.3501,5.3501,5.3501,5.3501,5.3619,5.3957,5.4025,5.4262,5.5006,5.5124,5.526,5.5666,5.5681,5.5681,5.5681,5.5681,5.5681,5.5681,5.5681,5.5681,5.5681,5.6038,5.6241,5.6241,5.6917,5.7323,5.7323,5.7695,5.7881,5.7881,5.7881,5.7881,5.7881,5.7881,5.8082,5.8388,5.8737,5.9495,6.0516,6.0849,6.1372,6.1996,6.1996,6.1996,6.1996,6.1996,6.1996,6.1996,6.1996,6.1996,6.1996,5.1214,5.0734,5.0539,5.1124,5.1667,5.2208,5.2736,5.4385,5.5515,5.5515,5.6218,5.668,5.668,5.668,5.668,5.668,5.668,5.668,5.668,5.668,5.668,5.668,5.668,5.668,5.668,5.668,5.668,5.668,5.668,5.668,5.668,5.668,5.668,5.668,5.668,5.668,5.668,5.668,5.668,5.668,5.668,5.668,5.668,5.668,5.668,5.668,5.668,5.668,5.6448,5.4858,5.4411,5.4299,5.3231,5.2903,5.2989,5.3399,5.3501,5.3501,5.3501,5.3501,5.3501,5.3501,5.3501,5.3501,5.3501,5.3501,5.3501,5.3501,5.3602,5.3873,5.4482,5.4702,5.5023,5.5784,5.5902,5.5953,5.6072,5.6089,5.6089,5.6089,5.6089,5.6089,5.6089,5.6089,5.6089,5.6089,5.6647,5.6985,5.6985,5.756,5.7881,5.7881,5.7881,5.7881,5.7881,5.7881,5.7881,5.7881,5.8027,5.8352,5.8892,5.9028,5.9771,6.1016,6.1104,6.1505,6.1996,6.1996,6.1996,6.1996,6.1996,6.1996,6.1996,6.1996,6.1996,6.1996,5.1214,5.1154,5.1109,5.1199,5.2574,5.371,5.3805,5.5369,5.6508,5.6508,5.6603,5.668,5.668,5.668,5.668,5.668,5.668,5.668,5.668,5.668,5.668,5.668,5.668,5.668,5.668,5.668,5.668,5.668,5.668,5.668,5.668,5.668,5.668,5.668,5.668,5.668,5.668,5.668,5.668,5.668,5.668,5.668,5.668,5.668,5.668,5.668,5.668,5.668,5.6365,5.4278,5.398,5.4299,5.3231,5.2903,5.2989,5.3399,5.3501,5.3501,5.3501,5.3501,5.3501,5.3501,5.3501,5.3501,5.3501,5.3501,5.3501,5.3501,5.4008,5.4482,5.4566,5.5124,5.5801,5.6528,5.6664,5.6867,5.7509,5.7594,5.7594,5.7594,5.7594,5.7594,5.7594,5.7594,5.7594,5.7594,5.7679,5.7746,5.7746,5.7831,5.7881,5.7881,5.7881,5.7881,5.7881,5.7881,5.7881,5.7935,5.8493,5.8789,5.8926,5.9561,6.0282,6.1045,6.1618,6.1923,6.1996,6.1996,6.1996,6.1996,6.1996,6.1996,6.1996,6.1996,6.1996,6.1996,5.1214,5.1214,5.1214,5.1214,5.2725,5.3976,5.3976,5.5547,5.668,5.668,5.668,5.668,5.668,5.668,5.668,5.668,5.668,5.668,5.668,5.668,5.668,5.668,5.668,5.668,5.668,5.668,5.668,5.668,5.668,5.668,5.668,5.668,5.668,5.668,5.668,5.668,5.668,5.668,5.668,5.668,5.668,5.668,5.668,5.668,5.668,5.663,5.6233,5.5835,5.5272,5.3881,5.3705,5.3934,5.3133,5.2972,5.311,5.3416,5.3501,5.3501,5.3501,5.3501,5.3501,5.3501,5.3501,5.3501,5.3501,5.3501,5.3619,5.4025,5.4363,5.4837,5.5683,5.6089,5.6562,5.7289,5.7408,5.7526,5.7848,5.7881,5.7881,5.7881,5.7881,5.7881,5.7881,5.7881,5.7881,5.7881,5.7881,5.7881,5.7881,5.7881,5.7881,5.7881,5.7881,5.7881,5.7881,5.7881,5.7881,5.7918,5.8581,5.9129,5.9528,6.0251,6.0927,6.1561,6.1868,6.1996,6.1996,6.1996,6.1996,6.1996,6.1996,6.1996,6.1996,6.1996,6.1996,6.1996]}]]